[[{"header":{"parameterUnit":"m.s-1","parameterCategory":1,"la1":30.6,"la2":28.766,"lo1":-90.7593,"lo2":-88.6598,"dy":0.0162,"dx":0.0183,"nx":116,"ny":114,"refTime":"2024-04-27T06:00:00:Z","depth":0,"parameterNumber":2,"parameterNumberName":"U-component_of_WINDS"},"data":[0.0,0.0,0.0,0.0,0.0,0.0,0.0,0.0,0.0,0.0,0.0,0.0,0.0,0.0,0.0,0.0,0.0,0.0,0.0,0.0,0.0,0.0,0.0,0.0,0.0,0.0,0.0,0.0,0.0,0.0,0.0,0.0,0.0,0.0,0.0,0.0,0.0,0.0,0.0,0.0,0.0,0.0,0.0,0.0,0.0,0.0,0.0,0.0,0.0,0.0,0.0,0.0,0.0,0.0,0.0,0.0,0.0,0.0,0.0,0.0,0.0,0.0,0.0,0.0,0.0,0.0,0.0,0.0,0.0,0.0,0.0,0.0,0.0,0.0,0.0,0.0,0.0,0.0,0.0,0.0,0.0,0.0,0.0,0.0,0.0,0.0,0.0,0.0,0.0,0.0,0.0,0.0,0.0,0.0,0.0,0.0,0.0,0.0,0.0,0.0,0.0,0.0,0.0,0.0,0.0,0.0,0.0,0.0,0.0,0.0,0.0,0.0,0.0,0.0,0.0,0.0,0.0,0.0,0.0,0.0,0.0,0.0,0.0,0.0,0.0,0.0,0.0,0.0,0.0,0.0,0.0,0.0,0.0,0.0,0.0,0.0,0.0,0.0,0.0,0.0,0.0,0.0,0.0,0.0,0.0,0.0,0.0,0.0,0.0,0.0,0.0,0.0,0.0,0.0,0.0,0.0,0.0,0.0,0.0,0.0,0.0,0.0,0.0,0.0,0.0,0.0,0.0,0.0,0.0,0.0,0.0,0.0,0.0,0.0,0.0,0.0,0.0,0.0,0.0,0.0,0.0,0.0,0.0,0.0,0.0,0.0,0.0,0.0,0.0,0.0,0.0,0.0,0.0,0.0,0.0,0.0,0.0,0.0,0.0,0.0,0.0,0.0,0.0,0.0,0.0,0.0,0.0,0.0,0.0,0.0,0.0,0.0,0.0,0.0,0.0,0.0,0.0,0.0,0.0,0.0,0.0,0.0,0.0,0.0,0.0,0.0,0.0,0.0,0.0,0.0,0.0,0.0,0.0,0.0,0.0,0.0,0.0,0.0,0.0,0.0,0.0,0.0,0.0,0.0,0.0,0.0,0.0,0.0,0.0,0.0,0.0,0.0,0.0,0.0,0.0,0.0,0.0,0.0,0.0,0.0,0.0,0.0,0.0,0.0,0.0,0.0,0.0,0.0,0.0,0.0,0.0,0.0,0.0,0.0,0.0,0.0,0.0,0.0,0.0,0.0,0.0,0.0,0.0,0.0,0.0,0.0,0.0,0.0,0.0,0.0,0.0,0.0,0.0,0.0,0.0,0.0,0.0,0.0,0.0,0.0,0.0,0.0,0.0,0.0,0.0,0.0,0.0,0.0,0.0,0.0,0.0,0.0,0.0,0.0,0.0,0.0,0.0,0.0,0.0,0.0,0.0,0.0,0.0,0.0,0.0,0.0,0.0,0.0,0.0,0.0,0.0,0.0,0.0,0.0,0.0,0.0,0.0,0.0,0.0,0.0,0.0,0.0,0.0,0.0,0.0,0.0,0.0,0.0,0.0,0.0,0.0,0.0,0.0,0.0,0.0,0.0,0.0,0.0,0.0,0.0,0.0,0.0,0.0,0.0,0.0,0.0,0.0,0.0,0.0,0.0,0.0,0.0,0.0,0.0,0.0,0.0,0.0,0.0,0.0,0.0,0.0,0.0,0.0,0.0,0.0,0.0,0.0,0.0,0.0,0.0,0.0,0.0,0.0,0.0,0.0,0.0,0.0,0.0,0.0,0.0,0.0,0.0,0.0,0.0,0.0,0.0,0.0,0.0,0.0,0.0,0.0,0.0,0.0,0.0,0.0,0.0,0.0,0.0,0.0,0.0,0.0,0.0,0.0,0.0,0.0,0.0,0.0,0.0,0.0,0.0,0.0,0.0,0.0,0.0,0.0,0.0,0.0,0.0,0.0,0.0,0.0,0.0,0.0,0.0,0.0,0.0,0.0,0.0,0.0,0.0,0.0,0.0,0.0,0.0,0.0,0.0,0.0,0.0,0.0,0.0,0.0,0.0,0.0,0.0,0.0,0.0,0.0,0.0,0.0,0.0,0.0,0.0,0.0,0.0,0.0,0.0,0.0,0.0,0.0,0.0,0.0,0.0,0.0,0.0,0.0,0.0,0.0,0.0,0.0,0.0,0.0,0.0,0.0,0.0,0.0,0.0,0.0,0.0,0.0,0.0,0.0,0.0,0.0,0.0,0.0,0.0,0.0,0.0,0.0,0.0,0.0,0.0,0.0,0.0,0.0,0.0,0.0,0.0,0.0,0.0,0.0,0.0,0.0,0.0,0.0,0.0,0.0,0.0,0.0,0.0,0.0,0.0,0.0,0.0,0.0,0.0,0.0,0.0,0.0,0.0,0.0,0.0,0.0,0.0,0.0,0.0,0.0,0.0,0.0,0.0,0.0,0.0,0.0,0.0,0.0,0.0,0.0,0.0,0.0,0.0,0.0,0.0,0.0,0.0,0.0,0.0,0.0,0.0,0.0,0.0,0.0,0.0,0.0,0.0,0.0,0.0,0.0,0.0,0.0,0.0,0.0,0.0,0.0,0.0,0.0,0.0,0.0,0.0,0.0,0.0,0.0,0.0,0.0,0.0,0.0,0.0,0.0,0.0,0.0,0.0,0.0,0.0,0.0,0.0,0.0,0.0,0.0,0.0,0.0,0.0,0.0,0.0,0.0,0.0,0.0,0.0,0.0,0.0,0.0,0.0,0.0,0.0,0.0,0.0,0.0,0.0,0.0,0.0,0.0,0.0,0.0,0.0,0.0,0.0,0.0,0.0,0.0,0.0,0.0,0.0,0.0,0.0,0.0,0.0,0.0,0.0,0.0,0.0,0.0,0.0,0.0,0.0,0.0,0.0,0.0,0.0,0.0,0.0,0.0,0.0,0.0,0.0,0.0,0.0,0.0,0.0,0.0,0.0,0.0,0.0,0.0,0.0,0.0,0.0,0.0,0.0,0.0,0.0,0.0,0.0,0.0,0.0,0.0,0.0,0.0,0.0,0.0,0.0,0.0,0.0,0.0,0.0,0.0,0.0,0.0,0.0,0.0,0.0,0.0,0.0,0.0,0.0,0.0,0.0,0.0,0.0,0.0,0.0,0.0,0.0,0.0,0.0,0.0,0.0,0.0,0.0,0.0,0.0,0.0,0.0,0.0,0.0,0.0,0.0,0.0,0.0,0.0,0.0,0.0,0.0,0.0,0.0,0.0,0.0,0.0,0.0,0.0,0.0,0.0,0.0,0.0,0.0,0.0,0.0,0.0,0.0,0.0,0.0,0.0,0.0,0.0,0.0,0.0,0.0,0.0,0.0,0.0,0.0,0.0,0.0,0.0,0.0,0.0,0.0,0.0,0.0,0.0,0.0,0.0,0.0,0.0,0.0,0.0,0.0,0.0,0.0,0.0,0.0,0.0,0.0,0.0,0.0,0.0,0.0,0.0,0.0,0.0,0.0,0.0,0.0,0.0,0.0,0.0,0.0,0.0,0.0,0.0,0.0,0.0,0.0,0.0,0.0,0.0,0.0,0.0,0.0,0.0,0.0,0.0,0.0,0.0,0.0,0.0,0.0,0.0,0.0,0.0,0.0,0.0,0.0,0.0,0.0,0.0,0.0,0.0,0.0,0.0,0.0,0.0,0.0,0.0,0.0,0.0,0.0,0.0,0.0,0.0,0.0,0.0,0.0,0.0,0.0,0.0,0.0,0.0,0.0,0.0,0.0,0.0,0.0,0.0,0.0,0.0,0.0,0.0,0.0,0.0,0.0,0.0,0.0,0.0,0.0,0.0,0.0,0.0,0.0,0.0,0.0,0.0,0.0,0.0,0.0,0.0,0.0,0.0,0.0,0.0,0.0,0.0,0.0,0.0,0.0,0.0,0.0,0.0,0.0,0.0,0.0,0.0,0.0,0.0,0.0,0.0,0.0,0.0,0.0,0.0,0.0,0.0,0.0,0.0,0.0,0.0,0.0,0.0,0.0,0.0,0.0,0.0,0.0,0.0,0.0,0.0,0.0,0.0,0.0,0.0,0.0,0.0,0.0,0.0,0.0,0.0,0.0,0.0,0.0,0.0,0.0,0.0,0.0,0.0,0.0,0.0,0.0,0.0,0.0,0.0,0.0,0.0,0.0,0.0,0.0,0.0,0.0,0.0,0.0,0.0,0.0,0.0,0.0,0.0,0.0,0.0,0.0,0.0,0.0,0.0,0.0,0.0,0.0,0.0,0.0,0.0,0.0,0.0,0.0,0.0,0.0,0.0,0.0,0.0,0.0,0.0,0.0,0.0,0.0,0.0,0.0,0.0,0.0,0.0,0.0,0.0,0.0,0.0,0.0,0.0,0.0,0.0,0.0,0.0,0.0,0.0,0.0,0.0,0.0,0.0,0.0,0.0,0.0,0.0,0.0,0.0,0.0,0.0,0.0,0.0,0.0,0.0,0.0,0.0,0.0,0.0,0.0,0.0,0.0,0.0,0.0,0.0,0.0,0.0,0.0,0.0,0.0,0.0,0.0,0.0,0.0,0.0,0.0,0.0,0.0,0.0,0.0,0.0,0.0,0.0,0.0,0.0,0.0,0.0,0.0,0.0,0.0,0.0,0.0,0.0,0.0,0.0,0.0,0.0,0.0,0.0,0.0,0.0,0.0,0.0,0.0,0.0,0.0,0.0,0.0,0.0,0.0,0.0,0.0,0.0,0.0,0.0,0.0,0.0,0.0,0.0,0.0,0.0,0.0,0.0,0.0,0.0,0.0,0.0,0.0,0.0,0.0,0.0,0.0,0.0,0.0,0.0,0.0,0.0,0.0,0.0,0.0,0.0,0.0,0.0,0.0,0.0,0.0,0.0,0.0,0.0,0.0,0.0,0.0,0.0,0.0,0.0,0.0,0.0,0.0,0.0,0.0,0.0,0.0,0.0,0.0,0.0,0.0,0.0,0.0,0.0,0.0,0.0,0.0,0.0,0.0,0.0,0.0,0.0,0.0,0.0,0.0,0.0,0.0,0.0,0.0,0.0,0.0,0.0,0.0,0.0,0.0,0.0,0.0,0.0,0.0,0.0,0.0,0.0,0.0,0.0,0.0,0.0,0.0,0.0,0.0,0.0,0.0,0.0,0.0,0.0,0.0,0.0,0.0,0.0,0.0,0.0,0.0,0.0,0.0,0.0,0.0,0.0,0.0,0.0,0.0,0.0,0.0,0.0,0.0,0.0,0.0,0.0,0.0,0.0,0.0,0.0,0.0,0.0,0.0,0.0,0.0,0.0,0.0,0.0,0.0,0.0,0.0,0.0,0.0,0.0,0.0,0.0,0.0,0.0,0.0,0.0,0.0,0.0,0.0,0.0,0.0,0.0,0.0,0.0,0.0,0.0,0.0,0.0,0.0,0.0,0.0,0.0,0.0,0.0,0.0,0.0,0.0,0.0,0.0,0.0,0.0,0.0,0.0,0.0,0.0,0.0,0.0,0.0,0.0,0.0,0.0,0.0,0.0,0.0,0.0,0.0,0.0,0.0,0.0,0.0,0.0,0.0,0.0,0.0,0.0,0.0,0.0,0.0,0.0,0.0,0.0,0.0,0.0,0.0,0.0,0.0,0.0,0.0,0.0,0.0,0.0,0.0,0.0,0.0,0.0,0.0,0.0,0.0,0.0,0.0,0.0,0.0,0.0,0.0,0.0,0.0,0.0,0.0,0.0,0.0,0.0,0.0,0.0,0.0,0.0,0.0,0.0,0.0,0.0,0.0,0.0,0.0,0.0,0.0,0.0,0.0,0.0,0.0,0.0,0.0,0.0,0.0,0.0,0.0,0.0,0.0,0.0,0.0,0.0,0.0,0.0,0.0,0.0,0.0,0.0,0.0,0.0,0.0,0.0,0.0,0.0,0.0,0.0,0.0,0.0,0.0,0.0,0.0,0.0,0.0,0.0,0.0,0.0,0.0,0.0,0.0,0.0,0.0,0.0,0.0,0.0,0.0,0.0,0.0,0.0,0.0,0.0,0.0,0.0,0.0,0.0,0.0,0.0,0.0,0.0,0.0,0.0,0.0,0.0,0.0,0.0,0.0,0.0,0.0,0.0,0.0,0.0,-3.5076,0.0,0.0,0.0,0.0,0.0,0.0,0.0,0.0,0.0,0.0,0.0,0.0,0.0,0.0,0.0,0.0,0.0,0.0,0.0,0.0,0.0,0.0,0.0,0.0,-4.0113,-4.0113,-4.0113,-4.0113,-4.0113,-4.0113,0.0,0.0,0.0,0.0,0.0,-4.0113,-4.0113,-4.0113,-4.0113,-4.0113,-4.0113,-4.0113,-4.0113,-3.991,-3.9512,0.0,0.0,0.0,0.0,0.0,0.0,0.0,0.0,0.0,0.0,0.0,0.0,0.0,0.0,0.0,0.0,0.0,0.0,0.0,0.0,0.0,0.0,0.0,0.0,0.0,0.0,0.0,0.0,0.0,0.0,0.0,0.0,0.0,0.0,0.0,0.0,0.0,0.0,0.0,0.0,0.0,0.0,0.0,0.0,0.0,0.0,0.0,0.0,0.0,0.0,0.0,0.0,0.0,0.0,0.0,0.0,0.0,0.0,0.0,0.0,0.0,0.0,0.0,0.0,0.0,0.0,0.0,0.0,0.0,0.0,0.0,-3.5211,0.0,0.0,0.0,0.0,0.0,0.0,0.0,0.0,0.0,0.0,0.0,0.0,0.0,0.0,0.0,0.0,0.0,0.0,0.0,0.0,0.0,-4.0113,-4.0113,-4.0113,-4.0113,-4.0113,-4.0113,-4.0113,-4.0113,-4.0113,0.0,0.0,-4.0113,-4.0113,-4.0113,-4.0113,-4.0113,-4.0113,-4.0113,-4.0113,-4.0113,-4.0113,-4.0113,-4.0087,-3.9394,0.0,0.0,0.0,0.0,0.0,0.0,0.0,0.0,0.0,0.0,0.0,0.0,0.0,0.0,0.0,0.0,0.0,0.0,0.0,0.0,0.0,0.0,0.0,0.0,0.0,0.0,0.0,0.0,0.0,0.0,0.0,0.0,0.0,0.0,0.0,0.0,0.0,0.0,0.0,0.0,0.0,0.0,0.0,0.0,0.0,0.0,0.0,0.0,0.0,0.0,0.0,0.0,0.0,0.0,0.0,0.0,0.0,0.0,0.0,0.0,0.0,0.0,0.0,-3.7922,-3.7922,-3.7889,-3.83,-3.8288,-3.7845,-3.7031,-3.6297,-3.5711,-3.6088,0.0,0.0,0.0,0.0,0.0,0.0,0.0,0.0,0.0,0.0,0.0,0.0,0.0,0.0,0.0,0.0,0.0,0.0,0.0,-4.0113,-4.0113,-4.0113,-4.0113,-4.0113,-4.0113,-4.0113,-4.0113,-4.0113,-4.0113,-4.0113,-4.0113,-4.0113,-4.0113,-4.0113,-4.0113,-4.0113,-4.0113,-4.0113,-4.0113,-4.0113,-4.0113,-4.0113,-3.9978,-3.9919,-3.9784,0.0,0.0,0.0,0.0,0.0,0.0,0.0,0.0,0.0,0.0,0.0,0.0,0.0,0.0,0.0,0.0,0.0,0.0,0.0,0.0,0.0,0.0,0.0,0.0,0.0,0.0,0.0,0.0,0.0,0.0,0.0,0.0,0.0,0.0,0.0,0.0,0.0,0.0,0.0,0.0,0.0,-3.7618,-3.7618,0.0,0.0,0.0,0.0,0.0,0.0,0.0,0.0,0.0,0.0,0.0,0.0,0.0,-3.7922,-3.7922,-3.7922,-3.7922,-3.7922,-3.7922,-3.7922,-3.7889,-3.796,-3.796,-3.7889,-3.7757,0.0,-3.7543,-3.7636,0.0,0.0,0.0,0.0,0.0,0.0,0.0,0.0,0.0,0.0,0.0,0.0,0.0,0.0,0.0,0.0,0.0,0.0,0.0,0.0,0.0,-4.0113,-4.0113,-4.0113,-4.0113,-4.0113,-4.0113,-4.0113,-4.0113,-4.0113,-4.0113,-4.0113,-4.0113,-4.0113,-4.0113,-4.0113,-4.0113,-4.0113,-4.0113,-4.0113,-4.0113,-4.0113,-4.0113,-4.0113,-4.0079,-3.9774,0.0,0.0,0.0,0.0,0.0,0.0,0.0,0.0,0.0,0.0,0.0,0.0,0.0,0.0,0.0,0.0,0.0,0.0,0.0,0.0,0.0,0.0,0.0,0.0,0.0,0.0,0.0,0.0,0.0,0.0,0.0,0.0,0.0,0.0,0.0,0.0,0.0,0.0,0.0,-3.7922,-3.7922,-3.7922,-3.8261,-3.8531,0.0,0.0,0.0,0.0,0.0,0.0,0.0,0.0,0.0,-3.914,-3.914,-3.914,-3.914,-3.914,-3.914,-3.914,-3.914,-3.914,-3.914,-3.914,-3.914,-3.914,-3.914,-3.914,-3.9073,-3.8261,-3.7719,-3.7381,0.0,0.0,0.0,0.0,-3.5954,-3.5621,0.0,0.0,0.0,0.0,0.0,0.0,0.0,0.0,0.0,0.0,0.0,0.0,-4.0113,-4.0113,-4.0113,-4.0113,-4.0113,-4.0113,-4.0113,-4.0113,-4.0113,-4.0113,-4.0113,-4.0113,-4.0113,-4.0113,-4.0113,-4.0113,-4.0113,-4.0113,-4.0113,-4.0113,-4.0113,-4.0113,-4.0113,-4.0113,-4.0113,-4.0113,-3.9496,-3.8524,0.0,0.0,0.0,0.0,0.0,0.0,0.0,0.0,0.0,0.0,0.0,0.0,0.0,0.0,0.0,0.0,0.0,0.0,0.0,0.0,0.0,0.0,0.0,0.0,0.0,0.0,0.0,0.0,0.0,0.0,0.0,0.0,0.0,0.0,0.0,0.0,0.0,-3.8464,-3.8464,-3.8464,-3.8937,-3.9276,0.0,0.0,0.0,0.0,0.0,0.0,-4.0113,-4.0113,-4.0113,-4.0113,-4.0282,-4.0383,-4.0383,-4.0587,-4.0654,-4.0654,-4.0654,-4.0654,-4.0654,-4.0654,-4.0654,-4.0654,-4.0654,-4.0553,-4.0282,-3.8971,-3.8362,-3.8193,-3.8193,-3.8058,-3.7922,-3.7922,-3.755,-3.71,0.0,0.0,0.0,0.0,0.0,0.0,0.0,0.0,0.0,0.0,0.0,-4.0113,-4.0113,-4.0113,-4.0113,-4.0113,-4.0113,-4.0113,-4.0113,-4.0113,-4.0113,-4.0113,-4.0113,-4.0113,-4.0113,-4.0113,-4.0113,-4.0113,-4.0113,-4.0113,-4.0113,-4.0113,-4.0113,-4.0113,-4.0113,-4.0113,-4.0113,-4.0113,-4.0054,-3.9995,-3.9995,0.0,0.0,0.0,0.0,0.0,0.0,0.0,0.0,0.0,0.0,0.0,0.0,0.0,0.0,0.0,0.0,0.0,0.0,0.0,0.0,0.0,0.0,0.0,0.0,0.0,0.0,0.0,0.0,0.0,0.0,0.0,0.0,0.0,0.0,0.0,0.0,0.0,0.0,-4.0011,-4.0011,0.0,0.0,0.0,0.0,-4.0113,-4.0113,-4.0113,-4.0113,-4.0113,-4.0113,-4.0113,-4.0764,-4.1136,-4.1136,-4.1847,-4.2185,-4.2185,-4.2185,-4.2185,-4.2185,-4.2185,-4.2185,-4.2185,-4.2185,-4.1779,-4.1068,-4.0316,-3.9571,-3.8937,-3.8937,-3.8531,-3.7922,-3.7922,-3.7889,-3.7855,0.0,0.0,0.0,0.0,0.0,-4.0113,-4.0113,-4.0113,-4.0113,-4.0113,-4.0113,-4.0113,-4.0113,-4.0113,-4.0113,-4.0113,-4.0113,-4.0113,-4.0113,-4.0113,-4.0113,-4.0113,-4.0113,-4.0113,-4.0113,-4.0113,-4.0113,-4.0113,-4.0113,-4.0113,-4.0113,-4.0113,-4.0113,-4.0113,-4.0113,-4.0113,-4.0113,-4.0113,-4.0113,-4.0113,-4.0113,-3.9631,0.0,0.0,0.0,0.0,0.0,0.0,0.0,0.0,0.0,0.0,0.0,0.0,0.0,0.0,0.0,0.0,0.0,0.0,0.0,0.0,0.0,0.0,0.0,0.0,0.0,0.0,0.0,0.0,0.0,0.0,0.0,0.0,0.0,0.0,0.0,0.0,0.0,-4.0113,-4.0113,0.0,-4.0113,-4.0113,-4.0113,-4.0113,-4.0527,-4.0798,-4.0798,-4.1238,-4.1534,-4.1534,-4.1779,-4.1914,-4.1914,-4.2151,-4.2286,-4.2286,-4.2286,-4.2286,-4.2286,-4.2286,-4.2286,-4.2286,-4.2286,-4.2151,-4.188,-4.161,-4.0823,-3.9706,-3.9706,-3.9571,-3.9334,-3.9334,-3.9334,-3.9334,0.0,0.0,0.0,-4.0113,-4.0113,-4.0113,-4.0113,-4.0113,-4.0113,-4.0113,-4.0113,-4.0113,-4.0113,-4.0113,-4.0113,-4.0113,-4.0113,-4.0113,-4.0113,-4.0113,-4.0113,-4.0113,-4.0113,-4.0113,-4.0113,-4.0113,-4.0113,-4.0113,-4.0113,-4.0113,-4.0113,-4.0113,-4.0113,-4.0113,-4.0113,-4.0113,-4.0113,-4.0113,-4.0113,-4.0113,-4.0113,-3.9765,-3.9282,0.0,0.0,0.0,0.0,0.0,0.0,0.0,0.0,0.0,0.0,0.0,0.0,0.0,0.0,0.0,0.0,0.0,0.0,0.0,0.0,0.0,0.0,0.0,0.0,0.0,0.0,0.0,0.0,0.0,0.0,0.0,0.0,0.0,0.0,-4.0113,-4.0113,-4.0113,-4.0113,-4.0214,-4.0451,-4.046,-4.0587,-4.0823,-4.1271,-4.1576,-4.1576,-4.2016,-4.2286,-4.2286,-4.2523,-4.2794,-4.3064,-4.3301,-4.3572,-4.3809,-4.3809,-4.3809,-4.3809,-4.3572,-4.3436,-4.3436,-4.3166,-4.2895,-4.2658,-4.2658,-4.1948,-4.0857,-4.0857,-4.0688,-4.046,-4.046,-4.0316,-4.0113,0.0,-4.0113,-4.0113,-4.0113,-4.0113,-4.0113,-4.0113,-4.0113,-4.0113,-4.0113,-4.0113,-4.0113,-4.0113,-4.0113,-4.0113,-4.0113,-4.0113,-4.0113,-4.0113,-4.0113,-4.0113,-4.0113,-4.0113,-4.0113,-4.0113,-4.0113,-4.0146,-4.0146,-4.0146,-4.018,-4.018,-4.018,-4.018,-4.018,-4.018,-4.0146,-4.0146,-4.0146,-4.0113,-4.0113,-4.0113,-4.0113,-4.0113,0.0,0.0,0.0,0.0,0.0,0.0,0.0,0.0,0.0,0.0,0.0,0.0,0.0,0.0,0.0,0.0,0.0,0.0,0.0,0.0,0.0,0.0,0.0,0.0,0.0,0.0,0.0,0.0,0.0,0.0,0.0,0.0,0.0,-4.0113,-4.0113,-4.0113,-4.0146,-4.0146,-4.0392,-4.117,-4.1238,-4.1542,-4.2252,-4.232,-4.2354,-4.2354,-4.2422,-4.2422,-4.2422,-4.3132,-4.3876,-4.4682,-4.5365,-4.6075,-4.6786,-4.6786,-4.6786,-4.6786,-4.6075,-4.5737,-4.5703,-4.4959,-4.4215,-4.3477,-4.3477,-4.3064,-4.2388,-4.232,-4.1847,-4.1238,-4.1238,-4.0764,-4.018,-4.0113,-4.0113,-4.0113,-4.0113,-4.0113,-4.0113,-4.0113,-4.0113,-4.0113,-4.0113,-4.0113,-4.0113,-4.0113,-4.0113,-4.0113,-4.0113,-4.0113,-4.0113,-4.0113,-4.0113,-4.0113,-4.0113,-4.0113,-4.0113,-4.0113,-4.0595,-4.0899,-4.0899,-4.1407,-4.1704,-4.1704,-4.1704,-4.1704,-4.1704,-4.1704,-4.1407,-4.0899,-4.0899,-4.0595,-4.0113,-4.0113,-4.0113,-4.0113,0.0,0.0,0.0,0.0,0.0,0.0,0.0,0.0,0.0,0.0,0.0,0.0,0.0,0.0,0.0,0.0,0.0,0.0,0.0,0.0,0.0,0.0,0.0,0.0,0.0,0.0,0.0,0.0,0.0,0.0,0.0,-4.0113,-4.0113,-4.0113,-4.0113,-4.0316,-4.0832,-4.0899,-4.117,-4.1914,-4.1982,-4.2083,-4.2286,-4.3362,-4.3972,-4.3972,-4.4959,-4.5568,-4.5568,-4.5771,-4.5974,-4.6177,-4.638,-4.6583,-4.6786,-4.6786,-4.6786,-4.6786,-4.6583,-4.6481,-4.6481,-4.6278,-4.6075,-4.5838,-4.5297,-4.4959,-4.4587,-4.2929,-4.2185,-4.1982,-4.1982,-4.1847,-4.161,-4.0113,-4.0113,-4.0113,-4.0113,-4.0113,-4.0113,-4.0113,-4.0113,-4.0113,-4.0113,-4.0113,-4.0113,-4.0113,-4.0113,-4.0113,-4.0113,-4.0113,-4.0113,-4.0113,-4.0113,-4.0113,-4.0113,-4.0113,-4.0248,-4.0527,-4.0967,-4.1339,-4.1644,-4.2083,-4.2286,-4.2286,-4.2286,-4.2286,-4.2286,-4.2286,-4.2049,-4.1644,-4.1339,-4.0933,-4.0527,-4.0214,-4.0113,-4.0113,-4.0113,-3.9825,-3.9394,-3.9394,-3.8881,-3.8189,-3.77,0.0,0.0,0.0,0.0,0.0,0.0,0.0,0.0,0.0,0.0,0.0,0.0,0.0,0.0,0.0,0.0,0.0,0.0,0.0,0.0,0.0,0.0,0.0,0.0,-4.0383,-4.0561,-4.0561,-4.0561,-4.0696,-4.117,-4.1474,-4.1948,-4.2692,-4.3064,-4.3369,-4.3707,-4.4823,-4.5529,-4.5529,-4.6312,-4.6786,-4.6786,-4.6786,-4.6955,-4.7259,-4.7259,-4.7428,-4.7699,-4.7699,-4.7699,-4.7699,-4.7394,-4.7259,-4.7259,-4.6921,-4.6786,-4.6752,-4.6346,-4.6143,0.0,0.0,0.0,0.0,0.0,-4.2286,-4.2219,-4.0113,-4.0113,-4.0113,-4.0113,-4.0113,-4.0113,-4.0113,-4.0113,-4.0113,-4.0113,-4.0113,-4.0113,-4.0113,-4.0113,-4.0113,-4.0113,-4.0113,-4.0113,-4.0113,-4.0113,-4.0113,-4.0113,-4.0113,-4.0451,-4.117,-4.1271,-4.1677,-4.2422,-4.2489,-4.2557,-4.2557,-4.2557,-4.2557,-4.2557,-4.2557,-4.2489,-4.2388,-4.1644,-4.1271,-4.1136,-4.0417,-4.0113,-4.0113,-4.0113,-4.0113,-4.0113,-4.0113,-3.9636,-3.9016,-3.8935,0.0,0.0,0.0,0.0,0.0,0.0,0.0,0.0,0.0,0.0,0.0,0.0,0.0,0.0,0.0,0.0,0.0,0.0,0.0,0.0,0.0,0.0,0.0,0.0,-4.0764,-4.1238,-4.1305,-4.1407,-4.1474,-4.1474,-4.2117,-4.2861,-4.3578,-4.4384,-4.5094,-4.5771,-4.6515,-4.6921,-4.6921,0.0,0.0,0.0,0.0,-4.7361,-4.8007,-4.8007,-4.8376,-4.9018,-4.9018,-4.9018,-4.8984,-4.8342,-4.8007,-4.8003,-4.7327,-4.7056,-4.7022,-4.6955,-4.6887,-4.665,-4.5359,-4.435,-4.3578,-4.2929,-4.2625,-4.2523,-4.0113,-4.0113,-4.0113,-4.0113,-4.0113,-4.0113,-4.0113,-4.0113,-4.0113,-4.0113,-4.0113,-4.0113,-4.0113,-4.0113,-4.0113,-4.0113,-4.0113,-4.0113,-4.0113,-4.0113,-4.0113,-4.0113,-4.0113,-4.0451,-4.117,-4.1779,-4.2455,-4.32,-4.3842,-4.4175,-4.4175,-4.4175,-4.4175,-4.4175,-4.4175,-4.3775,-4.3166,-4.2388,-4.1745,-4.1136,-4.0417,-4.0113,-4.0113,-4.0113,-4.0113,-4.0113,-4.0113,-3.9978,-3.9765,-3.9129,-3.8799,-3.858,-3.7994,-3.7793,0.0,0.0,0.0,0.0,0.0,0.0,0.0,0.0,0.0,0.0,0.0,0.0,0.0,0.0,0.0,0.0,0.0,0.0,0.0,-4.0899,-4.1102,-4.1407,-4.1982,-4.2591,-4.297,-4.297,-4.3673,-4.4418,-4.5196,-4.594,-4.6413,-4.6583,-4.7293,-4.7699,-4.7699,-4.824,-4.8578,-4.8578,-4.8578,-4.8646,-4.8781,-4.8781,-4.8849,-4.9018,0.0,0.0,-4.9018,-4.8849,-4.8781,-4.8781,-4.8646,-4.8578,-4.8545,-4.7936,-4.7327,-4.6752,-4.6481,-4.5906,-4.5263,-4.5094,-4.4654,-4.4073,-4.0113,-4.0113,-4.0113,-4.0113,-4.0113,-4.0113,-4.0113,-4.0113,-4.0113,-4.0113,-4.0113,-4.0113,-4.0113,-4.0113,-4.0113,-4.0113,-4.0113,-4.0113,-4.0113,-4.0113,-4.0113,-4.0113,-4.0113,-4.062,-4.1745,-4.2117,-4.2861,-4.4012,-4.4412,-4.4615,-4.4615,-4.4615,-4.4615,-4.4615,-4.4615,-4.4378,-4.3944,-4.276,-4.2083,-4.1644,-4.0553,-4.0113,-4.0113,-4.0113,-4.0113,-4.0113,-4.0113,-4.0113,-4.0062,-3.9636,-3.9506,-3.9454,-3.9076,-3.8941,-3.8887,0.0,0.0,0.0,0.0,0.0,0.0,0.0,0.0,0.0,0.0,0.0,0.0,0.0,0.0,-4.0113,-4.0113,0.0,-4.0764,-4.1136,-4.1847,-4.2455,-4.2794,-4.3842,-4.4418,-4.4045,-4.4688,-4.5432,-4.6177,-4.6921,-4.7361,-4.7361,-4.8037,-4.8477,-4.8477,-4.8815,-4.9018,-4.9018,-4.9018,-4.9018,-4.9018,-4.9018,-4.9018,-4.9018,-4.9018,-4.9018,-4.9018,-4.9018,-4.9018,-4.9018,-4.9018,-4.9018,-4.8984,-4.8612,-4.824,-4.7902,-4.7902,-4.7225,-4.6244,-4.6244,-4.5771,-4.5094,-4.0113,-4.0113,-4.0113,-4.0113,-4.0113,-4.0113,-4.0113,-4.0113,-4.0113,-4.0113,-4.0113,-4.0113,-4.0113,-4.0113,-4.0113,-4.0113,-4.0113,-4.0113,-4.0113,-4.0113,-4.0113,-4.0113,-4.0113,-4.0722,-4.2049,-4.2219,-4.2963,-4.4378,-4.4513,-4.4615,-4.4615,-4.4615,-4.4615,-4.4615,-4.4615,-4.4513,-4.4276,-4.2895,-4.2219,-4.1948,-4.0654,-4.0113,-4.0113,-4.0113,-4.0113,-4.0113,-4.0113,-4.0113,-4.0113,-4.0113,-4.0113,-4.0113,-4.0113,-4.0113,-3.9978,-3.9315,-3.9506,0.0,0.0,0.0,0.0,0.0,0.0,0.0,0.0,-3.9636,-4.0113,-4.0113,-4.0113,-4.0146,-4.0282,-4.0798,-4.1305,-4.1576,-4.2598,-4.3477,-4.3781,-4.4925,-4.5602,-4.5263,-4.5771,-4.638,-4.6955,-4.7699,-4.8108,-4.8108,-4.868,-4.9018,-4.9018,-4.9018,-4.9018,-4.9018,-4.9018,-4.9018,-4.9018,-4.9018,-4.9018,-4.9018,-4.9018,-4.9018,-4.9018,-4.9018,-4.9018,-4.9018,-4.9018,-4.9018,-4.9018,-4.9018,-4.9018,-4.9018,-4.9018,-4.8274,-4.7192,-4.7056,-4.6549,-4.5906,-4.0113,-4.0113,-4.0113,-4.0113,-4.0113,-4.0113,-4.0113,-4.0113,-4.0113,-4.0113,-4.0113,-4.0113,-4.0113,-4.0113,-4.0113,-4.0113,-4.0113,-4.0113,-4.0113,-4.0113,-4.0113,-4.0113,-4.0113,-4.0485,-4.1305,-4.1948,-4.2692,-4.3511,-4.4248,-4.4615,-4.4615,-4.4615,-4.4615,-4.4615,-4.4615,-4.4181,-4.3504,-4.2658,-4.1914,-4.1238,-4.0451,-4.0113,-4.0113,-4.0113,-4.0113,-4.0113,-4.0113,-4.0113,-4.0113,-4.0113,-4.0113,-4.0113,-4.0113,-4.0113,-4.0087,-3.9978,-3.9532,-3.9016,-3.8908,-3.8908,-3.9043,-3.9662,-3.9901,-3.9952,0.0,-4.0062,-4.0113,-4.0113,-4.0113,-4.0316,-4.0967,-4.1136,-4.1644,-4.2936,-4.3274,-4.3882,-4.5263,-4.5602,-4.6177,-4.7365,-4.7601,-4.7669,-4.777,-4.8443,-4.8883,-4.8883,-4.8951,-4.9018,-4.9018,-4.9018,-4.9018,-4.9018,-4.9018,-4.9018,-4.9018,-4.9018,-4.9018,-4.9018,-4.9018,-4.9018,-4.9018,-4.9018,-4.9018,-4.9018,-4.9018,-4.9018,-4.9018,-4.9018,-4.9018,-4.9018,-4.9018,-4.8917,-4.868,-4.8037,-4.7327,-4.6684,-4.0113,-4.0113,-4.0113,-4.0113,-4.0113,-4.0113,-4.0113,-4.0113,-4.0113,-4.0113,-4.0113,-4.0113,-4.0113,-4.0113,-4.0113,-4.0113,-4.0113,-4.0113,-4.0113,-4.0113,-4.0113,-4.0113,-4.0113,-4.0451,-4.117,-4.1508,-4.2016,-4.276,-4.3538,-4.391,-4.391,-4.4378,-4.435,-4.391,-4.391,-4.347,-4.2726,-4.1982,-4.1474,-4.1136,-4.0417,-4.0113,-4.0113,-4.0113,-4.0113,-4.0113,-4.0113,-4.0113,0.0,-4.0113,-4.0113,-4.0113,-4.0113,-4.0113,-4.0113,-4.0113,-3.9876,-3.961,-3.961,-3.961,-3.9662,-4.0003,-4.0113,-4.0113,-4.0113,-4.0113,-4.0113,-4.0113,-4.0426,-4.0832,-4.1136,-4.1914,-4.2665,-4.3274,-4.4153,-4.4959,-4.5602,-4.6447,-4.7225,-4.7804,-4.8277,-4.8545,-4.8545,-4.8815,-4.9018,-4.9018,-4.939,-4.9627,-4.9627,-5.0067,-5.0304,-5.0304,-5.0304,-5.0067,-4.9627,-4.9627,-4.9424,-4.9018,-4.9018,-4.9018,-4.9018,-4.9018,-4.9018,-4.9018,-4.9018,-4.9018,-4.9018,-4.9018,-4.9018,-4.9018,-4.9018,-4.9018,-4.8951,-4.8646,-4.8071,-4.7462,-4.0113,-4.0113,-4.0113,-4.0113,-4.0113,-4.0113,-4.0113,-4.0113,-4.0113,-4.0113,-4.0113,-4.0113,-4.0113,-4.0113,-4.0113,-4.0113,-4.0113,-4.0113,-4.0113,-4.0113,-4.0113,-4.0113,-4.0113,-4.035,-4.0865,-4.1102,-4.1474,-4.1982,-4.276,-4.3098,-4.3132,-4.3673,-4.3639,-4.3098,-4.3098,-4.2692,-4.1948,-4.1441,-4.1068,-4.0832,-4.0316,-4.0113,-4.0113,-4.0113,-4.0113,-4.0113,-4.0113,-4.0113,-4.0113,-4.0113,-4.0113,-4.0113,-4.0113,-4.0113,-4.0113,-4.0113,-4.0113,-4.0113,-4.0113,-4.0113,-4.0113,-4.0113,-4.0113,-4.0113,-4.0113,-4.0113,-4.018,-4.0383,-4.0832,-4.1339,-4.1745,-4.2692,-4.3477,-4.3707,-4.4857,-4.5771,-4.5974,-4.7124,-4.7973,-4.8206,-4.868,-4.9018,-4.9018,-4.9018,-4.9086,-4.9289,-4.9796,-5.0168,-5.0405,-5.0913,-5.1185,-5.1185,-5.1185,-5.0845,-5.0101,-5.0101,-4.9729,-4.9018,-4.9018,-4.9018,-4.9018,-4.9018,-4.9018,-4.9018,-4.9018,-4.9018,-4.9018,-4.9018,-4.9018,-4.9018,-4.9018,-4.9018,-4.9018,-4.9018,-4.868,-4.8176,0.0,-4.0113,-4.0113,-4.0113,-4.0113,-4.0113,-4.0113,-4.0113,-4.0113,-4.0113,-4.0113,-4.0113,-4.0113,-4.0113,-4.0113,-4.0113,-4.0113,-4.0113,-4.0113,-4.0113,-4.0113,-4.0113,-4.0113,-4.0113,-4.0146,-4.0832,-4.1204,-4.1238,-4.1982,-4.232,-4.232,-4.2354,-4.2354,-4.232,-4.232,-4.1914,-4.1238,-4.1204,-4.0798,-4.0146,-4.0113,-4.0113,-4.0113,-4.0113,-4.0113,-4.0113,-4.0113,-4.0113,-4.0113,-4.0113,-4.0113,-4.0113,-4.0113,-4.0113,-4.0113,-4.0113,-4.0113,-4.0113,-4.0113,-4.0113,-4.0113,-4.0113,-4.0113,-4.0113,-4.0113,-4.0113,-4.0316,-4.1035,-4.117,-4.1644,-4.3071,-4.3375,-4.3673,-4.4445,-4.5196,-4.594,-4.665,-4.7428,-4.8173,-4.8883,-4.8984,-4.9018,-4.9018,-4.9018,-4.9289,-4.9999,-5.0067,-5.0405,-5.115,-5.1217,-5.1185,-5.1185,-5.1185,-5.0845,-5.0101,-5.0101,-4.9729,-4.9018,-4.9018,-4.9018,-4.9018,-4.9018,-4.9018,-4.9018,-4.9018,-4.9018,-4.9018,-4.9018,-4.9018,-4.9018,-4.9018,-4.9018,-4.9018,-4.9018,-4.8984,-4.8984,0.0,0.0,-4.0113,-4.0113,-4.0113,-4.0113,-4.0113,-4.0113,-4.0113,-4.0113,-4.0113,0.0,0.0,0.0,0.0,0.0,-4.0113,-4.0113,-4.0113,-4.0113,-4.0113,-4.0113,-4.0113,-4.0113,-4.0113,-4.035,-4.046,-4.046,-4.1204,-4.1576,-4.1576,-4.2049,-4.2049,-4.1576,-4.1576,-4.117,-4.046,-4.046,-4.035,-4.0113,-4.0113,-4.0113,-4.0113,-4.0113,-4.0113,-4.0113,0.0,-4.0113,-4.0113,-4.0113,-4.0113,-4.0113,-4.0113,-4.0113,-4.0113,-4.0113,-4.0113,-4.0113,-4.0113,-4.0113,-4.0113,-4.0113,-4.0113,-4.0113,-4.0113,-4.0485,-4.0899,-4.117,-4.1982,-4.2801,-4.3308,-4.3842,-4.4451,-4.5196,-4.594,-4.6684,-4.7428,-4.8173,-4.8714,-4.8984,-4.9018,-4.9018,-4.9018,-4.9424,-4.983,-5.0067,-5.1014,-5.1657,-5.1928,-5.2435,-5.2739,-5.2739,-5.2739,-5.2367,-5.1555,-5.1082,-5.0473,-4.9729,-4.9221,-4.9018,-4.9018,-4.9018,-4.9018,-4.9018,-4.9018,-4.9018,-4.9018,-4.9018,-4.9018,-4.9018,-4.9018,-4.9018,-4.9018,-4.9018,-4.9018,-4.9018,0.0,0.0,0.0,-4.0113,-4.0113,0.0,0.0,0.0,0.0,0.0,0.0,0.0,0.0,0.0,0.0,0.0,0.0,-4.0113,-4.0113,-4.0113,-4.0113,-4.0113,-4.0113,-4.0113,-4.0113,-4.0113,-4.0113,-4.0113,-4.0561,-4.0798,-4.0832,-4.1271,-4.1238,-4.0798,-4.0798,-4.0527,-4.0113,-4.0113,-4.0113,-4.0113,-4.0113,-4.0113,-4.0113,-4.0113,-4.0113,0.0,-4.0113,-4.0113,-4.0113,-4.0113,-4.0113,-4.0113,-4.0113,-4.0113,-4.0113,-4.0113,-4.0113,-4.0113,-4.0113,-4.0113,-4.0113,-4.0113,-4.0113,-4.018,-4.0451,-4.0865,-4.1373,-4.188,-4.2733,-4.3504,-4.3775,-4.4248,-4.4852,-4.5568,-4.6312,-4.7056,-4.78,-4.8545,-4.9018,-4.9018,-4.9018,-4.912,-4.9357,-5.0067,-5.0473,-5.0473,-5.1623,-5.2435,-5.2706,-5.3213,-5.3518,-5.3518,-5.3518,-5.3112,-5.23,-5.1589,-5.071,-4.9695,-4.9221,-4.9018,-4.9018,-4.9018,-4.9018,-4.9018,-4.9018,-4.9018,-4.9018,-4.9018,-4.9018,-4.9018,-4.9018,-4.9018,-4.9018,-4.9018,-4.9018,-4.9018,0.0,0.0,0.0,0.0,0.0,0.0,0.0,0.0,0.0,0.0,0.0,0.0,0.0,0.0,0.0,0.0,0.0,0.0,-4.0062,-4.0062,-4.0062,-4.0062,-4.0087,-4.0113,-4.0113,-4.0113,-4.0113,-4.0113,-4.0113,-4.0113,-4.0113,-4.0113,-4.0113,-4.0113,-4.0113,-4.0113,-4.0113,-4.0113,-4.0113,-4.0113,-4.0113,-4.0113,-4.0113,-4.0113,-4.0113,-4.0113,-4.0113,-4.0113,-4.0113,-4.0113,-4.0113,-4.0113,-4.0113,-4.0113,-4.0113,-4.0113,-4.0113,-4.0113,-4.0113,-4.0113,-4.0113,-4.0113,-4.0113,-4.0282,-4.1035,-4.1238,-4.1677,-4.3105,-4.3409,-4.3707,-4.4479,-4.4615,-4.4852,-4.5568,-4.6312,-4.7056,-4.78,-4.8545,-4.9018,-4.9018,-4.9018,-4.9289,-5.0033,-5.0777,-5.1219,-5.1219,-5.1961,-5.2706,-5.345,-5.3518,-5.3518,-5.3518,-5.3518,-5.3145,-5.2367,-5.1589,-5.0473,-4.9018,-4.9018,-4.9018,-4.9018,-4.9018,-4.9018,-4.9018,-4.9018,-4.9018,-4.9018,-4.9018,-4.9018,-4.9018,-4.9018,-4.9018,-4.9018,-4.9018,-4.9018,-4.9018,0.0,0.0,0.0,0.0,0.0,0.0,0.0,0.0,0.0,0.0,0.0,0.0,0.0,0.0,0.0,0.0,0.0,0.0,-3.9209,-3.9209,-3.9209,-3.9209,-3.9765,-4.0113,-4.0113,-4.0113,-4.0113,-4.0113,-4.0113,-4.0113,-4.0113,-4.0113,-4.0113,-4.0113,-4.0113,-4.0113,-4.0113,-4.0113,-4.0113,-4.0113,-4.0113,-4.0113,-4.0113,-4.0113,-4.0113,-4.0113,-4.0113,-4.0113,-4.0113,-4.0113,-4.0113,-4.0113,-4.0113,-4.0113,-4.0113,-4.0113,-4.0113,-4.0113,-4.0113,-4.0113,-4.0113,-4.0113,-4.0113,-4.0282,-4.1035,-4.1644,-4.2286,-4.3206,-4.3876,-4.435,-4.4581,-4.4615,-4.4852,-4.5568,-4.6312,-4.7056,-4.78,-4.8545,-4.9018,-4.9018,-4.9018,-4.9289,-5.0033,-5.0777,-5.1454,-5.1995,-5.2739,-5.3281,-5.3484,-5.3518,-5.3518,-5.3518,-5.3518,-5.3416,-5.3213,-5.1894,-5.0473,-4.9018,-4.9018,-4.9018,-4.9018,-4.9018,-4.9018,-4.9018,-4.9018,-4.9018,-4.9018,-4.9018,-4.9018,-4.9018,-4.9018,-4.9018,-4.9018,-4.9018,-4.9018,-4.9018,0.0,0.0,0.0,0.0,0.0,0.0,0.0,0.0,0.0,0.0,0.0,0.0,0.0,0.0,0.0,0.0,0.0,0.0,0.0,-3.8718,-3.8908,-3.8908,-3.9662,-4.0113,-4.0113,-4.0113,-4.0113,-4.0113,-4.0113,-4.0113,-4.0113,-4.0113,-4.0113,-4.0113,-4.0113,-4.0113,-4.0113,-4.0113,-4.0113,0.0,0.0,-4.0113,-4.0113,-4.0113,-4.0113,-4.0113,-4.0113,-4.0113,-4.0113,-4.0113,-4.0113,-4.0113,-4.0113,-4.0113,-4.0113,-4.0113,-4.0113,-4.0113,-4.0113,-4.0113,-4.0113,-4.0113,-4.0113,-4.0383,-4.1441,-4.1982,-4.2591,-4.3707,-4.4282,-4.4615,-4.4615,-4.4615,-4.4852,-4.5568,-4.6312,-4.7056,-4.78,-4.8545,-4.9018,-4.9018,-4.9018,-4.9424,-5.0473,-5.098,-5.1657,-5.2739,-5.3247,-5.3518,-5.3518,-5.3518,-5.3518,-5.3518,-5.3518,-5.3179,-5.2503,-5.1657,-5.0473,-4.9018,-4.9018,-4.9018,-4.9018,-4.9018,-4.9018,-4.9018,0.0,-4.9018,-4.9018,-4.9018,-4.9018,-4.9018,-4.9018,-4.9018,-4.9018,-4.9018,-4.9018,-4.9018,0.0,0.0,0.0,0.0,0.0,0.0,0.0,0.0,0.0,0.0,-3.9876,-3.9901,0.0,0.0,0.0,0.0,0.0,0.0,0.0,0.0,-3.8575,-3.8575,-3.9368,-3.985,-3.9927,-3.9927,-3.9978,-4.0113,-4.0113,-4.0113,-4.0113,-4.0113,-4.0113,-4.0113,-4.0113,-4.0113,-4.0113,-4.0113,-4.0113,-4.0113,-4.0113,-4.0113,-4.0113,0.0,-4.0113,-4.0113,-4.0113,-4.0113,-4.0113,-4.0113,-4.0113,-4.0113,-4.0113,-4.0113,-4.0113,-4.0113,-4.0113,-4.0113,-4.0113,-4.0113,-4.0113,-4.0113,-4.0113,-4.0451,-4.1813,-4.2151,-4.2557,-4.4005,-4.431,-4.4344,-4.4445,-4.4445,-4.4688,-4.5432,-4.6244,-4.7022,-4.7665,-4.8477,-4.9018,-4.9018,-4.9018,-4.9593,-5.105,-5.1185,-5.186,-5.3382,-5.3518,-5.3518,-5.3518,-5.3518,-5.3518,-5.3518,-5.3518,-5.2773,-5.1219,-5.1185,-5.0473,-4.9018,-4.9018,-4.9018,-4.9018,-4.9018,-4.9018,-4.9018,-4.9018,-4.9018,-4.9018,-4.9018,-4.9018,-4.9018,-4.9018,-4.9018,-4.9018,-4.9018,-4.9018,-4.9018,0.0,0.0,0.0,0.0,0.0,0.0,0.0,0.0,0.0,-3.8108,-3.8718,-3.8854,0.0,0.0,0.0,0.0,0.0,0.0,0.0,0.0,0.0,-3.7024,-3.7761,-3.8469,-3.9069,-3.9129,-3.942,-4.0113,-4.0113,-4.0113,-4.0113,-4.0113,-4.0113,-4.0113,-4.0113,-4.0113,-4.0113,-4.0113,-4.0113,-4.0113,-4.0113,-4.0113,-4.0113,-4.0113,0.0,0.0,-4.0113,-4.0113,-4.0113,-4.0113,-4.0113,-4.0113,-4.0113,-4.0113,-4.0113,-4.0113,-4.0113,-4.0113,-4.0113,-4.0113,-4.0113,-4.0113,-4.0113,-4.035,-4.1204,-4.1407,-4.1644,-4.2523,-4.2692,-4.2895,-4.3504,-4.3606,-4.3876,-4.4682,-4.5906,-4.6819,-4.6955,-4.8139,-4.9018,-4.9018,-4.9018,-4.9593,-5.105,-5.1185,-5.186,-5.3382,-5.3518,-5.3518,-5.3518,-5.3518,-5.3518,-5.3518,-5.3518,-5.2773,-5.1219,-5.1185,-5.0473,-4.9018,-4.9018,-4.9018,-4.9018,-4.9018,-4.9018,-4.9018,-4.9018,0.0,-4.9018,-4.9018,-4.9018,-4.9018,-4.9018,-4.9018,-4.9018,-4.9018,-4.9018,-4.9018,0.0,0.0,0.0,0.0,0.0,0.0,-3.5975,-3.6038,-3.6196,-3.6538,-3.7233,-3.7729,-3.7793,-3.7761,-3.7555,0.0,0.0,0.0,0.0,0.0,0.0,-3.66,-3.7352,-3.7994,-3.8302,-3.833,-3.8497,-3.8914,0.0,-3.9506,-3.9473,-3.9901,-4.0113,-4.0113,-4.0113,-4.0113,-4.0113,-4.0113,-4.0113,-4.0113,-4.0113,-4.0113,-4.0113,-4.0113,0.0,0.0,-4.0113,-4.0113,-4.0113,-4.0113,-4.0113,-4.0113,-4.0113,-4.0113,-4.0113,-4.0113,-4.0113,-4.0113,-4.0113,-4.0113,-4.0113,-4.0113,-4.0113,-4.0282,-4.1035,-4.1204,-4.1407,-4.2151,-4.2286,-4.2523,-4.324,-4.3375,-4.3673,-4.4479,-4.5867,-4.6786,-4.6786,-4.8071,-4.9018,-4.9018,-4.9018,-4.9593,-5.105,-5.1185,-5.186,-5.3382,-5.3518,-5.3518,-5.3518,-5.3518,-5.3518,-5.3518,-5.3518,-5.2942,-5.1792,-5.1386,-5.0676,-4.956,-4.9187,-4.9018,-4.9018,-4.9018,-4.9018,-4.9018,-4.9018,-4.9018,-4.9018,-4.9018,-4.9018,-4.9018,-4.9018,-4.9018,-4.9018,-4.9018,-4.9018,-4.9018,0.0,0.0,0.0,0.0,0.0,0.0,-3.5519,-3.5519,-3.5519,-3.5519,-3.6006,-3.66,-3.7235,-3.6873,-3.6538,0.0,0.0,0.0,0.0,0.0,0.0,0.0,0.0,0.0,-3.756,0.0,0.0,-3.7793,-3.8386,0.0,0.0,0.0,0.0,0.0,-4.0113,-4.0113,-4.0113,-4.0113,-4.0113,0.0,0.0,-4.0113,-4.0113,0.0,0.0,0.0,0.0,-4.0113,-4.0113,-4.0113,-4.0113,-4.0113,-4.0113,-4.0113,-4.0113,-4.0113,-4.0113,-4.0113,-4.0113,-4.0113,-4.0113,-4.0113,-4.0113,-4.0248,-4.0832,-4.0967,-4.1136,-4.1711,-4.1839,-4.2049,-4.2794,-4.3064,-4.3436,-4.4215,-4.5568,-4.6616,-4.6786,-4.7936,-4.8815,-4.8984,-4.9018,-4.9593,-5.105,-5.1185,-5.186,-5.3382,-5.3518,-5.3518,-5.3518,-5.3518,-5.3518,-5.3518,-5.3518,-5.3112,-5.23,-5.1589,-5.0845,-5.0067,-4.9357,-4.9018,-4.9018,-4.9018,-4.9018,-4.9018,-4.9018,-4.9018,0.0,-4.9018,-4.9018,-4.9018,-4.9018,-4.9018,-4.9018,-4.9018,-4.9018,-4.9018,0.0,0.0,0.0,0.0,0.0,0.0,-3.5519,-3.5519,-3.5519,-3.5519,-3.5554,-3.5619,-3.5716,-3.6259,-3.6322,0.0,0.0,0.0,0.0,0.0,0.0,0.0,0.0,0.0,0.0,0.0,0.0,-3.7793,-3.7879,0.0,0.0,0.0,0.0,0.0,0.0,-4.0113,-4.0113,-4.0113,0.0,0.0,0.0,0.0,0.0,0.0,0.0,0.0,0.0,-4.0113,-4.0113,-4.0113,-4.0113,-4.0113,-4.0113,-4.0113,-4.0113,-4.0113,-4.0113,-4.0113,-4.0113,-4.0113,-4.0113,-4.0113,-4.0113,-4.0113,-4.018,-4.0214,-4.0214,-4.0282,-4.0316,-4.0553,-4.1271,-4.1948,-4.2625,-4.3403,-4.4823,-4.6041,-4.6718,-4.7496,-4.8274,-4.8917,-4.9018,-4.9593,-5.105,-5.1185,-5.186,-5.3382,-5.3518,-5.3518,-5.3518,-5.3518,-5.3518,-5.3518,-5.3518,-5.3112,-5.23,-5.1589,-5.0845,-5.0067,-4.9357,-4.9018,-4.9018,-4.9018,-4.9018,-4.9018,-4.9018,-4.9018,0.0,-4.9018,-4.9018,-4.9018,-4.9018,-4.9018,-4.9018,-4.9018,-4.9018,-4.9018,0.0,0.0,0.0,0.0,0.0,0.0,-3.5519,-3.5519,-3.5519,-3.5519,-3.5519,-3.5519,-3.5519,-3.575,-3.5814,-3.5522,-3.5519,0.0,0.0,0.0,0.0,0.0,0.0,0.0,0.0,0.0,-3.6101,-3.6414,-3.6874,0.0,0.0,0.0,0.0,0.0,0.0,-4.0113,-4.0113,-4.0113,0.0,0.0,0.0,0.0,0.0,0.0,0.0,0.0,0.0,0.0,-3.9447,-3.9927,-3.9799,-3.9447,-3.9952,-4.0113,-4.0113,-4.0113,-4.0113,-4.0113,-4.0113,-4.0113,-4.0113,-4.0113,-4.0113,-3.9978,-3.9506,-3.974,-3.9952,-3.9506,-3.974,-4.035,-4.1068,-4.1813,-4.2523,-4.3274,-4.4688,-4.5974,-4.6684,-4.7428,-4.7959,-4.8158,-4.8639,-4.9203,-4.9659,-5.0589,-5.1596,-5.2492,-5.199,-5.1631,-5.1631,-5.2205,-5.2241,-5.1631,-5.2205,-5.2391,-5.2056,-5.1496,-5.1082,-5.0744,-4.956,-4.9018,-4.9018,-4.9018,-4.9018,-4.9018,-4.9018,-4.9018,0.0,-4.9018,-4.9018,-4.9018,-4.9018,-4.9018,-4.9018,-4.9018,-4.9018,-4.9018,0.0,0.0,0.0,0.0,0.0,-3.5519,-3.5519,-3.5519,-3.5519,-3.5519,-3.5519,-3.5519,-3.5519,-3.5519,-3.5519,-3.5519,-3.5519,0.0,0.0,0.0,0.0,0.0,0.0,0.0,0.0,0.0,-3.5519,-3.5519,-3.6038,-3.6384,0.0,0.0,-3.8358,-3.8608,0.0,0.0,0.0,0.0,0.0,0.0,0.0,0.0,0.0,0.0,0.0,0.0,0.0,0.0,0.0,0.0,0.0,-3.8745,-3.9799,-3.9799,-3.9506,-3.9952,-4.0113,-4.0113,-4.0113,-4.0113,-4.0113,-4.0113,-3.9927,-3.961,-3.9016,-3.9342,-3.9584,-3.9016,-3.9558,-4.0282,-4.0764,-4.1644,-4.2455,-4.2997,-4.4384,-4.5703,-4.665,-4.7259,-4.7689,-4.7963,-4.8608,-4.891,-4.8728,-4.9891,-5.0883,-5.1422,-5.0817,-5.0242,-4.9931,-5.0627,-5.0968,-5.0855,-5.1525,-5.2029,-5.2348,-5.1597,-5.1185,-5.1151,-4.9695,-4.9018,-4.9018,-4.9018,-4.9018,-4.9018,-4.9018,-4.9018,0.0,-4.9018,-4.9018,-4.9018,-4.9018,-4.9018,-4.9018,-4.9018,-4.9018,-4.9018,0.0,0.0,0.0,0.0,0.0,-3.5519,-3.5519,-3.5519,-3.5519,-3.5519,-3.5519,-3.5519,-3.5519,-3.5519,-3.5519,-3.5519,-3.5519,0.0,0.0,0.0,0.0,0.0,0.0,0.0,-3.5519,-3.5519,-3.5519,-3.5519,-3.5519,-3.5879,-3.66,-3.66,-3.7054,-3.7822,0.0,0.0,0.0,0.0,-3.8246,0.0,0.0,0.0,-3.7908,0.0,0.0,0.0,0.0,0.0,0.0,0.0,0.0,0.0,0.0,-3.9049,-3.8137,-3.9636,-4.0113,-4.0113,-4.0113,-4.0113,-4.0113,-4.0113,-3.9506,-3.8908,-3.8908,-3.8908,-3.8908,-3.8908,-3.9558,-4.0113,-4.0113,-4.1331,-4.2286,-4.2286,-4.3633,-4.5122,-4.6583,-4.6786,-4.7361,-4.8785,-4.8984,-4.891,-4.8728,-4.9131,-4.9673,-5.0365,-5.0397,0.0,-4.8851,-4.8841,-4.9742,-5.1849,-5.1885,-5.2383,-5.345,-5.1929,-5.1185,-5.1151,-4.9695,-4.9018,-4.9018,-4.9018,-4.9018,-4.9018,-4.9018,-4.9018,0.0,-4.9018,-4.9018,-4.9018,-4.9018,-4.9018,-4.9018,-4.9018,-4.9018,-4.9018,0.0,0.0,0.0,0.0,0.0,0.0,-3.5519,-3.5519,-3.5519,-3.5519,-3.5519,-3.5519,-3.5519,-3.5519,-3.5519,-3.5519,-3.5519,0.0,0.0,0.0,0.0,0.0,0.0,-3.5519,-3.5519,-3.5519,-3.5519,-3.5519,-3.5519,-3.5619,-3.5878,-3.6353,-3.6722,-3.6994,-3.7528,-3.7793,0.0,-3.7793,-3.7905,-3.8133,0.0,-3.8023,-3.7822,0.0,0.0,0.0,0.0,0.0,0.0,0.0,0.0,0.0,0.0,0.0,0.0,-3.8995,-3.9289,-3.9394,-3.9952,-4.0113,-4.0113,-4.0113,-3.9506,-3.8772,-3.8246,-3.8525,-3.8608,-3.7555,-3.8799,-3.9927,-3.9368,-4.0922,-4.2092,-4.151,-4.3205,-4.4687,-4.4916,-4.6027,-4.6622,-4.6185,-4.6134,-4.6724,-4.8271,-4.7902,-4.8044,-4.9202,-4.8666,-4.8115,-4.7807,-4.7764,-4.8072,-4.8749,-5.0126,-5.1043,-5.1373,-5.1262,-5.1185,-5.1151,-4.9055,-4.8353,-4.8987,-4.8321,-4.8385,-4.8954,-4.8321,-4.8418,0.0,-4.8289,-4.8418,-4.9018,-4.9018,-4.9018,-4.9018,-4.9018,-4.9018,-4.9018,0.0,0.0,0.0,0.0,0.0,0.0,-3.5519,-3.5519,-3.5519,-3.5519,-3.5519,-3.5519,-3.5519,-3.5519,-3.5519,-3.5519,-3.5519,0.0,0.0,0.0,0.0,0.0,-3.5519,-3.5519,-3.5519,-3.5519,-3.5519,-3.5519,-3.5519,-3.5519,-3.5489,-3.5975,-3.6196,-3.6196,-3.6723,-3.6936,0.0,-3.7235,-3.7205,-3.6966,-3.7235,-3.7175,-3.6935,0.0,0.0,0.0,0.0,0.0,0.0,0.0,0.0,0.0,0.0,0.0,0.0,0.0,-3.8274,-3.8213,-3.9022,-3.9454,-3.9584,-3.9322,-3.8859,-3.8302,-3.7528,-3.77,-3.7758,-3.6813,-3.8213,-3.9394,-3.8635,-4.0567,-4.193,-4.0794,-4.2568,-4.4089,-4.4102,-4.508,-4.5668,-4.5367,-4.5005,-4.5441,-4.7145,-4.664,-4.6651,-4.7751,-4.7516,-4.7309,-4.7309,-4.7309,-4.7309,-4.7309,-4.8922,-5.0037,-5.0542,-5.0616,-5.0492,-5.0257,-4.8431,-4.7737,-4.7933,-4.7704,-4.7737,-4.7933,-4.7704,0.0,0.0,-4.7704,-4.7933,-4.8513,-4.8861,-4.9018,-4.9018,-4.9018,-4.9018,-4.9018,0.0,0.0,0.0,0.0,0.0,0.0,-3.5519,-3.5519,-3.5519,-3.5519,-3.5519,-3.5519,-3.5519,-3.5519,-3.5519,-3.5519,-3.5519,0.0,0.0,0.0,0.0,-3.5519,-3.5519,-3.5519,-3.5519,-3.5519,-3.5519,-3.5519,-3.5519,-3.5519,-3.5519,-3.5519,-3.5519,-3.5519,-3.5519,-3.5519,-3.5522,-3.6228,-3.6134,-3.5554,-3.6259,-3.6102,0.0,0.0,0.0,0.0,0.0,0.0,0.0,0.0,0.0,0.0,0.0,0.0,0.0,0.0,0.0,0.0,0.0,-3.8218,-3.8663,-3.7994,-3.7764,-3.7499,-3.6752,-3.66,0.0,-3.6507,-3.7758,-3.8608,-3.7911,-4.0216,-4.171,-4.0116,-4.1797,-4.3446,-4.3834,-4.3986,-4.4562,-4.5939,-4.5264,-4.4909,-4.5557,-4.5425,-4.5574,-4.6262,-4.692,-4.7309,-4.7309,-4.7249,-4.7249,-4.7249,-4.8087,-4.9213,-5.0552,-4.9869,-4.9214,-4.8592,-4.7801,-4.7002,-4.6208,-4.7036,-4.6968,0.0,-4.707,0.0,0.0,-4.707,-4.7473,-4.7704,-4.8545,-4.8892,-4.8892,-4.8892,-4.8892,-4.8892,0.0,0.0,0.0,0.0,0.0,0.0,0.0,0.0,0.0,0.0,-3.5519,-3.5519,-3.5519,-3.5519,-3.5519,0.0,0.0,0.0,0.0,0.0,0.0,-3.5519,-3.5519,-3.5519,-3.5519,-3.5519,-3.5519,-3.5519,-3.5519,-3.5519,-3.5519,-3.5519,-3.5519,-3.5519,-3.5519,-3.5519,-3.5489,-3.5686,-3.5651,-3.5519,-3.5716,-3.5651,0.0,0.0,0.0,0.0,-3.575,-3.575,0.0,0.0,0.0,0.0,0.0,0.0,0.0,0.0,-3.6352,-3.5782,-3.6005,0.0,-3.8019,-3.7851,-3.7322,-3.6813,0.0,-3.66,-3.6446,-3.5847,-3.6995,-3.795,-3.7683,-3.9739,-4.1049,-3.9879,-4.172,-4.2975,-4.2149,-4.2879,-4.3876,-4.5011,-4.4243,-4.3925,-4.4589,-4.5049,-4.5574,-4.6262,-4.692,-4.7309,-4.7309,-4.683,-4.6561,-4.6561,-4.6274,-4.6875,-4.8466,-4.8056,-4.7748,-4.7587,-4.6163,-4.5706,-4.6173,-4.567,-4.5742,-4.6173,-4.567,0.0,-4.6138,-4.567,-4.6311,-4.7638,-4.7836,-4.7933,-4.7933,-4.7933,-4.7933,-4.7836,0.0,0.0,0.0,0.0,0.0,0.0,0.0,0.0,0.0,0.0,-3.5519,-3.5519,-3.5519,-3.5519,-3.5519,0.0,0.0,0.0,-3.5519,-3.5519,-3.5519,-3.5519,-3.5519,-3.5519,-3.5519,-3.5519,-3.5519,-3.5519,-3.5519,-3.5519,-3.5519,-3.5519,-3.5519,-3.5519,-3.5519,-3.5519,-3.5519,-3.5519,-3.5519,-3.5519,-3.5519,0.0,0.0,0.0,0.0,0.0,-3.5519,-3.5519,0.0,-3.5519,-3.5519,-3.5554,0.0,0.0,0.0,0.0,-3.5814,-3.5519,-3.5519,-3.6352,-3.7175,-3.6845,-3.6661,-3.6508,-3.6165,-3.6101,-3.5975,-3.5587,-3.6446,-3.7213,-3.7116,-3.9026,-4.0278,-3.9207,-4.1041,-4.2406,-4.1927,-4.2701,-4.3527,-4.4043,-4.3615,-4.3439,-4.3838,-4.4466,-4.5005,-4.5364,-4.6022,-4.6381,-4.6381,-4.6052,-4.5843,-4.5843,-4.5185,-4.5506,-4.6818,-4.6649,-4.6445,-4.6129,-4.5229,-4.4818,-4.4862,-4.4818,-4.4818,-4.4862,0.0,0.0,-4.4862,-4.4818,-4.541,-4.6381,-4.6797,-4.6968,-4.6968,-4.6968,-4.6968,-4.69,0.0,0.0,0.0,0.0,0.0,0.0,0.0,0.0,0.0,0.0,0.0,0.0,0.0,0.0,0.0,0.0,0.0,-3.5519,-3.5519,-3.5519,-3.5519,-3.5519,-3.5519,-3.5519,-3.5519,-3.5519,-3.5519,-3.5519,-3.5519,-3.5519,-3.5519,-3.5519,-3.5519,-3.5519,-3.5519,-3.5519,-3.5519,-3.5519,-3.5519,-3.5519,-3.5519,0.0,0.0,0.0,0.0,0.0,0.0,0.0,0.0,-3.5519,-3.5519,-3.5519,-3.5519,0.0,0.0,0.0,0.0,0.0,-3.5519,-3.5943,-3.6259,-3.5651,-3.5975,-3.629,-3.5651,-3.5519,-3.5519,-3.5519,-3.6098,-3.6596,-3.661,-3.8398,-3.9597,-3.8702,-4.0299,-4.1826,-4.2346,-4.291,-4.329,-4.329,-4.329,-4.329,-4.329,-4.3888,-4.4317,-4.4317,-4.4915,-4.5304,-4.5304,-4.5185,-4.5155,-4.5155,-4.4496,-4.4508,-4.5311,-4.5311,-4.5103,-4.4548,-4.4548,-4.409,-4.3329,-4.4167,-4.412,-4.3329,0.0,0.0,-4.3369,-4.4205,-4.4662,-4.4887,-4.567,-4.5961,-4.5961,-4.5961,-4.5961,-4.5961,0.0,0.0,0.0,0.0,0.0,0.0,0.0,0.0,0.0,0.0,0.0,0.0,0.0,0.0,0.0,0.0,0.0,-3.5519,-3.5519,-3.5519,-3.5519,-3.5519,-3.5519,-3.5519,-3.5519,-3.5519,-3.5519,-3.5519,-3.5519,-3.5519,-3.5519,-3.5519,-3.5519,-3.5519,-3.5519,-3.5519,-3.5519,-3.5519,-3.5519,-3.5519,-3.5519,0.0,0.0,0.0,0.0,0.0,0.0,0.0,0.0,-3.5519,-3.5519,-3.5519,-3.5519,0.0,0.0,0.0,0.0,0.0,-3.5519,-3.5587,-3.5651,-3.5522,-3.5587,-3.5651,-3.5522,-3.5519,-3.5519,-3.5519,-3.6037,-3.6673,-3.7199,-3.8616,-3.9627,-3.9319,-4.0477,-4.1663,-4.2291,-4.291,-4.329,-4.329,-4.329,-4.329,-4.329,-4.3888,-4.4317,-4.4317,-4.4915,-4.5304,-4.5304,-4.4766,-4.4466,-4.4466,-4.3798,-4.3519,-4.3647,-4.3647,-4.3617,-4.3527,-4.3527,-4.3448,-4.329,-4.3448,-4.3448,-4.329,0.0,-4.3448,-4.3329,-4.3488,-4.4043,-4.4812,-4.4962,-4.5005,-4.5005,-4.5005,-4.5005,-4.5005,0.0,0.0,0.0,0.0,0.0,0.0,0.0,0.0,0.0,0.0,0.0,0.0,0.0,0.0,0.0,0.0,-3.5519,-3.5519,-3.5519,-3.5519,-3.5519,-3.5519,-3.5519,-3.5519,-3.5519,-3.5519,-3.5519,-3.5519,-3.5519,-3.5519,-3.5519,-3.5519,-3.5519,-3.5519,-3.5519,-3.5519,-3.5519,-3.5519,-3.5519,-3.5519,0.0,0.0,0.0,0.0,0.0,0.0,0.0,0.0,0.0,0.0,-3.5519,-3.5519,-3.5519,0.0,0.0,0.0,0.0,0.0,-3.5519,-3.5519,-3.5519,-3.5519,-3.5519,-3.5519,-3.5519,-3.5519,-3.5609,-3.5968,-3.6267,-3.6776,-3.7764,-3.8499,-3.9338,-4.0321,-4.0995,-4.1743,-4.2731,-4.315,-4.329,-4.329,-4.329,-4.329,-4.329,-4.3559,-4.3738,-4.3738,-4.4077,-4.4227,-4.4227,-4.3958,-4.3738,-4.3738,-4.3439,-4.329,-4.329,-4.329,-4.329,-4.329,-4.329,-4.329,-4.329,-4.329,-4.329,-4.329,0.0,-4.329,-4.329,-4.329,-4.3566,-4.4004,-4.4004,-4.4004,-4.4004,-4.4004,-4.4004,-4.4004,0.0,0.0,0.0,0.0,0.0,0.0,0.0,0.0,0.0,0.0,0.0,0.0,0.0,0.0,0.0,0.0,-3.5519,-3.5519,-3.5519,-3.5519,-3.5519,-3.5519,-3.5519,-3.5519,-3.5519,-3.5519,-3.5519,-3.5519,-3.5519,-3.5519,-3.5519,-3.5519,-3.5519,-3.5519,-3.5519,-3.5519,-3.5519,-3.5519,-3.5519,-3.5519,0.0,0.0,0.0,0.0,0.0,0.0,0.0,0.0,0.0,0.0,0.0,0.0,0.0,0.0,0.0,-3.5519,-3.5519,-3.5519,-3.5519,-3.5519,-3.5519,-3.5519,-3.5519,-3.5519,-3.5519,-3.5639,-3.5878,-3.6387,-3.6716,-3.7225,-3.8212,-3.8661,-3.9469,-4.1362,-4.1662,-4.2013,-4.314,-4.329,-4.329,-4.329,-4.329,-4.329,-4.329,-4.329,-4.329,-4.329,-4.329,-4.329,-4.329,-4.329,-4.329,-4.329,-4.329,-4.329,-4.329,-4.329,-4.329,-4.329,-4.329,-4.329,-4.329,-4.329,-4.329,-4.329,-4.329,-4.329,-4.329,-4.329,-4.329,-4.329,-4.329,-4.329,-4.329,-4.329,-4.329,-4.329,0.0,0.0,0.0,0.0,0.0,0.0,0.0,0.0,0.0,0.0,0.0,0.0,0.0,0.0,0.0,0.0,-3.5519,-3.5519,-3.5519,-3.5519,-3.5519,-3.5519,-3.5519,-3.5519,-3.5519,-3.5519,-3.5519,-3.5519,-3.5519,-3.5519,-3.5519,-3.5519,-3.5519,-3.5519,-3.5519,-3.5519,-3.5519,-3.5519,-3.5519,-3.5519,-3.5519,0.0,0.0,0.0,0.0,0.0,0.0,0.0,0.0,0.0,0.0,0.0,0.0,0.0,-3.5519,-3.5519,-3.5519,-3.5519,-3.5519,-3.5519,-3.5519,-3.5519,-3.5519,-3.5519,-3.5519,-3.5968,-3.6417,-3.6477,-3.7434,-3.8272,-3.8362,-3.9409,-4.0696,-4.2111,-4.2321,-4.259,-4.32,-4.329,-4.329,-4.329,-4.329,-4.329,-4.329,-4.329,-4.329,-4.329,-4.329,-4.329,-4.329,-4.329,-4.329,-4.329,-4.329,-4.329,-4.329,-4.329,-4.329,-4.329,-4.329,-4.329,-4.329,-4.329,-4.329,-4.329,-4.329,-4.329,-4.329,-4.329,-4.329,-4.329,-4.329,-4.329,-4.329,-4.329,-4.329,-4.329,0.0,0.0,0.0,0.0,0.0,0.0,0.0,0.0,0.0,0.0,0.0,-3.5519,-3.5519,0.0,0.0,0.0,-3.5519,-3.5519,-3.5519,-3.5519,-3.5519,-3.5519,-3.5519,-3.5519,-3.5519,-3.5519,-3.5519,-3.5519,-3.5519,-3.5519,-3.5519,-3.5519,-3.5519,-3.5519,-3.5519,-3.5519,-3.5519,-3.5519,-3.5519,-3.5519,-3.5519,-3.5519,0.0,0.0,0.0,0.0,0.0,0.0,0.0,0.0,-3.5519,-3.5519,-3.5519,-3.5519,-3.5519,-3.5519,-3.5519,-3.5519,-3.5519,-3.5519,-3.5519,-3.5519,-3.5818,-3.5998,-3.5609,-3.5998,-3.6596,-3.6985,-3.7764,-3.8631,-3.9499,-4.0068,-4.0816,-4.2201,-4.241,-4.262,-4.32,-4.329,-4.329,-4.329,-4.329,-4.329,-4.329,-4.329,-4.329,-4.329,-4.329,-4.329,-4.329,-4.329,-4.329,-4.329,-4.329,-4.329,-4.329,-4.329,-4.329,-4.329,-4.329,-4.329,-4.329,-4.329,-4.329,-4.329,-4.329,-4.329,-4.329,-4.329,-4.329,-4.329,-4.329,-4.329,-4.329,-4.329,-4.329,-4.329,0.0,0.0,0.0,0.0,0.0,0.0,0.0,0.0,-3.5519,0.0,0.0,0.0,0.0,-3.5519,0.0,0.0,-3.5519,-3.5519,-3.5519,-3.5519,-3.5519,-3.5519,-3.5519,-3.5519,-3.5519,-3.5519,-3.5519,-3.5519,-3.5519,-3.5519,-3.5519,-3.5519,-3.5519,-3.5519,-3.5519,-3.5519,-3.5519,-3.5519,-3.5519,-3.5519,-3.5519,-3.5519,0.0,0.0,0.0,0.0,0.0,0.0,0.0,0.0,-3.5519,-3.5519,-3.5519,-3.5519,-3.5519,-3.5519,-3.5519,-3.5519,-3.5519,-3.5519,-3.5519,-3.5519,-3.5848,-3.6118,-3.5878,-3.6477,-3.7195,-3.7644,-3.8422,-3.9379,-4.0516,-4.0876,-4.1384,-4.2491,-4.2671,-4.2821,-4.323,-4.329,-4.329,-4.329,-4.329,-4.329,-4.329,-4.329,-4.329,-4.329,-4.329,-4.329,-4.329,-4.329,-4.329,-4.329,-4.329,-4.329,-4.329,-4.329,-4.329,-4.329,-4.329,-4.329,-4.329,-4.329,-4.329,-4.329,-4.329,-4.329,-4.329,-4.329,-4.329,-4.329,-4.329,-4.329,-4.329,-4.329,-4.329,-4.329,0.0,0.0,0.0,0.0,0.0,0.0,0.0,0.0,-3.5519,-3.5519,-3.5519,0.0,0.0,0.0,0.0,0.0,-3.5519,-3.5519,-3.5519,-3.5519,-3.5519,-3.5519,-3.5519,-3.5519,-3.5519,-3.5519,-3.5519,-3.5519,-3.5519,-3.5519,-3.5519,-3.5519,-3.5519,-3.5519,-3.5519,-3.5519,-3.5519,-3.5519,-3.5519,-3.5519,-3.5519,-3.5519,-3.5519,0.0,0.0,0.0,0.0,0.0,0.0,0.0,-3.5519,-3.5519,-3.5519,-3.5519,-3.5519,-3.5519,-3.5519,-3.5519,-3.5519,-3.5519,-3.5519,-3.5519,-3.5519,-3.5699,-3.6357,-3.7464,-3.8392,-3.8392,-3.9469,-4.0606,-4.1265,-4.1961,-4.262,-4.32,-4.329,-4.329,-4.329,-4.329,-4.329,-4.329,-4.329,-4.329,-4.329,-4.329,-4.329,-4.329,-4.329,-4.329,-4.329,-4.329,-4.329,-4.329,-4.329,-4.329,-4.329,-4.329,-4.329,-4.329,-4.329,-4.329,-4.329,-4.329,-4.329,-4.329,-4.329,-4.329,-4.329,-4.329,-4.329,-4.329,-4.329,-4.329,-4.329,-4.329,-4.329,-4.329,0.0,0.0,0.0,0.0,0.0,0.0,0.0,0.0,-3.5519,-3.5519,-3.5519,0.0,0.0,0.0,0.0,0.0,0.0,-3.5519,-3.5519,-3.5519,-3.5519,-3.5519,-3.5519,-3.5519,-3.5519,-3.5519,-3.5519,-3.5519,-3.5519,-3.5519,-3.5519,-3.5519,-3.5519,-3.5519,-3.5519,-3.5519,-3.5519,-3.5519,-3.5519,-3.5519,-3.5519,-3.5519,-3.5519,0.0,0.0,0.0,0.0,0.0,0.0,0.0,0.0,0.0,-3.5519,-3.5519,-3.5519,-3.5519,-3.5519,-3.5519,-3.5519,-3.5519,-3.5519,-3.5519,-3.6178,-3.6896,-3.7105,-3.7434,-3.7973,-3.8931,-3.9798,-4.0606,-4.1265,-4.1961,-4.262,-4.32,-4.329,-4.329,-4.329,-4.329,-4.329,-4.329,-4.329,-4.329,-4.329,-4.329,-4.329,-4.329,-4.329,-4.329,-4.329,-4.329,-4.329,-4.329,-4.329,-4.329,-4.329,-4.329,-4.329,-4.329,-4.329,-4.329,-4.329,-4.329,-4.329,-4.329,-4.329,-4.329,-4.329,-4.329,-4.329,-4.329,-4.329,-4.329,-4.329,-4.329,-4.329,-4.329,0.0,0.0,0.0,0.0,0.0,0.0,-3.5519,-3.5519,-3.5519,-3.5519,-3.5519,-3.5519,0.0,0.0,0.0,-3.5519,-3.5519,0.0,-3.5519,-3.5519,-3.5519,-3.5519,-3.5519,-3.5519,-3.5519,-3.5519,-3.5519,-3.5519,-3.5519,-3.5519,-3.5519,-3.5519,-3.5519,-3.5519,-3.5519,-3.5519,-3.5519,-3.5519,-3.5519,-3.5519,-3.5519,-3.5519,-3.5519,0.0,0.0,0.0,0.0,0.0,0.0,0.0,0.0,0.0,-3.5519,-3.5519,-3.5519,-3.5519,-3.5519,-3.5519,-3.5519,-3.5519,-3.5519,-3.5519,-3.6297,-3.7165,-3.7674,-3.8003,-3.8422,-3.9224,-4.0157,-4.0905,-4.1362,-4.2132,-4.288,-4.323,-4.329,-4.329,-4.329,-4.329,-4.329,-4.329,-4.329,-4.329,-4.329,-4.329,-4.329,-4.329,-4.329,-4.329,-4.329,-4.329,-4.329,-4.329,-4.329,-4.329,-4.329,-4.329,-4.329,-4.329,-4.329,-4.329,-4.329,-4.329,-4.329,-4.329,-4.329,-4.329,-4.329,-4.329,-4.329,-4.329,-4.329,-4.329,-4.329,-4.329,-4.329,-4.329,0.0,0.0,-3.5519,-3.5519,0.0,0.0,-3.5519,-3.5519,-3.5519,-3.5519,-3.5519,-3.5519,0.0,0.0,0.0,-3.5519,-3.5519,-3.5519,-3.5519,-3.5519,-3.5519,-3.5519,-3.5519,-3.5519,-3.5519,-3.5519,-3.5519,-3.5519,-3.5519,-3.5519,-3.5519,-3.5519,-3.5519,-3.5519,-3.5519,-3.5519,-3.5519,-3.5519,-3.5519,-3.5519,-3.5519,-3.5519,-3.5519,-3.5519,0.0,0.0,0.0,0.0,0.0,0.0,0.0,0.0,-3.5519,-3.5519,-3.5519,-3.5519,-3.5519,-3.5519,-3.5519,-3.5519,-3.5519,-3.5519,-3.6058,-3.6896,-3.8182,-3.896,-3.9373,-3.9373,-4.0457,-4.1422,-4.1422,-4.2462,-4.329,-4.329,-4.329,-4.329,-4.329,-4.329,-4.329,-4.329,-4.329,-4.329,-4.329,-4.329,-4.329,-4.329,-4.329,-4.329,-4.329,-4.329,-4.329,-4.329,-4.329,-4.329,-4.329,-4.329,-4.329,-4.329,-4.329,-4.329,-4.329,-4.329,-4.329,-4.329,-4.329,-4.329,-4.329,-4.329,-4.329,-4.329,-4.329,-4.329,-4.329,-4.329,-4.329,-4.329,0.0,0.0,-3.5519,-3.5519,0.0,0.0,-3.5519,-3.5519,-3.5519,-3.5519,-3.5519,-3.5519,-3.5519,-3.5519,0.0,-3.5519,-3.5519,-3.5519,-3.5519,-3.5519,-3.5519,-3.5519,-3.5519,-3.5519,-3.5519,-3.5519,-3.5519,-3.5519,-3.5519,-3.5519,-3.5519,-3.5519,-3.5519,-3.5519,-3.5519,-3.5519,-3.5519,-3.5519,-3.5519,-3.5519,-3.5519,-3.5519,-3.5519,-3.5519,-3.5519,0.0,0.0,0.0,0.0,0.0,0.0,0.0,-3.5519,-3.5519,-3.5519,-3.5519,-3.5519,-3.5519,-3.5519,-3.5519,-3.5519,-3.5519,-3.6357,-3.7554,-3.8901,-3.932,-3.9373,-3.9373,-4.0457,-4.1422,-4.1422,-4.2462,-4.329,-4.329,-4.329,-4.329,-4.329,-4.329,-4.329,-4.329,-4.329,-4.329,-4.329,-4.329,-4.329,-4.329,-4.329,-4.329,-4.329,-4.329,-4.329,-4.329,-4.329,-4.329,-4.329,-4.329,-4.329,0.0,-4.329,-4.329,-4.329,-4.329,-4.329,-4.329,-4.329,-4.329,-4.329,-4.329,-4.329,-4.329,-4.329,-4.329,-4.329,-4.329,-4.329,-4.329,0.0,0.0,0.0,0.0,0.0,0.0,0.0,0.0,-3.5519,-3.5519,-3.5519,-3.5519,-3.5519,-3.5519,0.0,0.0,-3.5519,-3.5519,-3.5519,-3.5519,-3.5519,-3.5519,-3.5519,-3.5519,-3.5519,-3.5519,-3.5519,-3.5519,-3.5519,-3.5519,-3.5519,-3.5519,-3.5519,-3.5519,-3.5519,-3.5519,-3.5519,-3.5519,-3.5519,-3.5519,-3.5519,-3.5519,-3.5519,-3.5519,-3.5519,-3.5519,-3.5519,0.0,0.0,0.0,0.0,0.0,0.0,0.0,-3.5519,-3.5519,-3.5519,-3.5519,-3.5519,-3.5519,-3.5639,-3.6267,-3.6926,-3.7764,-3.9074,-3.9373,-3.9373,-3.9373,-4.0217,-4.0995,-4.1324,-4.2192,-4.297,-4.323,-4.329,-4.329,-4.329,-4.329,-4.329,-4.329,-4.329,-4.329,-4.329,-4.329,-4.329,-4.329,-4.329,-4.329,-4.329,-4.329,-4.329,-4.329,-4.329,-4.329,-4.329,-4.329,-4.329,-4.329,-4.329,-4.329,-4.329,-4.329,-4.329,-4.329,-4.329,-4.329,-4.329,-4.329,-4.329,-4.329,-4.329,-4.329,-4.329,-4.329,-4.329,-4.329,0.0,0.0,0.0,0.0,0.0,0.0,0.0,0.0,0.0,-3.5519,-3.5519,-3.5519,-3.5519,-3.5519,-3.5519,0.0,0.0,0.0,-3.5519,-3.5519,-3.5519,-3.5519,-3.5519,-3.5519,-3.5519,-3.5519,-3.5519,-3.5519,-3.5519,-3.5519,-3.5519,-3.5519,-3.5519,-3.5519,-3.5519,-3.5519,-3.5519,-3.5519,-3.5519,-3.5519,-3.5519,-3.5519,-3.5519,-3.5519,-3.5519,-3.5519,-3.5519,-3.5519,-3.5519,-3.5519,0.0,0.0,0.0,0.0,-3.5519,-3.5519,-3.5519,-3.5519,-3.5519,-3.5519,-3.5818,-3.7075,-3.7404,-3.7764,-3.9074,-3.9373,-3.9373,-3.9373,-3.9948,-4.0576,-4.1115,-4.1871,-4.256,-4.306,-4.323,-4.329,-4.329,-4.329,-4.329,-4.329,-4.329,-4.329,-4.329,-4.329,-4.329,-4.329,-4.329,-4.329,-4.329,-4.329,-4.329,-4.329,-4.329,-4.329,-4.329,-4.329,-4.329,-4.329,-4.329,-4.329,-4.329,-4.329,-4.329,-4.329,-4.329,-4.329,-4.329,-4.329,-4.329,-4.329,-4.329,-4.329,-4.329,-4.329,-4.329,-4.329,0.0,0.0,0.0,0.0,0.0,0.0,0.0,0.0,0.0,0.0,-3.5519,-3.5519,-3.5519,-3.5519,-3.5519,-3.5519,-3.5519,-3.5519,-3.5519,0.0,0.0,-3.5519,-3.5519,-3.5519,-3.5519,-3.5519,-3.5519,-3.5519,-3.5519,-3.5519,-3.5519,-3.5519,-3.5519,-3.5519,-3.5519,-3.5519,-3.5519,-3.5519,-3.5519,-3.5519,-3.5519,-3.5519,-3.5519,-3.5519,-3.5519,-3.5519,-3.5519,-3.5519,-3.5519,-3.5519,-3.5519,0.0,0.0,0.0,-3.5519,-3.5519,-3.5519,-3.5519,-3.5519,-3.5519,-3.5818,-3.7075,-3.7404,-3.7764,-3.9074,-3.9373,-3.9373,-3.9373,-3.9948,-4.0427,-4.0516,-4.1572,-4.244,-4.253,-4.297,-4.329,-4.329,-4.329,-4.329,-4.329,-4.329,-4.329,-4.329,-4.329,-4.329,-4.329,-4.329,-4.329,-4.329,-4.329,-4.329,-4.329,-4.329,-4.329,-4.329,-4.329,-4.329,-4.329,-4.329,-4.329,-4.329,-4.329,-4.329,-4.329,-4.329,-4.329,-4.329,-4.329,-4.329,-4.329,-4.329,-4.329,-4.329,-4.329,-4.329,-4.329,0.0,0.0,0.0,0.0,0.0,0.0,0.0,0.0,0.0,0.0,0.0,-3.6058,-3.6058,-3.5729,-3.5519,-3.5519,-3.5519,-3.5519,-3.5519,-3.5519,-3.5519,-3.5519,-3.5519,-3.5519,-3.5519,-3.5519,-3.5519,-3.5519,-3.5519,-3.5519,-3.5519,-3.5519,-3.5519,-3.5519,-3.5519,-3.5519,-3.5519,-3.5519,-3.5519,-3.5519,-3.5519,-3.5519,-3.5519,-3.5519,-3.5519,-3.5519,-3.5519,-3.5519,-3.5519,-3.5519,-3.5519,-3.5519,-3.5519,0.0,0.0,0.0,-3.5519,-3.5519,-3.5519,-3.5519,-3.5729,-3.6656,-3.7165,-3.7644,-3.8631,-3.914,-3.9373,-3.9373,-3.9649,-3.9948,-4.0337,-4.0876,-4.1542,-4.2291,-4.265,-4.291,-4.323,-4.329,-4.329,-4.329,-4.329,-4.329,-4.329,-4.329,-4.329,-4.329,-4.329,-4.329,-4.329,-4.329,-4.329,-4.329,-4.329,-4.329,-4.329,-4.329,-4.329,-4.329,-4.329,-4.329,-4.329,-4.329,-4.329,-4.329,-4.329,-4.329,-4.329,-4.329,-4.329,-4.329,-4.329,-4.329,-4.329,-4.329,-4.329,-4.329,0.0,0.0,0.0,0.0,0.0,0.0,0.0,0.0,0.0,0.0,0.0,-3.6716,-3.6716,0.0,0.0,0.0,-3.5998,-3.5998,-3.5998,-3.5848,-3.5759,-3.5759,-3.5579,-3.5519,-3.5519,-3.5519,-3.5519,-3.5519,-3.5519,-3.5519,-3.5519,-3.5519,-3.5519,-3.5519,-3.5519,-3.5519,-3.5519,-3.5519,-3.5519,-3.5519,-3.5519,-3.5519,-3.5519,-3.5519,-3.5519,-3.5519,-3.5519,-3.5519,-3.5519,-3.5519,-3.5519,-3.5519,-3.5519,-3.5519,0.0,0.0,0.0,-3.5519,-3.5519,-3.5519,-3.5669,-3.6327,-3.6956,-3.7584,-3.8242,-3.8931,-3.9373,-3.9373,-3.9373,-3.9559,-4.0068,-4.0277,-4.0726,-4.1752,-4.2051,-4.2321,-4.2761,-4.2851,-4.291,-4.306,-4.309,-4.315,-4.329,-4.329,-4.329,-4.329,-4.329,-4.329,-4.329,-4.329,-4.329,-4.329,-4.329,-4.329,-4.329,-4.329,-4.329,-4.329,-4.329,-4.329,-4.329,-4.329,-4.329,-4.329,-4.329,-4.329,-4.329,-4.329,-4.329,-4.329,-4.329,-4.329,-4.329,-4.329,-4.329,-4.329,0.0,0.0,0.0,0.0,0.0,0.0,0.0,0.0,0.0,0.0,0.0,-3.7375,-3.7375,-3.7315,-3.7315,-3.7315,-3.7315,-3.7315,-3.7315,-3.6776,-3.6447,-3.6447,-3.5848,0.0,-3.5519,-3.5519,-3.5519,-3.5519,-3.5519,-3.5519,-3.5519,-3.5519,-3.5519,-3.5519,-3.5519,-3.5519,-3.5519,-3.5519,-3.5519,-3.5519,-3.5519,-3.5519,-3.5519,-3.5519,-3.5519,-3.5519,-3.5519,-3.5519,-3.5519,-3.5519,-3.5519,-3.5519,-3.5519,-3.5519,-3.5519,0.0,0.0,0.0,-3.5519,-3.5519,-3.5669,-3.6327,-3.6956,-3.7584,-3.8242,-3.8931,-3.9373,-3.9373,-3.9373,-3.9403,-3.9433,-3.9978,-4.0427,-4.0487,-4.1025,-4.1482,-4.1474,-4.1474,-4.1713,-4.2381,-4.244,-4.2641,-4.323,-4.329,-4.329,-4.329,-4.329,-4.329,-4.329,-4.329,-4.329,-4.329,-4.329,-4.329,-4.329,-4.329,-4.329,-4.329,-4.329,-4.329,-4.329,-4.329,-4.329,-4.329,-4.329,-4.329,-4.329,-4.329,-4.329,-4.329,-4.329,-4.329,-4.329,-4.329,-4.329,-4.329,0.0,0.0,0.0,0.0,0.0,0.0,0.0,0.0,0.0,0.0,0.0,0.0,0.0,-3.7674,-3.7404,-3.7404,-3.7404,-3.7404,-3.7404,-3.7195,-3.7075,-3.7075,-3.6866,-3.6716,-3.6716,-3.6327,-3.6118,-3.6118,-3.5699,-3.5519,-3.5519,-3.5519,-3.5729,-3.6118,-3.5699,-3.5519,-3.5519,-3.5519,-3.5519,-3.5519,-3.5519,-3.5519,-3.5519,-3.5519,-3.5519,-3.5519,-3.5519,-3.5519,-3.5519,-3.5519,-3.5519,-3.5519,-3.5519,-3.5519,-3.5519,-3.5519,-3.5519,-3.5519,-3.5519,-3.5519,-3.5579,-3.5789,-3.6327,-3.6985,-3.7614,-3.8272,-3.8871,-3.932,-3.9373,-3.9373,-3.9373,-3.9619,-3.9918,-4.0337,-4.0606,-4.0905,-4.1324,-4.1422,-4.1512,-4.1752,-4.1782,-4.1833,-4.2073,-4.2462,-4.2701,-4.2701,-4.309,-4.329,-4.329,-4.329,-4.329,-4.329,-4.329,-4.329,-4.329,-4.329,-4.329,-4.329,-4.329,-4.329,-4.329,-4.329,-4.329,-4.329,-4.329,-4.329,-4.329,-4.329,-4.329,-4.329,-4.329,-4.329,-4.329,-4.329,-4.329,-4.329,0.0,0.0,0.0,-3.9373,0.0,-3.9373,-3.9373,-3.9373,-3.9373,-3.9373,0.0,0.0,0.0,0.0,-3.8093,-3.8093,-3.8093,-3.8093,-3.8093,-3.7853,-3.7734,-3.7734,-3.7524,-3.7404,-3.7404,-3.6806,-3.6596,-3.6806,-3.6148,-3.5938,-3.6148,-3.6148,-3.6387,-3.6776,-3.6357,-3.6148,-3.6148,-3.6148,-3.6148,-3.6118,-3.5908,-3.5968,-3.6118,-3.5908,-3.5968,-3.6148,-3.6148,-3.5998,-3.5848,-3.5848,-3.5699,-3.5519,-3.5519,-3.5519,-3.5424,-3.51,-3.5001,-3.5001,-3.5001,-3.5001,-3.5001,-3.5001,-3.5507,-3.6098,-3.6512,-3.7281,-3.8157,-3.8889,-3.926,-3.9373,-3.9373,-3.9373,-3.9559,-4.0008,-4.0068,-4.0217,-4.0666,-4.0726,-4.0816,-4.1025,-4.1055,-4.1145,-4.1392,-4.1811,-4.2081,-4.2081,-4.2432,0.0,-4.3,-4.3,-4.312,-4.329,-4.329,-4.329,-4.329,-4.329,-4.329,-4.329,-4.329,-4.329,-4.329,-4.329,-4.329,-4.329,-4.329,-4.329,-4.329,-4.329,-4.329,-4.329,-4.329,-4.329,-4.329,-4.329,-4.329,-4.329,-3.9373,-3.9373,-3.9373,-3.9373,-3.9373,-3.9373,-3.9373,-3.9373,-3.9373,-3.9373,0.0,0.0,0.0,0.0,0.0,-3.9373,-3.9373,-3.9373,-3.9373,-3.8781,-3.8422,-3.8422,-3.7823,-3.7464,-3.7464,-3.6866,-3.6836,-3.7434,-3.6806,-3.6836,-3.7404,-3.7404,-3.7434,-3.7434,-3.7434,-3.7434,-3.7464,-3.7434,-3.7404,-3.7345,-3.6746,-3.6866,-3.7345,-3.6746,-3.6896,-3.7404,-3.7404,-3.7015,-3.6507,-3.6507,-3.6088,-3.5549,-3.5517,-3.5454,-3.5198,-3.4245,-3.3945,-3.3945,0.0,0.0,0.0,-3.3945,-3.4439,-3.4934,-3.4963,-3.5978,-3.723,-3.815,-3.8895,-3.9409,-3.9373,-3.9373,-3.9373,-3.9373,-3.9373,-3.9373,-3.9373,-3.9373,-3.9649,-4.0277,-4.0367,-4.0636,-4.1265,-4.1354,-4.1354,-4.1354,-4.1422,-4.1692,-4.2351,-4.2381,-4.2641,-4.323,-4.329,-4.329,-4.329,-4.329,-4.329,-4.329,-4.329,-4.329,-4.329,-4.329,-4.329,-4.329,-4.329,-4.329,-4.329,-4.329,-4.329,-4.329,-4.329,-4.329,-4.329,-4.329,-4.329,-4.329,-3.9373,-3.9373,-3.9373,-3.9373,-3.9373,-3.9373,-3.9373,-3.9373,-3.9373,0.0,0.0,0.0,-3.9373,-3.9373,-3.9373,-3.9373,-3.9373,-3.9373,-3.9373,-3.923,-3.914,-3.914,-3.896,-3.8871,-3.8871,-3.8212,-3.7943,-3.8123,-3.7464,-3.7255,-3.7404,-3.7404,-3.7674,-3.8123,-3.8123,-3.8392,-3.8775,-3.7823,-3.7404,-3.7404,-3.7225,-3.7255,-3.7375,-3.7225,-3.7255,-3.7404,-3.7404,-3.7285,-3.7165,-3.7165,-3.7045,-3.6641,-3.5527,-3.4318,-3.3359,-3.308,-3.2982,-3.2982,-3.2982,0.0,0.0,0.0,0.0,0.0,-3.3864,-3.4797,-3.5912,-3.7157,-3.8049,-3.8811,-3.932,-3.9373,-3.9373,-3.9373,-3.9373,-3.9373,-3.9373,-3.9373,-3.9463,-3.9679,-3.9679,-3.9768,-3.9948,-4.0397,-4.0666,0.0,-4.1115,-4.1482,-4.1692,-4.2141,-4.25,-4.2611,-4.309,-4.329,-4.329,-4.329,-4.329,-4.329,-4.329,-4.329,-4.329,-4.329,-4.329,-4.329,-4.329,-4.329,-4.329,-4.329,-4.329,-4.329,-4.329,-4.329,-4.329,-4.329,-4.329,-4.329,-3.9373,-3.9373,-3.9373,-3.9373,-3.9373,-3.9373,-3.9373,-3.9373,-3.9373,0.0,0.0,0.0,-3.9373,-3.9373,-3.9373,-3.9373,-3.9373,-3.9373,-3.9373,-3.9373,-3.9373,-3.9373,-3.9373,-3.9373,-3.9373,-3.8751,-3.8542,-3.8811,-3.8153,-3.7973,-3.8242,-3.8242,-3.8452,-3.8811,-3.8811,-3.905,-3.9343,-3.8571,-3.8242,-3.8212,-3.7943,-3.7973,-3.8212,-3.7913,-3.8003,-3.8242,-3.8242,-3.8063,-3.7823,-3.7823,-3.7337,-3.6623,-3.5687,-3.4235,-3.2872,-3.2472,-3.22,-3.2019,-3.2019,-3.2019,-3.2019,-3.2019,0.0,0.0,-3.2517,-3.3266,-3.4164,-3.5334,-3.6251,-3.7019,-3.7622,-3.773,-3.7965,-3.8627,-3.873,-3.8907,-3.9337,-3.9373,-3.9373,-3.9373,-3.9373,-3.9373,-3.9373,-3.9768,-3.9978,-3.9978,-4.0337,-4.0696,-4.0965,-4.1632,-4.2111,-4.2381,-4.2731,-4.306,-4.329,-4.329,-4.329,-4.329,-4.329,-4.329,-4.329,-4.329,-4.329,-4.329,-4.329,-4.329,-4.329,-4.329,-4.329,-4.329,-4.329,-4.329,-4.329,-4.329,-4.329,-4.329,0.0,-3.9373,-3.9373,-3.9373,-3.9373,-3.9373,-3.9373,-3.9373,-3.9373,0.0,-3.9373,-3.9373,-3.9373,-3.9373,-3.9373,-3.9373,-3.9373,-3.9373,-3.9373,-3.9373,-3.9373,-3.9373,-3.9373,-3.9373,-3.9373,-3.8811,-3.8811,-3.9373,-3.8811,-3.8811,-3.9373,-3.9373,-3.9373,-3.9373,-3.9373,-3.9373,-3.9373,-3.9373,-3.9373,-3.9379,-3.8751,-3.8871,-3.9313,-3.8751,-3.8871,-3.9373,-3.9373,-3.902,-3.8512,-3.8512,-3.7328,-3.584,-3.584,-3.4629,-3.2996,-3.2102,-3.1505,-3.1123,-3.1071,-3.1044,-3.1044,-3.1044,-3.1044,0.0,-3.1044,-3.1615,-3.2364,-3.3248,-3.3984,-3.4639,-3.5211,-3.5322,-3.5784,-3.7225,-3.7424,-3.7895,-3.9199,-3.9373,-3.9373,-3.9373,-3.9373,-3.9373,-3.9373,-3.9373,-3.9373,-3.9373,-3.9373,-3.9679,-4.0277,-4.0905,-4.1572,-4.2171,-4.2261,-4.2551,-4.317,-4.32,-4.323,-4.329,-4.329,-4.329,-4.329,-4.329,-4.329,-4.329,-4.329,-4.329,-4.329,-4.329,-4.329,-4.329,-4.329,-4.329,-4.329,-4.329,-4.329,-4.329,-3.9373,-3.9373,-3.9373,-3.9373,-3.9373,-3.9373,-3.9373,-3.9373,-3.9373,-3.9373,-3.9373,-3.9373,-3.9373,-3.9373,-3.9373,-3.9373,-3.9373,-3.9373,-3.9373,-3.9373,-3.9373,-3.9373,-3.9373,-3.9373,-3.9373,-3.929,-3.929,-3.9373,-3.929,-3.929,-3.9373,-3.9373,-3.9373,-3.9373,-3.9373,-3.9373,-3.9373,-3.9373,-3.9373,-3.9373,-3.926,-3.929,-3.9373,-3.926,-3.932,-3.9373,-3.9373,-3.932,-3.92,-3.92,-3.7535,-3.5495,-3.5495,-3.3787,-3.1672,-3.1066,-3.0784,-3.0646,-3.0189,-3.0062,-3.0062,-3.0062,-3.0062,0.0,-3.0062,-3.0762,-3.1596,-3.2299,-3.3172,-3.3974,-3.4612,-3.475,-3.4853,-3.5152,-3.5218,-3.6219,-3.9007,-3.9373,-3.9373,-3.9373,-3.9373,-3.9373,-3.9373,-3.9373,-3.9373,-3.9373,-3.9373,-3.9433,-3.9619,-4.0217,-4.0666,-4.0786,-4.1294,-4.1931,-4.259,-4.259,-4.2821,-4.329,-4.329,-4.329,-4.329,-4.329,-4.329,-4.329,-4.329,-4.329,-4.329,-4.329,-4.329,-4.329,-4.329,-4.329,-4.329,-4.329,-4.329,-4.329,-3.9373,-3.9373,-3.9373,-3.9373,-3.9373,-3.9373,-3.9373,-3.9373,-3.9373,-3.9373,-3.9373,-3.9373,-3.9373,-3.9373,-3.9373,-3.9373,-3.9373,-3.9373,-3.9373,-3.9373,-3.9373,-3.9373,-3.9373,-3.9373,-3.9373,-3.9373,-3.9373,-3.9373,-3.9373,-3.9373,-3.9373,-3.9373,-3.9373,-3.9373,-3.9373,-3.9373,-3.9373,-3.9373,-3.9373,-3.9373,-3.9373,-3.9373,-3.9373,-3.9373,-3.9373,-3.9373,-3.9373,-3.9373,-3.9301,-3.8797,-3.732,-3.5691,-3.5207,-3.3549,-3.1763,-3.1486,-3.121,-3.0884,-3.0357,-3.0206,-3.0131,-2.9854,-2.9804,0.0,0.0,-3.0177,-3.061,-3.0932,-3.1403,-3.1876,-3.2484,-3.259,-3.2863,-3.3695,-3.3799,-3.4551,-3.6696,-3.7726,-3.8304,-3.859,-3.9053,-3.9373,-3.9373,-3.9373,-3.9373,-3.9373,-3.9373,-3.9373,-3.9373,-3.9738,-4.0068,-4.0397,-4.0726,-4.1354,-4.2381,-4.241,-4.2671,-4.329,-4.329,-4.329,-4.329,-4.329,-4.329,-4.329,-4.329,-4.329,-4.329,-4.329,-4.329,-4.329,-4.329,-4.329,-4.329,-4.329,-4.329,-4.329,-3.9433,-3.9373,-3.9373,-3.9373,-3.9373,-3.9373,-3.9373,-3.9373,-3.9373,-3.9373,-3.9373,-3.9373,-3.9373,-3.9373,-3.9373,-3.9373,-3.9373,-3.9373,-3.9373,-3.9373,-3.9373,-3.9373,-3.9373,-3.9373,-3.9373,-3.9373,-3.9373,-3.9373,-3.9373,-3.9373,-3.9373,-3.9373,-3.9373,-3.9373,-3.9373,-3.9373,-3.9373,-3.9373,-3.9373,-3.9403,-3.9559,-3.9619,-3.9619,-3.9738,-3.9798,-3.9798,-3.9798,-3.9563,-3.9187,-3.8388,-3.7141,-3.5802,-3.5071,-3.372,-3.2365,-3.224,-3.1888,-3.1436,-3.0909,-3.0758,-3.0633,-3.008,-2.9955,-2.993,0.0,0.0,0.0,-2.9804,-2.9804,-2.993,-3.0382,-3.0457,-3.086,-3.2176,0.0,0.0,0.0,-3.5106,0.0,-3.7082,-3.8208,-3.8948,-3.8948,-3.9241,-3.9373,-3.9373,-3.9373,-3.9373,-3.9373,-3.9373,-3.9679,-4.0187,-4.0217,-4.0786,-4.2021,-4.2141,-4.2491,-4.315,-4.323,-4.329,-4.329,-4.329,-4.329,-4.329,-4.329,-4.329,-4.329,-4.329,-4.329,-4.329,-4.329,-4.329,-4.329,-4.329,-4.329,-4.329,-3.9649,-3.9373,-3.9373,-3.9373,-3.9373,-3.9373,-3.9373,-3.9373,-3.9373,-3.9373,-3.9373,-3.9373,-3.9373,-3.9373,-3.9373,-3.9373,-3.9373,-3.9373,-3.9373,-3.9373,-3.9373,-3.9373,-3.9373,-3.9373,-3.9373,-3.9373,-3.9373,-3.9373,-3.9373,-3.9373,-3.9373,-3.9373,-3.9373,-3.9373,-3.9373,-3.9373,-3.9373,-3.9373,-3.9373,-3.9433,-4.0068,-4.0277,-4.0337,-4.0935,-4.1145,-4.1145,-4.1145,-4.0161,-3.8919,-3.9272,-3.7365,-3.4936,-3.5299,-3.4314,-3.2867,-3.2365,-3.2164,-3.1989,-3.1461,-3.1311,-3.1185,-3.0658,-3.0532,-3.0382,-2.9905,0.0,-2.9804,-2.9804,0.0,-2.9804,-2.988,0.0,0.0,-3.0149,-3.0149,0.0,-3.0964,-3.2018,-3.3301,-3.477,-3.6302,-3.7266,-3.7266,-3.8552,-3.9373,-3.9373,-3.9373,-3.9373,-3.9373,-3.9373,-3.9403,-3.9493,-3.9493,-3.9888,-4.0606,-4.1205,-4.1871,-4.253,-4.306,-4.329,-4.329,-4.329,-4.329,-4.329,-4.329,-4.329,-4.329,-4.329,-4.329,-4.329,-4.329,-4.329,-4.329,-4.329,-4.329,-4.329,-4.0524,-4.0546,-4.0546,-4.0546,-4.0546,-4.0546,-4.0546,-4.0546,-4.0546,-4.0546,-4.0546,-4.0546,-4.0546,-4.0546,-4.0546,-4.0546,-4.0217,-4.0157,-4.0546,-3.9858,-3.9553,-3.9978,-3.9619,-3.9373,-3.9373,-3.9373,-3.9373,-3.9373,-3.9373,-3.9373,-3.9373,-3.9373,-3.9373,-3.9373,-3.9373,-3.9373,-3.9439,-3.9828,-3.9978,-4.0068,-4.1115,-4.1572,-4.1572,-4.1452,-4.1422,-4.1422,-4.1422,-4.0948,-4.0138,-3.9081,-3.7785,-3.6356,-3.4977,-3.4114,-3.3445,-3.2893,-3.2717,-3.2591,-3.2014,-3.1863,-3.1738,-3.121,-3.106,-3.0934,-3.0382,0.0,-3.0181,-2.9854,0.0,0.0,0.0,0.0,0.0,0.0,-2.9804,-2.988,0.0,0.0,-3.1512,-3.3423,0.0,0.0,-3.6901,-3.8096,-3.899,-3.9379,-3.9373,-3.9373,-3.9373,-3.9373,-3.9373,-3.9373,-3.9373,-3.9738,-4.0397,-4.1055,-4.1752,-4.241,-4.303,-4.329,-4.329,-4.329,-4.329,-4.329,-4.329,-4.329,-4.329,-4.329,-4.329,-4.329,-4.329,-4.329,-4.329,-4.329,-4.329,-4.329,-4.1283,-4.1172,-4.1012,-4.1346,-4.1126,-4.1012,-4.1346,-4.1422,-4.1422,-4.1422,-4.1422,-4.1422,-4.1422,-4.1422,-4.1422,-4.1422,-4.0642,-4.0545,-4.1354,-4.0159,-3.9795,-4.0636,-4.0038,-3.9679,-3.9679,-3.9463,-3.9373,-3.9373,-3.9373,-3.9373,-3.9373,-3.9373,-3.9373,-3.9373,-3.9373,-3.9529,-3.9709,-4.0187,-4.0516,-4.0756,-4.1931,-4.25,-4.2581,-4.2102,-4.1923,-4.1884,-4.1585,-4.1165,-4.0469,-3.8714,-3.7636,0.0,-3.4729,-3.4022,-3.3796,-3.3244,-3.3111,-3.2993,-3.2566,-3.2441,-3.2315,0.0,0.0,0.0,0.0,0.0,0.0,0.0,0.0,0.0,0.0,0.0,-2.9804,-2.9804,0.0,-2.9804,-2.9804,-2.9804,-3.0392,0.0,0.0,0.0,0.0,-3.6961,-3.7758,-3.8654,0.0,-3.8627,-3.9373,-3.909,-3.909,-3.9373,-3.9373,-3.9649,-4.0127,-4.0786,-4.1482,-4.2141,-4.2761,-4.311,-4.329,-4.329,-4.329,-4.329,-4.329,-4.329,-4.329,-4.329,-4.329,-4.329,-4.329,-4.329,-4.329,-4.329,-4.329,-4.329,-4.1571,-4.055,-4.0031,-4.1203,-4.0412,-4.0031,-4.1203,-4.1422,-4.1422,-4.1422,-4.1422,-4.1422,-4.1422,-4.1422,-4.1422,-4.1422,-4.0305,-4.0149,-4.1346,-4.0266,-4.012,-4.1316,-4.0726,-4.0367,-4.0367,-3.9738,-3.9373,-3.9373,-3.9373,-3.9373,-3.9373,-3.9373,-3.9373,-3.9373,-3.9373,-3.9768,-4.0367,-4.0397,-4.0756,-4.1452,-4.2141,-4.2731,-4.326,-4.323,-4.323,-4.3081,-4.2012,0.0,0.0,-3.8292,-3.6625,0.0,0.0,0.0,0.0,0.0,0.0,0.0,0.0,0.0,0.0,-3.234,0.0,0.0,0.0,0.0,-3.0608,0.0,0.0,0.0,-2.9804,-2.9804,-2.9804,-2.9804,-2.9804,0.0,0.0,-2.9804,-2.9843,-2.9868,-3.1305,0.0,0.0,-3.4696,-3.5386,0.0,-3.6109,-3.6656,-3.9271,-3.8435,-3.836,-3.9373,-3.9373,-3.9403,-3.9403,-4.0098,-4.0756,-4.1452,-4.2111,-4.2731,-4.329,-4.329,-4.329,-4.329,-4.329,-4.329,-4.329,-4.329,-4.329,-4.329,-4.329,-4.329,-4.329,-4.329,-4.329,-4.329,-4.1587,-4.0618,-4.0376,-4.2327,-4.1701,-4.1035,-4.147,-4.2169,-4.2367,-4.1631,-4.2209,-4.2671,-4.2671,-4.2671,-4.2367,-4.1591,-4.1479,-4.1499,-4.1522,-4.0296,-4.0353,-4.2013,-4.0636,-4.0244,-4.1055,-4.0816,-4.0189,-3.9011,-3.9706,-3.9469,-3.836,-3.9053,-3.9373,-3.9403,-3.9858,-4.0187,-4.0457,-4.1324,-4.1871,-4.2141,-4.2731,-4.2653,-4.2234,-4.3021,-4.329,-4.317,-4.2029,-4.1235,0.0,-3.8702,-3.7599,-3.6735,-3.5583,-3.5082,-3.4756,-3.3897,-3.3621,0.0,0.0,0.0,-3.3043,-3.2842,0.0,0.0,0.0,0.0,0.0,0.0,0.0,0.0,0.0,-3.003,-2.9804,-2.9804,-2.9804,-2.9804,0.0,-2.9804,-2.9804,-2.9804,-3.0839,-3.1947,0.0,0.0,0.0,0.0,-3.5624,0.0,-3.7224,-3.7625,-3.7956,-3.836,-3.9017,-3.9373,-3.9373,-4.0068,-4.0726,-4.1384,-4.2081,-4.2701,-4.329,-4.329,-4.329,-4.329,-4.329,-4.329,-4.329,-4.329,-4.329,-4.329,-4.329,-4.329,-4.329,-4.329,-4.329,-4.329,-4.1587,-4.1,-4.1085,-4.2981,-4.267,-4.2193,-4.2193,-4.282,-4.311,-4.2638,-4.3186,-4.3738,-4.4018,-4.3977,-4.3734,-4.2977,-4.2872,-4.2661,-4.2292,-4.0855,-4.0732,-4.2334,-4.0844,-4.0498,-4.1713,-4.1092,-4.043,-3.9721,-4.0018,-3.9554,-3.8467,-3.9587,-3.9876,-3.9504,-4.036,-4.0876,-4.1145,-4.2051,-4.253,-4.2692,-4.2683,-4.2234,-4.1629,-4.1947,-4.2099,-4.1947,0.0,-4.0376,-4.0074,-3.8153,-3.7494,-3.7278,-3.5936,-3.5508,-3.5332,-3.4449,-3.4048,-3.3822,-3.347,-3.3262,0.0,-3.3111,-3.3111,0.0,-3.2591,0.0,-3.2114,0.0,0.0,0.0,0.0,-3.0457,-3.008,-3.008,-2.993,-2.9804,0.0,-2.9804,-2.9804,-2.9804,-3.0305,-3.0889,-3.1317,-3.1898,-3.2907,-3.4442,-3.4173,-3.4615,0.0,0.0,-3.7434,-3.7805,-3.8472,-3.8833,-3.8833,-3.9284,-3.9934,-4.0829,-4.165,-4.2491,-4.329,-4.329,-4.329,-4.329,-4.329,-4.329,-4.325,-4.286,-4.267,-4.2629,-4.2263,-4.2099,-4.2181,-4.2981,-4.329,-4.329,-4.1587,-4.1587,-4.1947,-4.308,-4.328,-4.329,-4.324,-4.331,-4.3589,-4.4176,-4.4306,-4.4586,-4.5214,-4.5304,-4.5263,-4.5108,-4.4192,-4.3517,-4.3241,-4.1751,-4.1283,-4.231,-4.1219,-4.1116,-4.2276,-4.0546,-4.0118,-4.1224,-4.0089,-3.9545,-3.9476,-4.0674,-4.0636,-3.9556,-4.0742,-4.1658,-4.2303,-4.2363,-4.2682,-4.313,-4.1988,-4.1462,-4.1295,-4.0232,-3.9782,-3.9579,-3.8514,-3.8107,-3.7926,-3.6803,-3.6405,-3.6329,-3.5708,-3.5533,-3.5433,-3.4881,-3.4399,-3.3972,-3.3922,-3.352,-3.3119,-3.3136,0.0,0.0,0.0,0.0,-3.2265,0.0,0.0,0.0,0.0,-3.1009,-3.0633,-3.0608,-3.0156,-2.9804,-2.9804,-2.9804,-2.9804,-2.9804,-2.9804,-2.9804,-2.9804,-2.9804,-3.07,-3.2738,-3.1943,-3.2728,0.0,0.0,-3.6576,-3.7625,-3.7701,-3.7701,-3.7701,-3.7776,-3.8477,-3.9794,-4.0829,-4.1966,-4.321,-4.317,-4.317,-4.321,-4.317,-4.321,-4.321,-4.207,-4.1587,-4.1504,-4.0404,-3.9956,-4.0145,-4.2386,-4.325,-4.329,-4.1587,-4.1587,-4.1856,-4.264,-4.3075,-4.3199,-4.2836,-4.3489,-4.4002,-4.3799,-4.4507,-4.5095,-4.5274,-4.5304,-4.4575,-4.2786,-4.3138,-4.2669,-4.0808,-4.1178,-4.1522,-4.1747,-4.1084,-4.0867,-4.1126,-4.0279,-3.9323,-3.8343,-3.8852,-3.8392,-3.718,-3.831,-3.8639,-3.8352,-3.9198,-4.0126,-4.1098,-4.1564,-4.1884,-4.1947,-4.0788,-3.9798,-3.8979,0.0,-3.8043,-3.7381,-3.7906,-3.8107,-3.7926,-3.6803,-3.6405,-3.638,-3.6207,-3.6157,-3.6031,-3.5458,-3.5182,-3.4906,-3.4123,-3.3796,-3.3596,-3.3212,-3.3111,-3.3111,0.0,0.0,0.0,0.0,0.0,0.0,0.0,0.0,-3.106,-3.0683,-3.0156,-2.9804,-2.9804,-2.9804,-2.9804,-2.9804,-2.9804,-2.9804,-2.9804,-2.9804,-3.0349,-3.169,-3.1196,-3.1706,-3.3791,0.0,0.0,-3.548,-3.6212,-3.6604,-3.6604,-3.7396,-3.8477,-3.9794,-3.9952,-4.0768,-4.2029,-4.1169,-4.1211,-4.1988,-4.1127,-4.174,-4.321,-4.207,-4.1587,-4.1587,-4.1295,-4.0661,-4.0059,-4.1504,-4.2548,-4.329,-4.1579,-4.201,-4.2537,-4.2883,-4.319,-4.3436,-4.3747,-4.4335,-4.4769,-4.4758,-4.4846,-4.502,-4.5314,-4.488,-4.3967,-4.262,-4.3579,-4.3216,-4.0759,-4.1536,-4.1818,-4.114,-4.0618,-4.0568,-4.1066,-3.9996,-3.9222,-3.8782,-3.86,-3.8067,-3.7087,-3.8265,-3.8523,-3.8049,-3.8937,-3.9702,-4.0322,-4.0689,-4.0873,-4.0746,-3.9579,-3.8693,0.0,-3.754,-3.6989,-3.6499,-3.715,-3.7381,-3.7289,-3.6615,-3.6405,-3.6405,-3.6405,-3.6405,-3.6355,-3.5981,-3.5683,-3.5357,-3.4731,-3.4274,-3.3822,-3.352,-3.3244,-3.3111,-3.3111,-3.3111,-3.3111,0.0,0.0,0.0,0.0,0.0,0.0,-3.0733,-3.0357,-3.0055,-2.9829,-2.9804,-2.9804,-2.9804,-2.9804,-2.9804,-2.9804,-2.9804,-3.0156,-3.0984,-3.0783,-3.1235,0.0,0.0,0.0,-3.4692,-3.5238,-3.5561,-3.5561,-3.612,-3.7087,-3.8352,-3.8721,-3.9574,-4.0831,-4.0189,-4.0232,-4.0831,-4.0189,-4.0618,-4.174,-4.0547,-4.0074,-4.0031,-3.9508,-3.9244,-3.9183,-3.9814,-4.1098,-4.2629,-4.1471,-4.2284,-4.3006,-4.3224,-4.3268,-4.3704,-4.4971,-4.5179,-4.5412,-4.6096,-4.5274,-4.4764,-4.5218,-4.4312,-4.3629,-4.3513,-4.4425,-4.3993,-4.1623,-4.216,-4.193,-4.051,-4.0106,-4.0287,-4.1148,-3.9608,-3.9263,-4.025,-3.8724,-3.7959,-3.788,-3.8961,-3.8872,-3.7926,-3.8961,-3.9492,-3.9667,-3.9667,-3.9667,-3.9536,-3.8379,-3.788,-3.7769,-3.6803,-3.6405,-3.6405,-3.6405,-3.6405,-3.6405,-3.6405,-3.6405,-3.6405,-3.6405,-3.6405,-3.6405,-3.6405,-3.6031,-3.5583,-3.5508,-3.4806,-3.4098,-3.4022,-3.3596,-3.3194,-3.3194,-3.3162,-3.3111,-3.3111,-3.3111,-3.3111,0.0,0.0,0.0,-3.0984,-3.0758,-3.0557,-3.008,-2.9955,-2.9905,-2.9905,-2.9829,0.0,-2.9804,-2.9804,-3.003,-3.0583,-3.0557,0.0,0.0,0.0,0.0,-3.4485,-3.4511,-3.4511,-3.4511,0.0,-3.5299,-3.6522,-3.7392,-3.8443,-3.9667,-3.9492,-3.9492,-3.9667,-3.9492,-3.9651,-3.9826,-3.8604,-3.8107,-3.7971,-3.6849,-3.701,-3.788,-3.8017,-3.9376,-4.1337,-4.1334,-4.0947,-4.0877,-4.239,-4.2657,-4.3037,-4.4302,-4.4521,-4.4791,-4.5473,-4.5722,-4.5513,-4.4558,-4.4691,-4.4402,-4.3322,-4.3072,-4.2303,-4.082,-4.1376,-4.1212,-3.9931,-4.0343,-4.0226,-3.9367,-3.8559,-3.8051,-3.7807,-3.7492,-3.7118,-3.6709,-3.6896,-3.6896,-3.6709,-3.6943,-3.7566,-3.8424,-3.8424,-3.8424,-3.8289,-3.715,-3.6709,-3.6662,-3.6499,-3.6405,-3.6405,-3.6405,-3.6405,-3.6405,-3.6405,-3.6405,-3.6405,-3.6405,-3.6405,-3.6405,-3.6405,-3.6355,-3.6107,-3.5633,-3.5357,-3.5107,-3.47,-3.4173,-3.3746,-3.3746,-3.3395,-3.3111,-3.3111,-3.3111,-3.3111,-3.3111,0.0,0.0,0.0,0.0,0.0,0.0,-3.0733,-3.0457,-3.0457,-3.008,-2.9804,-2.9804,-2.9804,-3.003,-3.0583,-3.0206,-3.0608,0.0,0.0,0.0,0.0,-3.3386,0.0,0.0,0.0,-3.5299,-3.6522,-3.6565,-3.7263,-3.8379,-3.7428,-3.752,-3.8379,-3.7428,-3.8088,-3.9826,-3.8604,-3.8107,-3.7971,-3.6849,-3.6546,-3.6803,-3.7769,-3.8379,-3.9023,-4.0481,-4.0864,-4.1399,-4.2301,-4.2695,-4.3269,-4.4529,-4.4193,-4.4159,-4.5136,-4.4886,-4.4414,-4.3795,-4.3353,-4.2866,-4.229,-4.258,-4.2268,-4.0981,-4.1595,-4.1461,-4.0176,-4.0211,-3.9955,-3.9346,-3.8743,-3.8316,-3.8065,-3.7462,-3.7036,-3.6832,-3.6531,-3.6405,-3.6405,-3.6405,-3.6709,-3.7243,-3.7243,-3.7243,-3.715,-3.6615,-3.6405,-3.6405,-3.6405,-3.6405,-3.6405,-3.6405,-3.6405,-3.6405,-3.6405,-3.6405,-3.6405,-3.6405,-3.6405,-3.6405,-3.6405,-3.6405,-3.6355,-3.6031,-3.5755,-3.5433,-3.5182,-3.4726,-3.4248,-3.3972,-3.3696,-3.342,-3.3187,-3.3111,-3.3111,-3.3111,-3.2842,0.0,0.0,0.0,0.0,0.0,0.0,-3.1009,-3.1009,-3.0783,-3.0507,-3.0256,-3.0206,-3.0331,-3.0608,-3.0357,-3.0809,-3.2139,0.0,0.0,0.0,0.0,0.0,0.0,0.0,0.0,-3.5569,-3.5763,-3.6353,-3.7196,-3.6662,-3.6709,-3.7196,-3.6615,-3.7036,-3.8043,-3.7474,-3.7243,-3.715,-3.6615,-3.6405,-3.6452,-3.701,-3.7586,-3.8379,-4.0049,-4.1157,-4.2162,-4.2162,-4.2527,-4.3178,-4.4337,-4.3646,-4.3516,-4.4979,-4.413,-4.3414,-4.3414,-4.236,-4.1681,-4.1681,-4.2468,-4.255,-4.1559,-4.1929,-4.1673,-4.0578,-4.0099,-3.9823,-3.9697,-3.927,-3.8994,0.0,0.0,0.0,-3.7186,-3.6782,-3.6531,-3.6405,-3.6405,0.0,0.0,0.0,-3.6405,-3.6405,-3.6405,-3.6405,-3.6405,-3.6405,-3.6405,-3.6405,-3.6405,-3.6405,-3.6405,-3.6405,-3.6405,-3.6405,-3.6405,-3.6405,-3.6405,-3.6405,-3.6405,-3.6405,-3.6405,-3.6031,-3.5683,-3.5683,-3.5257,-3.4776,-3.4349,-3.4073,-3.3771,-3.3345,-3.3169,-3.3111,-3.3111,-3.3111,0.0,0.0,0.0,0.0,0.0,0.0,-3.1562,-3.1562,-3.1461,-3.1235,-3.0809,-3.0783,-3.0834,-3.0934,-3.0733,-3.1085,-3.2164,-3.2215,-3.2491,0.0,0.0,-3.3111,-3.3111,0.0,-3.4173,-3.4726,-3.5232,-3.583,-3.6405,-3.6405,-3.6405,-3.6405,-3.6405,-3.6405,-3.6405,-3.6405,-3.6405,-3.6405,-3.6405,-3.6405,-3.6405,-3.6405,-3.6964,-3.7861,-4.1125,-4.1282,-4.1414,-4.1414,-4.144,-4.1695,-4.2363,-4.2384,-4.3016,-4.5034,-4.453,-4.4045,-4.4098,-4.3336,-4.2811,-4.2811,-4.2524,-4.2221,-4.2137,-4.1663,-4.1134,-4.0551,-4.0475,-4.0199,-3.9697,-3.9647,-3.9371,0.0,0.0,-3.8191,0.0,-3.7136,-3.6883,-3.6405,0.0,0.0,0.0,-3.6405,-3.6405,-3.6405,-3.6405,-3.6405,-3.6405,-3.6405,-3.6405,-3.6405,-3.6405,-3.6405,-3.6405,-3.6405,-3.6405,-3.6405,-3.6405,-3.6405,-3.6405,-3.6405,-3.6405,-3.6405,-3.6405,-3.638,-3.6329,-3.6329,-3.5881,-3.5408,-3.5357,-3.4625,-3.3897,-3.3847,-3.342,-3.3111,-3.3111,-3.3111,-3.3068,0.0,0.0,0.0,0.0,0.0,-3.2139,-3.2139,-3.1687,-3.1361,-3.1311,-3.1311,-3.1537,-3.2014,-3.116,-3.1085,-3.2164,-3.2215,-3.2491,-3.3068,0.0,-3.3111,-3.3111,-3.3621,-3.4173,-3.4726,-3.5232,-3.583,-3.6405,-3.6405,-3.6405,-3.6405,-3.6405,-3.6405,-3.6405,-3.6405,-3.6405,-3.6405,-3.6405,-3.6405,-3.6405,-3.6405,-3.6452,-3.6593,-4.1275,-4.1605,-4.1831,-4.1831,-4.2108,-4.2384,-4.2665,-4.2715,-4.3304,-4.4887,-4.4147,-4.3464,-4.3464,-4.3199,-4.2986,-4.2986,-4.2816,-4.2715,-4.2715,-4.2133,-4.1731,-4.1505,-4.0877,-4.04,-4.0199,-3.9873,-3.9597,0.0,0.0,0.0,0.0,0.0,0.0,0.0,0.0,-3.7337,-3.7337,-3.6985,-3.6908,-3.6835,-3.6531,-3.6405,-3.6405,-3.6405,-3.6405,-3.6405,-3.6405,-3.6405,-3.6405,-3.6405,-3.6405,-3.6405,-3.6405,-3.6405,-3.6405,-3.6405,-3.6405,-3.6405,-3.6405,-3.6405,-3.6405,-3.6405,-3.6207,-3.5956,-3.5583,-3.5157,-3.47,-3.4048,-3.347,-3.3111,-3.3111,-3.3111,-3.3111,0.0,0.0,0.0,0.0,0.0,0.0,-3.2742,-3.2541,-3.2265,-3.1913,-3.1888,-3.1964,-3.219,0.0,-3.1913,-3.2692,-3.2742,0.0,-3.3111,0.0,-3.3244,-3.3571,-3.4123,-3.4675,-3.5182,-3.578,-3.6157,-3.6405,-3.6405,-3.6405,-3.6405,-3.6405,-3.6405,-3.6405,-3.6405,-3.6405,-3.6405,-3.6405,-3.6405,-3.6405,-3.6405,-3.6405,-3.6405,-4.1831,-4.2133,-4.2464,-4.2464,-4.2766,-4.2986,-4.2986,-4.2986,-4.3351,-4.4264,-4.3602,-4.3129,-4.3547,-4.324,-4.2986,-4.2986,-4.2986,-4.2986,-4.2986,-4.2665,-4.2389,-4.2213,-4.1404,0.0,-4.0526,-4.0149,-3.9848,-3.9697,-3.9295,0.0,0.0,0.0,0.0,0.0,-3.8015,-3.8015,-3.799,-3.7588,-3.7437,-3.7387,-3.701,-3.6807,-3.6656,-3.6656,-3.6556,-3.6405,-3.6405,-3.6405,-3.6405,-3.6405,-3.6405,-3.6405,-3.6405,-3.6405,-3.6405,-3.6405,-3.6405,-3.6405,-3.6405,-3.6405,-3.6405,-3.6405,-3.6405,-3.6304,-3.5881,-3.5608,-3.5182,-3.4123,-3.3596,-3.3269,-3.3119,-3.3111,-3.3111,-3.3111,0.0,0.0,0.0,-3.3111,0.0,-3.3111,-3.3111,-3.2918,-3.2516,-3.2466,-3.2466,-3.2466,0.0,0.0,0.0,0.0,0.0,0.0,0.0,0.0,0.0,-3.46,-3.5107,-3.5508,-3.6107,-3.6405,-3.6405,-3.6405,-3.6405,-3.6405,-3.6405,-3.6405,-3.6405,-3.6405,-3.6405,-3.6405,-3.6405,-3.6405,-3.6405,-3.6405,-3.6405,-3.6405,-4.2961,-4.2961,-4.2961,-4.2961,-4.2961,-4.2986,-4.2986,-4.2986,-4.3042,-4.3042,-4.3042,-4.3492,-4.4833,-4.3797,-4.2986,-4.2986,-4.2986,-4.2986,-4.2986,-4.2961,-4.2766,0.0,0.0,-4.163,-4.0551,-4.0501,-4.0249,-3.9697,0.0,0.0,-3.8919,0.0,-3.8015,-3.8015,-3.8015,-3.8015,-3.8015,-3.799,-3.799,-3.799,-3.799,-3.7663,-3.7186,-3.7186,-3.6835,-3.6405,-3.6405,-3.6405,-3.6405,-3.6405,-3.6405,-3.6405,-3.6405,-3.6405,-3.6405,-3.6405,-3.6405,-3.6405,-3.6405,-3.6405,-3.6405,-3.6405,-3.6405,-3.6405,-3.6405,-3.5931,-3.5182,-3.4123,-3.3897,-3.3721,-3.3212,-3.3111,-3.3111,-3.3111,0.0,0.0,0.0,-3.3111,0.0,-3.3111,-3.3111,-3.3111,-3.3111,-3.3111,0.0,0.0,0.0,0.0,0.0,0.0,0.0,-3.3111,-3.3596,0.0,-3.3897,-3.4931,-3.5483,-3.5508,-3.6107,-3.6405,-3.6405,-3.6405,-3.6405,-3.6405,-3.6405,-3.6405,-3.6405,-3.6405,-3.6405,-3.6405,-3.6405,-3.6405,-3.6405,-3.6405,-3.6405,-3.6405,-4.2986,-4.2986,-4.2986,-4.2986,-4.2986,-4.2986,-4.2986,-4.2986,-4.2986,-4.2986,-4.2986,-4.3129,-4.3602,-4.324,-4.2986,0.0,-4.2986,-4.2986,0.0,-4.2986,-4.2886,-4.2766,-4.2414,-4.2037,-4.1685,-4.0902,-4.0425,-4.0249,0.0,0.0,0.0,-3.9245,-3.9145,-3.9145,-3.9145,-3.9145,-3.912,-3.8768,-3.8592,-3.8567,-3.8165,-3.7889,-3.7713,-3.7337,-3.7086,-3.6933,-3.6531,-3.6405,-3.6405,-3.6405,-3.6405,-3.6405,-3.6405,-3.6405,-3.6405,-3.6405,-3.6405,-3.6405,-3.6405,-3.6405,-3.6405,-3.6405,-3.6405,-3.6405,-3.6405,-3.5931,-3.5408,-3.5056,-3.468,-3.4299,-3.3746,-3.3646,-3.352,-3.3187,-3.3111,0.0,-3.3111,0.0,-3.3111,-3.3111,-3.3111,-3.3111,-3.3111,-3.3111,0.0,0.0,0.0,0.0,0.0,0.0,0.0,0.0,-3.3796,0.0,-3.4956,-3.5332,-3.5683,-3.6107,-3.6329,-3.6405,-3.6405,-3.6405,-3.6405,-3.6405,-3.6405,-3.6405,-3.6405,-3.6405,-3.6405,-3.6405,-3.6405,-3.6405,-3.6405,-3.6405,-3.6405,-3.6405,-4.2986,-4.2986,-4.2986,-4.2986,-4.2986,-4.2986,-4.2986,-4.2986,-4.2986,-4.2986,-4.2986,-4.2986,-4.2986,-4.2986,0.0,-4.2986,-4.2986,-4.2986,-4.2986,-4.2986,-4.2986,-4.2986,-4.2715,-4.2414,-4.2213,-4.1279,0.0,-4.0526,-3.9973,-3.9697,-3.9697,-3.9697,-3.9697,-3.9697,-3.9697,-3.9697,-3.9672,-3.932,-3.917,-3.9145,-3.8793,-3.8517,-3.8291,-3.7939,-3.7563,-3.7136,-3.6832,-3.6581,-3.6405,-3.6405,-3.6405,-3.6405,-3.6405,-3.6405,-3.6405,-3.6405,-3.6405,-3.6405,-3.6405,-3.6405,-3.6405,-3.6405,-3.6405,-3.6405,-3.6405,-3.6107,-3.578,-3.5533,-3.5232,-3.4831,-3.4299,-3.4198,-3.4022,-3.347,-3.3395,-3.3319,-3.3119,0.0,-3.3111,0.0,0.0,0.0,0.0,-3.3111,-3.3111,0.0,0.0,0.0,0.0,0.0,0.0,-3.3897,-3.4299,0.0,-3.5483,-3.5708,-3.6031,-3.6405,-3.6405,-3.6405,-3.6405,-3.6405,-3.6405,-3.6405,-3.6405,-3.6405,-3.6405,-3.6405,-3.6405,-3.6405,-3.6405,-3.6405,-3.6405,-3.6405,-3.6405,-3.6405,-4.2986,-4.2986,-4.2986,0.0,-4.2986,0.0,-4.2986,-4.2986,-4.2986,-4.2986,-4.2986,-4.2986,-4.2986,-4.2986,-4.2986,-4.2986,0.0,0.0,0.0,-4.2986,-4.2986,-4.2986,-4.2986,-4.2791,-4.2288,-4.1681,-4.1103,-4.0526,-3.9973,-3.9697,-3.9697,-3.9697,-3.9697,-3.9697,-3.9697,-3.9697,-3.9697,-3.9697,-3.9697,-3.9697,-3.9697,-3.9396,-3.8969,-3.8894,-3.8216,-3.7287,-3.7211,-3.6908,-3.6455,-3.643,-3.6405,-3.6405,-3.6405,-3.6405,-3.6405,-3.6405,-3.6405,-3.6405,-3.6405,-3.6405,-3.6405,-3.6405,-3.6405,-3.6405,-3.6405,-3.6405,-3.6254,-3.5658,-3.5558,-3.5382,-3.4876,-3.4776,-3.46,-3.4048,-3.3947,-3.3771,-3.3269,-3.3194,-3.3194,0.0,0.0,0.0,0.0,-3.3194,-3.3194,0.0,0.0,0.0,0.0,0.0,-3.4022,-3.4022,-3.4956,-3.5508,-3.5558,-3.6107,-3.6405,-3.6405,-3.6405,-3.6405,-3.6405,-3.6405,-3.6405,-3.6405,-3.6405,-3.6405,-3.6405,-3.6405,-3.6405,-3.6405,-3.6405,-3.6405,-3.6405,-3.6405,-3.6405,-3.6405,0.0,0.0,-4.2986,-4.2986,-4.2986,-4.2986,-4.2986,-4.2986,-4.2986,-4.2986,-4.2986,-4.2986,-4.2986,-4.2986,-4.2986,-4.2986,-4.2986,-4.2986,-4.2986,-4.2986,-4.2986,-4.2986,-4.2986,-4.2911,-4.2785,-4.2233,-4.148,-4.0526,-3.9973,-3.9697,-3.9697,-3.9697,-3.9697,-3.9697,-3.9697,-3.9697,-3.9697,-3.9697,-3.9697,-3.9697,-3.9697,-3.9622,-3.9446,-3.907,-3.8743,-3.8366,-3.7487,-3.7111,-3.6935,-3.6556,-3.6405,-3.6405,-3.6405,-3.6405,-3.6405,-3.6405,-3.6405,-3.6405,-3.6405,-3.6405,-3.6405,-3.6405,-3.6405,-3.6405,-3.6405,-3.6405,-3.638,-3.6207,-3.6182,-3.6006,-3.5408,-3.5307,-3.5132,-3.4625,-3.4525,-3.4474,-3.4349,-3.4324,-3.4324,0.0,-3.4324,-3.4324,-3.4324,-3.4324,-3.4324,0.0,0.0,0.0,0.0,-3.4881,-3.5107,-3.5107,-3.5357,-3.5708,-3.6157,-3.6355,-3.6405,-3.6405,-3.6405,-3.6405,-3.6405,-3.6405,-3.6405,-3.6405,-3.6405,-3.6405,-3.6405,-3.6405,-3.6405,-3.6405,-3.6405,-3.6405,-3.6405,-3.6405,-3.6405,-3.6405,-4.2986,-4.2986,-4.2986,-4.2986,-4.2986,-4.2986,-4.2986,-4.2986,-4.2986,-4.2986,-4.2986,-4.2986,-4.2986,-4.2986,-4.2986,-4.2986,-4.2986,-4.2986,-4.2986,-4.2986,-4.2986,-4.2986,-4.2986,-4.2986,-4.2986,-4.2489,-4.163,-4.0526,-4.0224,-3.9948,-3.9697,-3.9697,-3.9697,-3.9697,-3.9697,-3.9697,-3.9697,-3.9697,-3.9697,-3.9697,-3.9697,-3.9697,-3.9672,-3.9371,-3.9094,-3.8844,-3.8165,-3.7613,-3.7136,-3.6835,-3.6606,-3.6405,-3.6405,-3.6405,-3.6405,-3.6405,-3.6405,-3.6405,-3.6405,-3.6405,-3.6405,-3.6405,-3.6405,-3.6405,-3.6405,-3.6405,-3.6405,-3.6405,-3.6405,-3.6329,-3.5981,-3.5906,-3.573,-3.5132,-3.5056,-3.4956,-3.4705,-3.468,0.0,-3.468,-3.468,-3.468,-3.468,-3.468,-3.468,-3.468,-3.4906,0.0,-3.5056,-3.5604,-3.5805,-3.5508,-3.578,-3.6056,-3.6405,-3.6405,-3.6405,-3.6405,-3.6405,-3.6405,-3.6405,-3.6405,-3.6405,-3.6405,-3.6405,-3.6405,-3.6405,-3.6405,-3.6405,-3.6405,-3.6405,-3.6405,-3.6405,-3.6405,-3.6405,-3.6405,-4.2986,-4.2986,-4.2986,-4.2986,-4.2986,-4.2986,-4.2986,-4.2986,-4.2986,-4.2986,-4.2986,-4.2986,-4.2986,-4.2986,-4.2986,-4.2986,-4.2986,-4.2986,-4.2986,-4.2986,-4.2986,-4.2986,-4.2986,-4.2986,-4.2986,-4.2489,-4.176,-4.0777,-4.0601,-4.0275,-3.9823,-3.9747,-3.9697,-3.9697,-3.9697,-3.9697,-3.9697,-3.9697,-3.9697,-3.9697,-3.9697,-3.9697,-3.9697,-3.9697,-3.9396,-3.8994,-3.8944,-3.8266,-3.7412,-3.7236,-3.6933,-3.6505,-3.643,-3.6405,-3.6405,-3.6405,-3.6405,-3.6405,-3.6405,-3.6405,-3.6405,-3.6405,-3.6405,-3.6405,-3.6405,-3.6405,-3.6405,-3.6405,-3.6405,-3.6405,-3.6405,-3.6405,-3.6207,-3.5708,-3.5633,-3.5458,-3.5027,0.0,-3.4977,-3.4977,-3.4977,-3.4977,-3.4977,-3.4977,-3.4977,-3.4977,-3.5403,-3.5633,-3.5633,-3.6107,-3.6157,-3.5633,-3.6107,-3.6405,-3.6405,-3.6405,-3.6405,-3.6405,-3.6405,-3.6405,-3.6405,-3.6405,-3.6405,-3.6405,-3.6405,-3.6405,-3.6405,-3.6505,-3.6531,-3.6531,-3.6631,-3.6656,-3.6656,-3.6656,-3.6656,-3.6656,-4.2986,-4.2986,-4.2986,-4.2986,-4.2986,-4.2986,-4.2986,-4.2986,-4.2986,-4.2986,-4.2986,-4.2986,-4.2986,-4.2986,-4.2986,-4.2986,-4.2986,-4.2986,-4.2986,-4.2986,-4.2986,-4.2986,-4.2986,-4.2986,-4.2986,-4.2489,-4.2112,-4.1961,-4.0978,-4.0475,-4.0375,-3.9923,-3.9697,-3.9697,-3.9697,-3.9697,-3.9697,-3.9697,-3.9697,-3.9697,-3.9697,-3.9697,-3.9697,-3.9697,-3.9647,-3.9496,-3.9044,-3.8818,-3.8467,-3.7513,-3.7136,-3.6985,-3.6556,-3.6405,-3.6405,-3.6405,-3.6405,-3.6405,-3.6405,-3.6405,-3.6405,-3.6405,-3.6405,-3.6405,-3.6405,-3.6405,-3.6405,-3.6405,-3.6405,-3.6405,-3.6405,-3.6405,-3.638,-3.6304,-3.6279,-3.6254,-3.6179,0.0,-3.6153,-3.6153,-3.6153,-3.6153,-3.6153,-3.6153,-3.6153,-3.6153,-3.6229,-3.6279,-3.6279,-3.6355,-3.638,-3.6279,-3.6355,-3.6405,-3.6405,-3.6405,-3.6405,-3.6405,-3.6405,-3.6405,-3.6405,-3.6405,-3.6405,-3.6405,-3.6405,-3.6405,-3.6455,-3.6908,-3.7109,-3.7111,-3.7563,-3.7739,-3.7739,-3.7739,-3.7739,-3.7739,-4.2986,-4.2986,-4.2986,-4.2986,-4.2986,-4.2986,-4.2986,-4.2986,-4.2986,-4.2986,-4.2986,-4.2986,-4.2986,-4.2986,-4.2986,-4.2986,-4.2986,-4.2986,-4.2986,-4.2986,-4.2986,-4.2986,-4.2986,-4.2986,-4.2986,-4.2791,-4.2514,-4.2213,-4.1656,-4.1103,-4.0501,-4.0249,-3.9973,-3.9697,-3.9697,-3.9697,-3.9697,-3.9697,-3.9697,-3.9697,-3.9697,-3.9697,-3.9697,-3.9697,-3.9697,-3.9672,-3.9396,-3.912,-3.8844,-3.8266,-3.7688,-3.7136,-3.6885,-3.6656,-3.6405,-3.6405,-3.6405,-3.6405,-3.6405,-3.6405,-3.6405,-3.6405,-3.6405,-3.6405,-3.6405,-3.6405,-3.6405,-3.6405,-3.6405,-3.6405,-3.6405,-3.6405,-3.6405,-3.6405,-3.6405,0.0,0.0,-3.6405,-3.6405,-3.6405,-3.6405,-3.6405,-3.6405,-3.6405,-3.6405,-3.6405,-3.6405,-3.6405,-3.6405,-3.6405,-3.6405,-3.6405,-3.6405,-3.6405,-3.6405,-3.6405,-3.6405,-3.6405,-3.6405,-3.6405,-3.6405,-3.6707,-3.6857,-3.6883,-3.7111,-3.7236,-3.7262,-3.7513,-3.7638,-3.7663,-3.7914,-3.8015,-3.8015,-3.8015,-3.8015,-3.8015,-4.2986,-4.2986,-4.2986,-4.2986,-4.2986,-4.2986,-4.2986,-4.2986,-4.2986,-4.2986,-4.2986,-4.2986,-4.2986,-4.2986,-4.2986,-4.2986,-4.2986,-4.2986,-4.2986,-4.2986,-4.2986,-4.2986,-4.2986,-4.2986,-4.2986,-4.2986,-4.2816,-4.2414,-4.2263,-4.1785,-4.0902,-4.0626,-4.03,-3.9873,-3.9747,-3.9697,-3.9697,-3.9697,-3.9697,-3.9697,-3.9697,-3.9697,-3.9697,-3.9697,-3.9697,-3.9697,-3.9697,-3.9421,-3.9095,-3.8969,-3.8291,-3.7538,-3.7262,-3.6933,-3.6581,-3.6455,-3.6405,-3.6405,-3.6405,-3.6405,-3.6405,-3.6405,-3.6405,-3.6405,-3.6405,-3.6405,-3.6405,-3.6405,-3.6405,-3.6405,-3.6405,-3.6405,-3.6405,-3.6405,0.0,0.0,0.0,-3.6405,-3.6405,-3.6405,-3.6405,-3.6405,-3.6405,-3.6405,-3.6405,-3.6405,-3.6405,-3.6405,-3.6405,-3.6405,-3.6455,-3.6606,-3.648,-3.6405,-3.6405,-3.6531,-3.6606,-3.6606,-3.6732,-3.6782,-3.6807,-3.7186,-3.7387,-3.7387,-3.7814,-3.8015,-3.8015,-3.814,-3.8216,-3.8216,-3.8341,-3.8391,-3.8391,-3.8391,-3.8391,-3.8391,-4.2986,-4.2986,-4.2986,-4.2986,-4.2986,-4.2986,-4.2986,-4.2986,-4.2986,-4.2986,-4.2986,-4.2986,-4.2986,-4.2986,-4.2986,-4.2986,-4.2986,-4.2986,-4.2986,-4.2986,-4.2986,-4.2986,-4.2986,-4.2986,-4.2986,-4.2986,-4.2961,-4.2911,-4.2464,-4.2162,-4.2062,-4.0978,-4.0501,-4.0425,-3.9923,-3.9697,-3.9697,-3.9697,-3.9697,-3.9697,-3.9697,-3.9697,-3.9697,-3.9697,-3.9697,-3.9697,-3.9697,-3.9672,-3.9546,-3.9095,-3.8869,-3.8567,-3.7513,-3.7161,-3.701,-3.6556,-3.6405,-3.6405,-3.6405,-3.6405,-3.6405,-3.6405,-3.6405,-3.6405,-3.6405,-3.6405,-3.6405,-3.6405,-3.6405,-3.6405,-3.6405,-3.6405,-3.6405,-3.6405,0.0,0.0,-3.6405,-3.6405,-3.6405,-3.6405,-3.6405,-3.6405,-3.6405,-3.6405,-3.6405,-3.6405,-3.6405,-3.6405,-3.6405,-3.6405,-3.6631,-3.7111,-3.6681,-3.6405,-3.6405,-3.686,-3.7136,-3.7136,-3.7638,-3.7889,-3.7889,-3.7914,-3.7939,-3.7939,-3.799,-3.8015,-3.804,-3.8592,-3.8818,-3.8868,-3.9371,-3.9572,-3.9572,-3.9572,-3.9572,-3.9572,-4.2986,-4.2986,-4.2986,-4.2986,-4.2986,-4.2986,-4.2986,-4.2986,-4.2986,-4.2986,-4.2986,-4.2986,-4.2986,-4.2986,-4.2986,-4.2986,-4.2986,-4.2986,-4.2986,-4.2986,-4.2986,-4.2986,-4.2986,-4.2986,-4.2986,-4.2986,-4.2986,-4.2986,-4.2816,-4.2539,-4.2213,-4.1785,-4.1178,-4.0501,-4.03,-4.0023,-3.9697,-3.9697,-3.9697,-3.9697,-3.9697,-3.9697,-3.9697,-3.9697,-3.9697,-3.9697,-3.9697,-3.9697,-3.9672,-3.9446,-3.9196,-3.8844,-3.8416,-3.799,-3.7588,-3.7036,-3.6681,-3.6405,-3.6405,-3.6405,-3.6405,-3.6405,-3.6405,-3.6405,-3.6405,-3.6405,-3.6405,-3.6405,-3.6405,-3.6405,-3.6405,-3.6405,-3.6405,-3.6405,0.0,-3.6405,-3.6405,-3.6405,-3.6405,-3.6405,-3.6405,-3.6405,-3.6405,-3.6405,-3.6405,-3.6405,-3.6405,-3.6405,-3.6405,-3.6732,-3.7136,-3.7688,-3.7487,-3.7387,-3.7387,-3.7588,-3.7688,-3.7688,-3.7914,-3.8015,-3.8015,-3.8391,-3.8542,-3.8567,-3.8894,-3.9044,-3.9069,-3.9295,-3.9371,-3.9396,-3.9622,-3.9697,-3.9697,-3.9697,-3.9697,-3.9697,-4.2986,-4.2986,-4.2986,-4.2986,-4.2986,-4.2986,-4.2986,-4.2986,-4.2986,-4.2986,-4.2986,-4.2986,-4.2986,-4.2986,-4.2986,-4.2986,-4.2986,-4.2986,-4.2986,-4.2986,-4.2986,-4.2986,-4.2986,-4.2986,-4.2986,-4.2986,-4.2986,-4.2986,-4.2986,-4.2841,-4.2464,-4.2288,-4.181,-4.1028,-4.0676,-4.03,-3.9948,-3.9772,-3.9697,-3.9697,-3.9697,-3.9697,-3.9697,-3.9697,-3.9697,-3.9697,-3.9697,-3.9697,-3.9697,-3.9697,-3.9446,-3.9094,-3.8919,-3.8467,-3.7889,-3.7337,-3.6958,-3.6631,-3.6455,-3.6405,-3.6405,-3.6405,-3.6405,-3.6405,-3.6405,-3.6405,-3.6405,-3.6405,-3.6405,-3.6405,-3.6405,-3.6405,-3.6405,-3.6405,-3.6405,-3.6405,-3.6405,-3.6405,-3.6405,-3.6405,-3.6405,-3.6405,-3.6405,-3.6405,-3.648,-3.6656,-3.6656,-3.6732,-3.686,-3.7236,-3.7688,-3.8266,-3.8266,-3.8366,-3.8542,-3.8366,-3.8266,-3.8291,-3.8442,-3.8542,-3.8542,-3.8944,-3.912,-3.9145,-3.9521,-3.9697,-3.9697,-3.9697,-3.9697,-3.9697,-3.9697,-3.9697,-3.9697,-3.9697,-3.9697,-3.9697,-4.2986,-4.2986,-4.2986,-4.2986,-4.2986,-4.2986,-4.2986,-4.2986,-4.2986,-4.2986,-4.2986,-4.2986,-4.2986,-4.2986,-4.2986,-4.2986,-4.2986,-4.2986,-4.2986,-4.2986,-4.2986,-4.2986,-4.2986,-4.2986,-4.2986,-4.2986,-4.2986,-4.2986,-4.2986,-4.2986,-4.2961,-4.2464,-4.2213,-4.2162,-4.1028,-4.0526,-4.0475,-3.9923,-3.9697,-3.9697,-3.9697,-3.9697,-3.9697,-3.9697,-3.9697,-3.9697,-3.9697,-3.9697,-3.9697,-3.9697,-3.9697,-3.9597,-3.9044,-3.8492,-3.7914,-3.7362,-3.7186,-3.7061,-3.6581,-3.6405,-3.6405,-3.6405,-3.6405,-3.6405,-3.6405,-3.6405,-3.6405,-3.6405,-3.6405,-3.6405,-3.6405,-3.6405,-3.6405,-3.6405,-3.6405,-3.6405,-3.6405,-3.6405,-3.6405,-3.6405,-3.6405,-3.6405,-3.6405,-3.6405,-3.6631,-3.7136,-3.7186,-3.7437,-3.799,-3.8015,-3.8291,-3.8919,-3.8919,-3.9145,-3.9697,-3.9145,-3.8919,-3.8894,-3.9421,-3.9697,-3.9697,-3.9697,-3.9697,-3.9697,-3.9697,-3.9697,-3.9697,-3.9697,-3.9697,-3.9697,-3.9697,-3.9697,-3.9697,-3.9697,-3.9697,-3.9697,-4.2986,-4.2986,-4.2986,-4.2986,-4.2986,-4.2986,-4.2986,-4.2986,-4.2986,-4.2986,-4.2986,-4.2986,-4.2986,-4.2986,-4.2986,-4.2986,-4.2986,-4.2986,-4.2986,-4.2986,-4.2986,-4.2986,-4.2986,-4.2986,-4.2986,-4.2986,-4.2986,-4.2986,-4.2986,-4.2986,-4.2986,-4.2811,-4.259,-4.2187,-4.1861,-4.1229,-4.0501,-4.035,-4.0049,-3.9697,-3.9697,-3.9697,-3.9697,-3.9697,-3.9697,-3.9697,-3.9697,-3.9697,-3.9697,-3.9697,-3.9697,-3.9672,-3.9496,-3.9069,-3.8567,-3.8466,-3.809,-3.7739,-3.7563,-3.7236,-3.6883,-3.6505,-3.6405,-3.6405,-3.6405,-3.6405,-3.6405,-3.6405,-3.6405,-3.6405,-3.6405,-3.6405,-3.6405,-3.6405,-3.6405,-3.6405,-3.6405,-3.6405,-3.6405,-3.6405,-3.6405,-3.6405,-3.6405,-3.6757,-3.7059,-3.7161,-3.7538,-3.8015,-3.8592,-3.8617,-3.8868,-3.9421,-3.9446,-3.9521,-3.9697,-3.9521,-3.9446,-3.9446,-3.9622,-3.9697,-3.9697,-3.9697,-3.9697,-3.9697,-3.9697,-3.9697,-3.9697,-3.9697,-3.9697,-3.9697,-3.9697,-3.9697,-3.9697,-3.9697,-3.9697,-3.9697,-4.2986,-4.2986,-4.2986,-4.2986,-4.2986,-4.2986,-4.2986,-4.2986,-4.2986,-4.2986,-4.2986,-4.2986,-4.2986,-4.2986,-4.2986,-4.2986,-4.2986,-4.2986,-4.2986,-4.2986,-4.2986,-4.2986,-4.2986,-4.2986,-4.2986,-4.2986,-4.2986,-4.2986,-4.2986,-4.2986,-4.2986,-4.2986,-4.2866,-4.2514,-4.2313,-4.1835,-4.1128,-4.0701,-4.0325,-3.9998,-3.9798,-3.9697,-3.9697,-3.9697,-3.9697,-3.9697,-3.9697,-3.9697,-3.9697,-3.9697,-3.9697,-3.9697,-3.9697,-3.9471,-3.9145,-3.8944,-3.8617,-3.8291,-3.8065,-3.7764,-3.7437,-3.7086,-3.6732,-3.6405,-3.6405,-3.6405,-3.6405,-3.6405,-3.6405,-3.6405,-3.6405,-3.6405,-3.6405,-3.6405,-3.6405,-3.6405,-3.6405,-3.6405,-3.648,-3.6707,-3.6732,-3.6832,-3.6985,-3.7312,-3.7613,-3.7839,-3.8366,-3.8818,-3.917,-3.9195,-3.9346,-3.9697,-3.9697,-3.9697,-3.9697,-3.9697,-3.9697,-3.9697,-3.9697,-3.9697,-3.9697,-3.9697,-3.9697,-3.9697,-3.9697,-3.9697,-3.9697,-3.9697,-3.9697,-3.9697,-3.9697,-3.9697,-3.9697,-3.9697,-3.9697,-3.9697,-4.2986,-4.2986,-4.2986,-4.2986,-4.2986,-4.2986,-4.2986,-4.2986,-4.2986,-4.2986,-4.2986,-4.2986,-4.2986,-4.2986,-4.2986,-4.2986,-4.2986,-4.2986,-4.2986,-4.2986,-4.2986,-4.2986,-4.2986,-4.2986,-4.2986,-4.2986,-4.2986,-4.2986,-4.2986,-4.2986,-4.2986,-4.2986,-4.2986,-4.2961,-4.2514,-4.2263,-4.2137,-4.1078,-4.0626,-4.0551,-3.9998,-3.9772,-3.9772,-3.9722,-3.9697,-3.9697,-3.9697,-3.9697,-3.9697,-3.9697,-3.9697,-3.9697,-3.9697,-3.9697,-3.9597,-3.9094,-3.8994,-3.8818,-3.8291,-3.8115,-3.809,-3.809,-3.7287,-3.6556,-3.6556,-3.6556,-3.6556,-3.6556,-3.6556,-3.6556,-3.6556,-3.6556,-3.6556,-3.6556,-3.6556,-3.6556,-3.6556,-3.6556,-3.6732,-3.7186,-3.7262,-3.7462,-3.7965,-3.804,-3.8316,-3.8944,-3.9396,-3.9697,-3.9697,-3.9697,-3.9697,-3.9697,-3.9697,-3.9697,-3.9697,-3.9697,-3.9697,-3.9697,-3.9697,-3.9697,-3.9697,-3.9697,-3.9697,-3.9697,-3.9697,-3.9697,-3.9697,-3.9697,-3.9697,-3.9697,-3.9697,-3.9697,-3.9697,-3.9697,-3.9697,-3.9697,-4.2986,-4.2986,-4.2986,-4.2986,-4.2986,-4.2986,-4.2986,-4.2986,-4.2986,-4.2986,-4.2986,-4.2986,-4.2986,-4.2986,-4.2986,-4.2986,-4.2986,-4.2986,-4.2986,-4.2986,-4.2986,-4.2986,-4.2986,-4.2986,-4.2986,-4.2986,-4.2986,-4.2986,-4.2986,-4.2986,-4.2986,-4.2986,-4.2986,-4.2961,-4.2861,-4.2615,-4.2187,-4.1961,-4.1555,-4.105,-4.0551,-4.035,-4.03,-3.9848,-3.9697,-3.9697,-3.9697,-3.9697,-3.9697,-3.9697,-3.9697,-3.9697,-3.9697,-3.9697,-3.9672,-3.9546,-3.9521,-3.9496,-3.9371,-3.9019,-3.8668,-3.8668,-3.8165,-3.7638,-3.7638,-3.7638,-3.7638,-3.7638,-3.7638,-3.7638,-3.7638,-3.7638,-3.7638,-3.7638,-3.7638,-3.7638,-3.7638,-3.7638,-3.7688,-3.7814,-3.7839,-3.7864,-3.799,-3.8417,-3.8919,-3.9471,-3.9622,-3.9697,-3.9697,-3.9697,-3.9697,-3.9697,-3.9697,-3.9697,-3.9697,-3.9697,-3.9697,-3.9697,-3.9697,-3.9697,-3.9697,-3.9697,-3.9697,-3.9697,-3.9697,-3.9697,-3.9697,-3.9697,-3.9697,-3.9697,-3.9697,-3.9697,-3.9697,-3.9697,-3.9697,-3.9697,-4.2986,-4.2986,-4.2986,-4.2986,-4.2986,-4.2986,-4.2986,-4.2986,-4.2986,-4.2986,-4.2986,-4.2986,-4.2986,-4.2986,-4.2986,-4.2986,-4.2986,-4.2986,-4.2986,-4.2986,-4.2986,-4.2986,-4.2986,-4.2986,-4.2986,-4.2986,-4.2986,-4.2986,-4.2986,-4.2986,-4.2986,-4.2986,-4.2986,-4.2986,-4.2986,-4.2811,-4.259,-4.2313,-4.2037,-4.1681,-4.1128,-4.0752,-4.0475,-4.0199,-3.9923,-3.9697,-3.9697,-3.9697,-3.9697,-3.9697,-3.9697,-3.9697,-3.9697,-3.9697,-3.9697,-3.9697,-3.9697,-3.9697,-3.9697,-3.9471,-3.927,-3.927,-3.9044,-3.8668,-3.814,-3.8015,-3.8015,-3.8015,-3.8015,-3.8015,-3.8015,-3.8015,-3.8015,-3.8015,-3.8015,-3.8015,-3.8015,-3.8015,-3.8115,-3.8391,-3.8417,-3.8517,-3.8793,-3.9094,-3.9371,-3.9672,-3.9697,-3.9697,-3.9697,-3.9697,-3.9697,-3.9697,-3.9697,-3.9697,-3.9697,-3.9697,-3.9697,-3.9697,-3.9697,-3.9697,-3.9697,-3.9697,-3.9697,-3.9697,-3.9697,-3.9697,-3.9697,-3.9697,-3.9697,-3.9697,-3.9697,-3.9697,-3.9697,-3.9697,-3.9697,-3.9697,-4.2986,-4.2986,-4.2986,-4.2986,-4.2986,-4.2986,-4.2986,-4.2986,-4.2986,-4.2986,-4.2986,-4.2986,-4.2986,-4.2986,-4.2986,-4.2986,-4.2986,-4.2986,-4.2986,-4.2986,-4.2986,-4.2986,-4.2986,-4.2986,-4.2986,-4.2986,-4.2986,-4.2986,-4.2986,-4.2986,-4.2986,-4.2986,-4.2986,-4.2986,-4.2986,-4.2986,-4.2936,-4.2539,-4.2363,-4.2313,-4.1706,-4.1204,-4.0777,-4.0576,-4.0224,-3.9823,-3.9722,-3.9697,-3.9697,-3.9697,-3.9697,-3.9697,-3.9697,-3.9697,-3.9697,-3.9697,-3.9697,-3.9697,-3.9697,-3.9697,-3.9697,-3.9697,-3.9697,-3.9446,-3.8517,-3.8291,-3.8291,-3.8291,-3.8291,-3.8291,-3.8291,-3.8291,-3.8291,-3.8291,-3.8291,-3.8291,-3.8291,-3.8291,-3.8467,-3.8994,-3.907,-3.9195,-3.9647,-3.9697,-3.9697,-3.9697,-3.9697,-3.9697,-3.9697,-3.9697,-3.9697,-3.9697,-3.9697,-3.9697,-3.9697,-3.9697,-3.9697,-3.9697,-3.9697,-3.9697,-3.9697,-3.9697,-3.9697,-3.9697,-3.9697,-3.9697,-3.9697,-3.9697,-3.9697,-3.9697,-3.9697,-3.9697,-3.9697,-3.9697,-3.9697,-3.9697,-4.2986,-4.2986,-4.2986,-4.2986,-4.2986,-4.2986,-4.2986,-4.2986,-4.2986,-4.2986,-4.2986,-4.2986,-4.2986,-4.2986,-4.2986,-4.2986,-4.2986,-4.2986,-4.2986,-4.2986,-4.2986,-4.2986,-4.2986,-4.2986,-4.2986,-4.2986,-4.2986,-4.2986,-4.2986,-4.2986,-4.2986,-4.2986,-4.2986,-4.2986,-4.2986,-4.2986,-4.2961,-4.2886,-4.2861,-4.2811,-4.2313,-4.2062,-4.1886,-4.0877,-4.0475,-4.035,-3.9873,-3.9697,-3.9697,-3.9697,-3.9697,-3.9697,-3.9697,-3.9697,-3.9697,-3.9697,-3.9697,-3.9697,-3.9697,-3.9697,-3.9697,-3.9697,-3.9697,-3.9647,-3.9496,-3.9471,-3.9471,-3.9471,-3.9471,-3.9471,-3.9471,-3.9471,-3.9471,-3.9471,-3.9471,-3.9471,-3.9471,-3.9471,-3.9496,-3.9572,-3.9572,-3.9622,-3.9697,-3.9697,-3.9697,-3.9697,-3.9697,-3.9697,-3.9697,-3.9697,-3.9697,-3.9697,-3.9697,-3.9697,-3.9697,-3.9697,-3.9697,-3.9697,-3.9697,-3.9697,-3.9697,-3.9697,-3.9697,-3.9697,-3.9697,-3.9697,-3.9697,-3.9697,-3.9697,-3.9697,-3.9697,-3.9697,-3.9697,-3.9697,-3.9697,-3.9697,-4.2986,-4.2986,-4.2986,-4.2986,-4.2986,-4.2986,-4.2986,-4.2986,-4.2986,-4.2986,-4.2986,-4.2986,-4.2986,-4.2986,-4.2986,-4.2986,-4.2986,-4.2986,-4.2986,-4.2986,-4.2986,-4.2986,-4.2986,-4.2986,-4.2986,-4.2986,-4.2986,-4.2986,-4.2986,-4.2986,-4.2986,-4.2986,-4.2986,-4.2986,-4.2986,-4.2986,-4.2986,-4.2986,-4.2986,-4.2961,-4.271,-4.2489,-4.2162,-4.163,-4.1229,-4.0902,-4.035,-3.9948,-3.9697,-3.9697,-3.9697,-3.9697,-3.9697,-3.9697,-3.9697,-3.9697,-3.9697,-3.9697,-3.9697,-3.9697,-3.9697,-3.9697,-3.9697,-3.9697,-3.9697,-3.9697,-3.9697,-3.9697,-3.9697,-3.9697,-3.9697,-3.9697,-3.9697,-3.9697,-3.9697,-3.9697,-3.9697,-3.9697,-3.9697,-3.9697,-3.9697,-3.9697,-3.9697,-3.9697,-3.9697,-3.9697,-3.9697,-3.9697,-3.9697,-3.9697,-3.9697,-3.9697,-3.9697,-3.9697,-3.9697,-3.9697,-3.9697,-3.9697,-3.9697,-3.9697,-3.9697,-3.9697,-3.9697,-3.9697,-3.9697,-3.9697,-3.9697,-3.9697,-3.9697,-3.9697,-3.9697,-3.9697,-3.9697,-3.9697,-3.9697,-3.9697]},{"header":{"parameterUnit":"m.s-1","parameterCategory":1,"la1":30.6,"la2":28.766,"lo1":-90.7593,"lo2":-88.6598,"dy":0.0162,"dx":0.0183,"nx":116,"ny":114,"refTime":"2024-04-27T06:00:00:Z","depth":0,"parameterNumber":3,"parameterNumberName":"V-component_of_WINDS"},"data":[0.0,0.0,0.0,0.0,0.0,0.0,0.0,0.0,0.0,0.0,0.0,0.0,0.0,0.0,0.0,0.0,0.0,0.0,0.0,0.0,0.0,0.0,0.0,0.0,0.0,0.0,0.0,0.0,0.0,0.0,0.0,0.0,0.0,0.0,0.0,0.0,0.0,0.0,0.0,0.0,0.0,0.0,0.0,0.0,0.0,0.0,0.0,0.0,0.0,0.0,0.0,0.0,0.0,0.0,0.0,0.0,0.0,0.0,0.0,0.0,0.0,0.0,0.0,0.0,0.0,0.0,0.0,0.0,0.0,0.0,0.0,0.0,0.0,0.0,0.0,0.0,0.0,0.0,0.0,0.0,0.0,0.0,0.0,0.0,0.0,0.0,0.0,0.0,0.0,0.0,0.0,0.0,0.0,0.0,0.0,0.0,0.0,0.0,0.0,0.0,0.0,0.0,0.0,0.0,0.0,0.0,0.0,0.0,0.0,0.0,0.0,0.0,0.0,0.0,0.0,0.0,0.0,0.0,0.0,0.0,0.0,0.0,0.0,0.0,0.0,0.0,0.0,0.0,0.0,0.0,0.0,0.0,0.0,0.0,0.0,0.0,0.0,0.0,0.0,0.0,0.0,0.0,0.0,0.0,0.0,0.0,0.0,0.0,0.0,0.0,0.0,0.0,0.0,0.0,0.0,0.0,0.0,0.0,0.0,0.0,0.0,0.0,0.0,0.0,0.0,0.0,0.0,0.0,0.0,0.0,0.0,0.0,0.0,0.0,0.0,0.0,0.0,0.0,0.0,0.0,0.0,0.0,0.0,0.0,0.0,0.0,0.0,0.0,0.0,0.0,0.0,0.0,0.0,0.0,0.0,0.0,0.0,0.0,0.0,0.0,0.0,0.0,0.0,0.0,0.0,0.0,0.0,0.0,0.0,0.0,0.0,0.0,0.0,0.0,0.0,0.0,0.0,0.0,0.0,0.0,0.0,0.0,0.0,0.0,0.0,0.0,0.0,0.0,0.0,0.0,0.0,0.0,0.0,0.0,0.0,0.0,0.0,0.0,0.0,0.0,0.0,0.0,0.0,0.0,0.0,0.0,0.0,0.0,0.0,0.0,0.0,0.0,0.0,0.0,0.0,0.0,0.0,0.0,0.0,0.0,0.0,0.0,0.0,0.0,0.0,0.0,0.0,0.0,0.0,0.0,0.0,0.0,0.0,0.0,0.0,0.0,0.0,0.0,0.0,0.0,0.0,0.0,0.0,0.0,0.0,0.0,0.0,0.0,0.0,0.0,0.0,0.0,0.0,0.0,0.0,0.0,0.0,0.0,0.0,0.0,0.0,0.0,0.0,0.0,0.0,0.0,0.0,0.0,0.0,0.0,0.0,0.0,0.0,0.0,0.0,0.0,0.0,0.0,0.0,0.0,0.0,0.0,0.0,0.0,0.0,0.0,0.0,0.0,0.0,0.0,0.0,0.0,0.0,0.0,0.0,0.0,0.0,0.0,0.0,0.0,0.0,0.0,0.0,0.0,0.0,0.0,0.0,0.0,0.0,0.0,0.0,0.0,0.0,0.0,0.0,0.0,0.0,0.0,0.0,0.0,0.0,0.0,0.0,0.0,0.0,0.0,0.0,0.0,0.0,0.0,0.0,0.0,0.0,0.0,0.0,0.0,0.0,0.0,0.0,0.0,0.0,0.0,0.0,0.0,0.0,0.0,0.0,0.0,0.0,0.0,0.0,0.0,0.0,0.0,0.0,0.0,0.0,0.0,0.0,0.0,0.0,0.0,0.0,0.0,0.0,0.0,0.0,0.0,0.0,0.0,0.0,0.0,0.0,0.0,0.0,0.0,0.0,0.0,0.0,0.0,0.0,0.0,0.0,0.0,0.0,0.0,0.0,0.0,0.0,0.0,0.0,0.0,0.0,0.0,0.0,0.0,0.0,0.0,0.0,0.0,0.0,0.0,0.0,0.0,0.0,0.0,0.0,0.0,0.0,0.0,0.0,0.0,0.0,0.0,0.0,0.0,0.0,0.0,0.0,0.0,0.0,0.0,0.0,0.0,0.0,0.0,0.0,0.0,0.0,0.0,0.0,0.0,0.0,0.0,0.0,0.0,0.0,0.0,0.0,0.0,0.0,0.0,0.0,0.0,0.0,0.0,0.0,0.0,0.0,0.0,0.0,0.0,0.0,0.0,0.0,0.0,0.0,0.0,0.0,0.0,0.0,0.0,0.0,0.0,0.0,0.0,0.0,0.0,0.0,0.0,0.0,0.0,0.0,0.0,0.0,0.0,0.0,0.0,0.0,0.0,0.0,0.0,0.0,0.0,0.0,0.0,0.0,0.0,0.0,0.0,0.0,0.0,0.0,0.0,0.0,0.0,0.0,0.0,0.0,0.0,0.0,0.0,0.0,0.0,0.0,0.0,0.0,0.0,0.0,0.0,0.0,0.0,0.0,0.0,0.0,0.0,0.0,0.0,0.0,0.0,0.0,0.0,0.0,0.0,0.0,0.0,0.0,0.0,0.0,0.0,0.0,0.0,0.0,0.0,0.0,0.0,0.0,0.0,0.0,0.0,0.0,0.0,0.0,0.0,0.0,0.0,0.0,0.0,0.0,0.0,0.0,0.0,0.0,0.0,0.0,0.0,0.0,0.0,0.0,0.0,0.0,0.0,0.0,0.0,0.0,0.0,0.0,0.0,0.0,0.0,0.0,0.0,0.0,0.0,0.0,0.0,0.0,0.0,0.0,0.0,0.0,0.0,0.0,0.0,0.0,0.0,0.0,0.0,0.0,0.0,0.0,0.0,0.0,0.0,0.0,0.0,0.0,0.0,0.0,0.0,0.0,0.0,0.0,0.0,0.0,0.0,0.0,0.0,0.0,0.0,0.0,0.0,0.0,0.0,0.0,0.0,0.0,0.0,0.0,0.0,0.0,0.0,0.0,0.0,0.0,0.0,0.0,0.0,0.0,0.0,0.0,0.0,0.0,0.0,0.0,0.0,0.0,0.0,0.0,0.0,0.0,0.0,0.0,0.0,0.0,0.0,0.0,0.0,0.0,0.0,0.0,0.0,0.0,0.0,0.0,0.0,0.0,0.0,0.0,0.0,0.0,0.0,0.0,0.0,0.0,0.0,0.0,0.0,0.0,0.0,0.0,0.0,0.0,0.0,0.0,0.0,0.0,0.0,0.0,0.0,0.0,0.0,0.0,0.0,0.0,0.0,0.0,0.0,0.0,0.0,0.0,0.0,0.0,0.0,0.0,0.0,0.0,0.0,0.0,0.0,0.0,0.0,0.0,0.0,0.0,0.0,0.0,0.0,0.0,0.0,0.0,0.0,0.0,0.0,0.0,0.0,0.0,0.0,0.0,0.0,0.0,0.0,0.0,0.0,0.0,0.0,0.0,0.0,0.0,0.0,0.0,0.0,0.0,0.0,0.0,0.0,0.0,0.0,0.0,0.0,0.0,0.0,0.0,0.0,0.0,0.0,0.0,0.0,0.0,0.0,0.0,0.0,0.0,0.0,0.0,0.0,0.0,0.0,0.0,0.0,0.0,0.0,0.0,0.0,0.0,0.0,0.0,0.0,0.0,0.0,0.0,0.0,0.0,0.0,0.0,0.0,0.0,0.0,0.0,0.0,0.0,0.0,0.0,0.0,0.0,0.0,0.0,0.0,0.0,0.0,0.0,0.0,0.0,0.0,0.0,0.0,0.0,0.0,0.0,0.0,0.0,0.0,0.0,0.0,0.0,0.0,0.0,0.0,0.0,0.0,0.0,0.0,0.0,0.0,0.0,0.0,0.0,0.0,0.0,0.0,0.0,0.0,0.0,0.0,0.0,0.0,0.0,0.0,0.0,0.0,0.0,0.0,0.0,0.0,0.0,0.0,0.0,0.0,0.0,0.0,0.0,0.0,0.0,0.0,0.0,0.0,0.0,0.0,0.0,0.0,0.0,0.0,0.0,0.0,0.0,0.0,0.0,0.0,0.0,0.0,0.0,0.0,0.0,0.0,0.0,0.0,0.0,0.0,0.0,0.0,0.0,0.0,0.0,0.0,0.0,0.0,0.0,0.0,0.0,0.0,0.0,0.0,0.0,0.0,0.0,0.0,0.0,0.0,0.0,0.0,0.0,0.0,0.0,0.0,0.0,0.0,0.0,0.0,0.0,0.0,0.0,0.0,0.0,0.0,0.0,0.0,0.0,0.0,0.0,0.0,0.0,0.0,0.0,0.0,0.0,0.0,0.0,0.0,0.0,0.0,0.0,0.0,0.0,0.0,0.0,0.0,0.0,0.0,0.0,0.0,0.0,0.0,0.0,0.0,0.0,0.0,0.0,0.0,0.0,0.0,0.0,0.0,0.0,0.0,0.0,0.0,0.0,0.0,0.0,0.0,0.0,0.0,0.0,0.0,0.0,0.0,0.0,0.0,0.0,0.0,0.0,0.0,0.0,0.0,0.0,0.0,0.0,0.0,0.0,0.0,0.0,0.0,0.0,0.0,0.0,0.0,0.0,0.0,0.0,0.0,0.0,0.0,0.0,0.0,0.0,0.0,0.0,0.0,0.0,0.0,0.0,0.0,0.0,0.0,0.0,0.0,0.0,0.0,0.0,0.0,0.0,0.0,0.0,0.0,0.0,0.0,0.0,0.0,0.0,0.0,0.0,0.0,0.0,0.0,0.0,0.0,0.0,0.0,0.0,0.0,0.0,0.0,0.0,0.0,0.0,0.0,0.0,0.0,0.0,0.0,0.0,0.0,0.0,0.0,0.0,0.0,0.0,0.0,0.0,0.0,0.0,0.0,0.0,0.0,0.0,0.0,0.0,0.0,0.0,0.0,0.0,0.0,0.0,0.0,0.0,0.0,0.0,0.0,0.0,0.0,0.0,0.0,0.0,0.0,0.0,0.0,0.0,0.0,0.0,0.0,0.0,0.0,0.0,0.0,0.0,0.0,0.0,0.0,0.0,0.0,0.0,0.0,0.0,0.0,0.0,0.0,0.0,0.0,0.0,0.0,0.0,0.0,0.0,0.0,0.0,0.0,0.0,0.0,0.0,0.0,0.0,0.0,0.0,0.0,0.0,0.0,0.0,0.0,0.0,0.0,0.0,0.0,0.0,0.0,0.0,0.0,0.0,0.0,0.0,0.0,0.0,0.0,0.0,0.0,0.0,0.0,0.0,0.0,0.0,0.0,0.0,0.0,0.0,0.0,0.0,0.0,0.0,0.0,0.0,0.0,0.0,0.0,0.0,0.0,0.0,0.0,0.0,0.0,0.0,0.0,0.0,0.0,0.0,0.0,0.0,0.0,0.0,0.0,0.0,0.0,0.0,0.0,0.0,0.0,0.0,0.0,0.0,0.0,0.0,0.0,0.0,0.0,0.0,0.0,0.0,0.0,0.0,0.0,0.0,0.0,0.0,0.0,0.0,0.0,0.0,0.0,0.0,0.0,0.0,0.0,0.0,0.0,0.0,0.0,0.0,0.0,0.0,0.0,0.0,0.0,0.0,0.0,0.0,0.0,0.0,0.0,0.0,0.0,0.0,0.0,0.0,0.0,0.0,0.0,0.0,0.0,0.0,0.0,0.0,0.0,0.0,0.0,0.0,0.0,0.0,0.0,0.0,0.0,0.0,0.0,0.0,0.0,0.0,0.0,0.0,0.0,0.0,0.0,0.0,0.0,0.0,0.0,0.0,0.0,0.0,0.0,0.0,0.0,0.0,0.0,0.0,0.0,0.0,0.0,0.0,0.0,0.0,0.0,0.0,0.0,0.0,0.0,0.0,0.0,0.0,0.0,0.0,0.0,0.0,0.0,0.0,0.0,0.0,0.0,0.0,0.0,0.0,0.0,0.0,0.0,0.0,0.0,0.0,0.0,0.0,0.0,0.0,0.0,0.0,0.0,0.0,0.0,0.0,0.0,0.0,0.0,0.0,0.0,0.0,0.0,0.0,0.0,0.0,0.0,0.0,0.0,0.0,0.0,0.0,0.0,0.0,0.0,0.0,0.0,0.0,0.0,0.0,0.0,0.0,0.0,0.0,0.0,0.0,0.0,0.0,0.0,0.0,0.0,0.0,0.0,0.0,0.0,0.0,0.0,0.0,0.0,0.0,0.0,0.0,0.0,1.7013,0.0,0.0,0.0,0.0,0.0,0.0,0.0,0.0,0.0,0.0,0.0,0.0,0.0,0.0,0.0,0.0,0.0,0.0,0.0,0.0,0.0,0.0,0.0,0.0,2.3101,2.3101,2.3101,2.3101,2.3101,2.3101,0.0,0.0,0.0,0.0,0.0,2.3101,2.3101,2.3101,2.3101,2.3101,2.3101,2.3101,2.3101,2.2984,2.2812,0.0,0.0,0.0,0.0,0.0,0.0,0.0,0.0,0.0,0.0,0.0,0.0,0.0,0.0,0.0,0.0,0.0,0.0,0.0,0.0,0.0,0.0,0.0,0.0,0.0,0.0,0.0,0.0,0.0,0.0,0.0,0.0,0.0,0.0,0.0,0.0,0.0,0.0,0.0,0.0,0.0,0.0,0.0,0.0,0.0,0.0,0.0,0.0,0.0,0.0,0.0,0.0,0.0,0.0,0.0,0.0,0.0,0.0,0.0,0.0,0.0,0.0,0.0,0.0,0.0,0.0,0.0,0.0,0.0,0.0,0.0,1.7796,0.0,0.0,0.0,0.0,0.0,0.0,0.0,0.0,0.0,0.0,0.0,0.0,0.0,0.0,0.0,0.0,0.0,0.0,0.0,0.0,0.0,2.3101,2.3101,2.3101,2.3101,2.3101,2.3101,2.3101,2.3101,2.3101,0.0,0.0,2.3101,2.3101,2.3101,2.3101,2.3101,2.3101,2.3101,2.3101,2.3101,2.3101,2.3101,2.3144,2.4082,0.0,0.0,0.0,0.0,0.0,0.0,0.0,0.0,0.0,0.0,0.0,0.0,0.0,0.0,0.0,0.0,0.0,0.0,0.0,0.0,0.0,0.0,0.0,0.0,0.0,0.0,0.0,0.0,0.0,0.0,0.0,0.0,0.0,0.0,0.0,0.0,0.0,0.0,0.0,0.0,0.0,0.0,0.0,0.0,0.0,0.0,0.0,0.0,0.0,0.0,0.0,0.0,0.0,0.0,0.0,0.0,0.0,0.0,0.0,0.0,0.0,0.0,0.0,2.1894,2.1894,2.1875,2.0903,2.1006,2.1795,2.0211,1.935,1.9038,1.814,0.0,0.0,0.0,0.0,0.0,0.0,0.0,0.0,0.0,0.0,0.0,0.0,0.0,0.0,0.0,0.0,0.0,0.0,0.0,2.3101,2.3101,2.3101,2.3101,2.3101,2.3101,2.3101,2.3101,2.3101,2.3101,2.3101,2.3101,2.3101,2.3101,2.3101,2.3101,2.3101,2.3101,2.3101,2.3101,2.3101,2.3101,2.3101,2.3256,2.328,2.3201,0.0,0.0,0.0,0.0,0.0,0.0,0.0,0.0,0.0,0.0,0.0,0.0,0.0,0.0,0.0,0.0,0.0,0.0,0.0,0.0,0.0,0.0,0.0,0.0,0.0,0.0,0.0,0.0,0.0,0.0,0.0,0.0,0.0,0.0,0.0,0.0,0.0,0.0,0.0,0.0,0.0,2.1719,2.1719,0.0,0.0,0.0,0.0,0.0,0.0,0.0,0.0,0.0,0.0,0.0,0.0,0.0,2.1894,2.1894,2.1894,2.1894,2.1894,2.1894,2.1894,2.1875,2.1751,2.1751,2.1875,2.1634,0.0,2.1457,2.1293,0.0,0.0,0.0,0.0,0.0,0.0,0.0,0.0,0.0,0.0,0.0,0.0,0.0,0.0,0.0,0.0,0.0,0.0,0.0,0.0,0.0,2.3101,2.3101,2.3101,2.3101,2.3101,2.3101,2.3101,2.3101,2.3101,2.3101,2.3101,2.3101,2.3101,2.3101,2.3101,2.3101,2.3101,2.3101,2.3101,2.3101,2.3101,2.3101,2.3101,2.3081,2.2906,0.0,0.0,0.0,0.0,0.0,0.0,0.0,0.0,0.0,0.0,0.0,0.0,0.0,0.0,0.0,0.0,0.0,0.0,0.0,0.0,0.0,0.0,0.0,0.0,0.0,0.0,0.0,0.0,0.0,0.0,0.0,0.0,0.0,0.0,0.0,0.0,0.0,0.0,0.0,2.1894,2.1894,2.1894,2.209,2.2246,0.0,0.0,0.0,0.0,0.0,0.0,0.0,0.0,0.0,2.2598,2.2598,2.2598,2.2598,2.2598,2.2598,2.2598,2.2598,2.2598,2.2598,2.2598,2.2598,2.2598,2.2598,2.2598,2.2559,2.209,2.1777,2.1582,0.0,0.0,0.0,0.0,1.9981,1.9694,0.0,0.0,0.0,0.0,0.0,0.0,0.0,0.0,0.0,0.0,0.0,0.0,2.3101,2.3101,2.3101,2.3101,2.3101,2.3101,2.3101,2.3101,2.3101,2.3101,2.3101,2.3101,2.3101,2.3101,2.3101,2.3101,2.3101,2.3101,2.3101,2.3101,2.3101,2.3101,2.3101,2.3101,2.3101,2.3101,2.3381,2.3781,0.0,0.0,0.0,0.0,0.0,0.0,0.0,0.0,0.0,0.0,0.0,0.0,0.0,0.0,0.0,0.0,0.0,0.0,0.0,0.0,0.0,0.0,0.0,0.0,0.0,0.0,0.0,0.0,0.0,0.0,0.0,0.0,0.0,0.0,0.0,0.0,0.0,2.2207,2.2207,2.2207,2.248,2.2676,0.0,0.0,0.0,0.0,0.0,0.0,2.3101,2.3101,2.3101,2.3101,2.3198,2.3257,2.3257,2.3374,2.3413,2.3413,2.3413,2.3413,2.3413,2.3413,2.3413,2.3413,2.3413,2.3354,2.3198,2.25,2.2148,2.2051,2.2051,2.1973,2.1894,2.1894,2.168,2.1366,0.0,0.0,0.0,0.0,0.0,0.0,0.0,0.0,0.0,0.0,0.0,2.3101,2.3101,2.3101,2.3101,2.3101,2.3101,2.3101,2.3101,2.3101,2.3101,2.3101,2.3101,2.3101,2.3101,2.3101,2.3101,2.3101,2.3101,2.3101,2.3101,2.3101,2.3101,2.3101,2.3101,2.3101,2.3101,2.3101,2.3125,2.3149,2.3149,0.0,0.0,0.0,0.0,0.0,0.0,0.0,0.0,0.0,0.0,0.0,0.0,0.0,0.0,0.0,0.0,0.0,0.0,0.0,0.0,0.0,0.0,0.0,0.0,0.0,0.0,0.0,0.0,0.0,0.0,0.0,0.0,0.0,0.0,0.0,0.0,0.0,0.0,2.3042,2.3042,0.0,0.0,0.0,0.0,2.3101,2.3101,2.3101,2.3101,2.3101,2.3101,2.3101,2.3535,2.375,2.375,2.416,2.4355,2.4355,2.4355,2.4355,2.4355,2.4355,2.4355,2.4355,2.4355,2.4121,2.3711,2.3218,2.2789,2.248,2.248,2.2246,2.1894,2.1894,2.1875,2.1855,0.0,0.0,0.0,0.0,0.0,2.3101,2.3101,2.3101,2.3101,2.3101,2.3101,2.3101,2.3101,2.3101,2.3101,2.3101,2.3101,2.3101,2.3101,2.3101,2.3101,2.3101,2.3101,2.3101,2.3101,2.3101,2.3101,2.3101,2.3101,2.3101,2.3101,2.3101,2.3101,2.3101,2.3101,2.3101,2.3101,2.3101,2.3101,2.3101,2.3101,2.3461,0.0,0.0,0.0,0.0,0.0,0.0,0.0,0.0,0.0,0.0,0.0,0.0,0.0,0.0,0.0,0.0,0.0,0.0,0.0,0.0,0.0,0.0,0.0,0.0,0.0,0.0,0.0,0.0,0.0,0.0,0.0,0.0,0.0,0.0,0.0,0.0,0.0,2.3101,2.3101,0.0,2.3101,2.3101,2.3101,2.3101,2.3398,2.3555,2.3555,2.3809,2.3919,2.3919,2.4121,2.4199,2.4199,2.4336,2.4414,2.4414,2.4414,2.4414,2.4414,2.4414,2.4414,2.4414,2.4414,2.4336,2.418,2.4023,2.351,2.2867,2.2867,2.2789,2.2652,2.2652,2.2652,2.2652,0.0,0.0,0.0,2.3101,2.3101,2.3101,2.3101,2.3101,2.3101,2.3101,2.3101,2.3101,2.3101,2.3101,2.3101,2.3101,2.3101,2.3101,2.3101,2.3101,2.3101,2.3101,2.3101,2.3101,2.3101,2.3101,2.3101,2.3101,2.3101,2.3101,2.3101,2.3101,2.3101,2.3101,2.3101,2.3101,2.3101,2.3101,2.3101,2.3101,2.3101,2.3541,2.419,0.0,0.0,0.0,0.0,0.0,0.0,0.0,0.0,0.0,0.0,0.0,0.0,0.0,0.0,0.0,0.0,0.0,0.0,0.0,0.0,0.0,0.0,0.0,0.0,0.0,0.0,0.0,0.0,0.0,0.0,0.0,0.0,0.0,0.0,2.3101,2.3101,2.3101,2.3101,2.3159,2.3296,2.3359,2.3374,2.351,2.3828,2.4004,2.4004,2.4258,2.4414,2.4414,2.4551,2.4707,2.4863,2.5,2.5156,2.5293,2.5293,2.5293,2.5293,2.5156,2.5078,2.5078,2.4922,2.4766,2.4629,2.4629,2.4219,2.353,2.353,2.3432,2.3359,2.3359,2.3218,2.3101,0.0,2.3101,2.3101,2.3101,2.3101,2.3101,2.3101,2.3101,2.3101,2.3101,2.3101,2.3101,2.3101,2.3101,2.3101,2.3101,2.3101,2.3101,2.3101,2.3101,2.3101,2.3101,2.3101,2.3101,2.3101,2.3101,2.312,2.312,2.312,2.314,2.314,2.314,2.314,2.314,2.314,2.312,2.312,2.312,2.3101,2.3101,2.3101,2.3101,2.3101,0.0,0.0,0.0,0.0,0.0,0.0,0.0,0.0,0.0,0.0,0.0,0.0,0.0,0.0,0.0,0.0,0.0,0.0,0.0,0.0,0.0,0.0,0.0,0.0,0.0,0.0,0.0,0.0,0.0,0.0,0.0,0.0,0.0,2.3101,2.3101,2.3101,2.312,2.312,2.332,2.3769,2.3809,2.3984,2.4394,2.4434,2.4453,2.4453,2.4492,2.4492,2.4492,2.4902,2.5332,2.5732,2.6191,2.6602,2.7012,2.7012,2.7012,2.7012,2.6602,2.6406,2.6387,2.5957,2.5527,2.5165,2.5165,2.4863,2.4473,2.4434,2.416,2.3809,2.3809,2.3535,2.314,2.3101,2.3101,2.3101,2.3101,2.3101,2.3101,2.3101,2.3101,2.3101,2.3101,2.3101,2.3101,2.3101,2.3101,2.3101,2.3101,2.3101,2.3101,2.3101,2.3101,2.3101,2.3101,2.3101,2.3101,2.3101,2.3437,2.3613,2.3613,2.3906,2.4017,2.4017,2.4017,2.4017,2.4017,2.4017,2.3906,2.3613,2.3613,2.3437,2.3101,2.3101,2.3101,2.3101,0.0,0.0,0.0,0.0,0.0,0.0,0.0,0.0,0.0,0.0,0.0,0.0,0.0,0.0,0.0,0.0,0.0,0.0,0.0,0.0,0.0,0.0,0.0,0.0,0.0,0.0,0.0,0.0,0.0,0.0,0.0,2.3101,2.3101,2.3101,2.3101,2.3218,2.3574,2.3613,2.3769,2.4199,2.4238,2.4297,2.4414,2.4972,2.5323,2.5323,2.5957,2.6309,2.6309,2.6426,2.6543,2.666,2.6777,2.6894,2.7012,2.7012,2.7012,2.7012,2.6894,2.6836,2.6836,2.6719,2.6602,2.6465,2.6152,2.5957,2.5742,2.4785,2.4355,2.4238,2.4238,2.416,2.4023,2.3101,2.3101,2.3101,2.3101,2.3101,2.3101,2.3101,2.3101,2.3101,2.3101,2.3101,2.3101,2.3101,2.3101,2.3101,2.3101,2.3101,2.3101,2.3101,2.3101,2.3101,2.3101,2.3101,2.3179,2.3398,2.3652,2.3867,2.4043,2.4297,2.4414,2.4414,2.4414,2.4414,2.4414,2.4414,2.4277,2.4043,2.3867,2.3633,2.3398,2.3159,2.3101,2.3101,2.3101,2.3517,2.4082,2.4082,2.483,2.588,2.6521,0.0,0.0,0.0,0.0,0.0,0.0,0.0,0.0,0.0,0.0,0.0,0.0,0.0,0.0,0.0,0.0,0.0,0.0,0.0,0.0,0.0,0.0,0.0,0.0,2.3257,2.3418,2.3418,2.3418,2.3496,2.3769,2.3945,2.4219,2.4648,2.4863,2.5039,2.5234,2.5879,2.622,2.622,2.6738,2.7012,2.7012,2.7012,2.7109,2.7285,2.7285,2.7383,2.7539,2.7539,2.7539,2.7539,2.7363,2.7285,2.7285,2.709,2.7012,2.6992,2.6758,2.6641,0.0,0.0,0.0,0.0,0.0,2.4414,2.4375,2.3101,2.3101,2.3101,2.3101,2.3101,2.3101,2.3101,2.3101,2.3101,2.3101,2.3101,2.3101,2.3101,2.3101,2.3101,2.3101,2.3101,2.3101,2.3101,2.3101,2.3101,2.3101,2.3101,2.3296,2.3769,2.3828,2.4062,2.4492,2.4531,2.457,2.457,2.457,2.457,2.457,2.457,2.4531,2.4473,2.4043,2.3828,2.375,2.3276,2.3101,2.3101,2.3101,2.3101,2.3101,2.3101,2.3757,2.4617,2.4745,0.0,0.0,0.0,0.0,0.0,0.0,0.0,0.0,0.0,0.0,0.0,0.0,0.0,0.0,0.0,0.0,0.0,0.0,0.0,0.0,0.0,0.0,0.0,0.0,2.3535,2.3809,2.3848,2.3906,2.3945,2.3945,2.4316,2.4746,2.5223,2.5625,2.6035,2.6426,2.6855,2.709,2.709,0.0,0.0,0.0,0.0,2.7344,2.7787,2.7787,2.793,2.8301,2.8301,2.8301,2.8281,2.791,2.7787,2.7715,2.7324,2.7168,2.7148,2.7109,2.707,2.6934,2.6122,2.5605,2.5223,2.4785,2.4609,2.4551,2.3101,2.3101,2.3101,2.3101,2.3101,2.3101,2.3101,2.3101,2.3101,2.3101,2.3101,2.3101,2.3101,2.3101,2.3101,2.3101,2.3101,2.3101,2.3101,2.3101,2.3101,2.3101,2.3101,2.3296,2.3769,2.4121,2.4512,2.4941,2.5312,2.544,2.544,2.544,2.544,2.544,2.544,2.5273,2.4922,2.4473,2.4102,2.375,2.3276,2.3101,2.3101,2.3101,2.3101,2.3101,2.3101,2.3256,2.3541,2.451,2.4957,2.5294,2.6235,2.6524,0.0,0.0,0.0,0.0,0.0,0.0,0.0,0.0,0.0,0.0,0.0,0.0,0.0,0.0,0.0,0.0,0.0,0.0,0.0,2.3613,2.373,2.3906,2.4238,2.459,2.4871,2.4871,2.5215,2.5644,2.6094,2.6523,2.6797,2.6894,2.7305,2.7539,2.7539,2.7851,2.8047,2.8047,2.8047,2.8086,2.8164,2.8164,2.8203,2.8301,0.0,0.0,2.8301,2.8203,2.8164,2.8164,2.8086,2.8047,2.8027,2.7676,2.7324,2.6992,2.6836,2.6504,2.6133,2.6035,2.5781,2.5382,2.3101,2.3101,2.3101,2.3101,2.3101,2.3101,2.3101,2.3101,2.3101,2.3101,2.3101,2.3101,2.3101,2.3101,2.3101,2.3101,2.3101,2.3101,2.3101,2.3101,2.3101,2.3101,2.3101,2.3393,2.4102,2.4316,2.4746,2.541,2.5577,2.5693,2.5693,2.5693,2.5693,2.5693,2.5693,2.5557,2.5371,2.4687,2.4297,2.4043,2.3354,2.3101,2.3101,2.3101,2.3101,2.3101,2.3101,2.3101,2.3188,2.3757,2.3973,2.4059,2.4595,2.4808,2.4893,0.0,0.0,0.0,0.0,0.0,0.0,0.0,0.0,0.0,0.0,0.0,0.0,0.0,0.0,2.3101,2.3101,0.0,2.3535,2.375,2.416,2.4512,2.4707,2.5312,2.5644,2.543,2.5801,2.623,2.666,2.709,2.7344,2.7344,2.7734,2.7988,2.7988,2.8184,2.8301,2.8301,2.8301,2.8301,2.8301,2.8301,2.8301,2.8301,2.8301,2.8301,2.8301,2.8301,2.8301,2.8301,2.8301,2.8301,2.8281,2.8066,2.7851,2.7656,2.7656,2.7266,2.6699,2.6699,2.6426,2.6035,2.3101,2.3101,2.3101,2.3101,2.3101,2.3101,2.3101,2.3101,2.3101,2.3101,2.3101,2.3101,2.3101,2.3101,2.3101,2.3101,2.3101,2.3101,2.3101,2.3101,2.3101,2.3101,2.3101,2.3452,2.4277,2.4375,2.4805,2.5557,2.5635,2.5693,2.5693,2.5693,2.5693,2.5693,2.5693,2.5635,2.5499,2.4766,2.4375,2.4219,2.3413,2.3101,2.3101,2.3101,2.3101,2.3101,2.3101,2.3101,2.3101,2.3101,2.3101,2.3101,2.3101,2.3101,2.3256,2.4211,2.3973,0.0,0.0,0.0,0.0,0.0,0.0,0.0,0.0,2.3757,2.3101,2.3101,2.3101,2.312,2.3198,2.3555,2.3848,2.4004,2.4656,2.5165,2.5341,2.5937,2.6328,2.6133,2.6426,2.6777,2.7109,2.7539,2.7845,2.7845,2.8105,2.8301,2.8301,2.8301,2.8301,2.8301,2.8301,2.8301,2.8301,2.8301,2.8301,2.8301,2.8301,2.8301,2.8301,2.8301,2.8301,2.8301,2.8301,2.8301,2.8301,2.8301,2.8301,2.8301,2.8301,2.7871,2.7246,2.7168,2.6875,2.6504,2.3101,2.3101,2.3101,2.3101,2.3101,2.3101,2.3101,2.3101,2.3101,2.3101,2.3101,2.3101,2.3101,2.3101,2.3101,2.3101,2.3101,2.3101,2.3101,2.3101,2.3101,2.3101,2.3101,2.3315,2.3848,2.4219,2.4648,2.5184,2.5547,2.5693,2.5693,2.5693,2.5693,2.5693,2.5693,2.5508,2.5117,2.4629,2.4199,2.3809,2.3296,2.3101,2.3101,2.3101,2.3101,2.3101,2.3101,2.3101,2.3101,2.3101,2.3101,2.3101,2.3101,2.3101,2.3144,2.3256,2.393,2.4617,2.4787,2.4787,2.4575,2.3714,2.3387,2.3299,0.0,2.3188,2.3101,2.3101,2.3101,2.3218,2.3652,2.375,2.4043,2.4851,2.5047,2.5399,2.6133,2.6328,2.666,2.7415,2.7552,2.7591,2.765,2.7969,2.8223,2.8223,2.8262,2.8301,2.8301,2.8301,2.8301,2.8301,2.8301,2.8301,2.8301,2.8301,2.8301,2.8301,2.8301,2.8301,2.8301,2.8301,2.8301,2.8301,2.8301,2.8301,2.8301,2.8301,2.8301,2.8301,2.8301,2.8242,2.8105,2.7734,2.7324,2.6953,2.3101,2.3101,2.3101,2.3101,2.3101,2.3101,2.3101,2.3101,2.3101,2.3101,2.3101,2.3101,2.3101,2.3101,2.3101,2.3101,2.3101,2.3101,2.3101,2.3101,2.3101,2.3101,2.3101,2.3296,2.3769,2.3965,2.4258,2.4687,2.5137,2.5352,2.5352,2.5557,2.5605,2.5352,2.5352,2.5098,2.4668,2.4238,2.3945,2.375,2.3276,2.3101,2.3101,2.3101,2.3101,2.3101,2.3101,2.3101,0.0,2.3101,2.3101,2.3101,2.3101,2.3101,2.3101,2.3101,2.343,2.38,2.38,2.38,2.3714,2.3212,2.3101,2.3101,2.3101,2.3101,2.3101,2.3101,2.334,2.3574,2.375,2.4199,2.4695,2.5047,2.5556,2.5957,2.6328,2.6816,2.7266,2.7669,2.7943,2.8027,2.8027,2.8184,2.8301,2.8301,2.8516,2.8652,2.8652,2.8906,2.9043,2.9043,2.9043,2.8906,2.8652,2.8652,2.8535,2.8301,2.8301,2.8301,2.8301,2.8301,2.8301,2.8301,2.8301,2.8301,2.8301,2.8301,2.8301,2.8301,2.8301,2.8301,2.8262,2.8086,2.7754,2.7402,2.3101,2.3101,2.3101,2.3101,2.3101,2.3101,2.3101,2.3101,2.3101,2.3101,2.3101,2.3101,2.3101,2.3101,2.3101,2.3101,2.3101,2.3101,2.3101,2.3101,2.3101,2.3101,2.3101,2.3237,2.3594,2.373,2.3945,2.4238,2.4687,2.4883,2.4902,2.5215,2.5195,2.4883,2.4883,2.4648,2.4219,2.3926,2.3711,2.3574,2.3218,2.3101,2.3101,2.3101,2.3101,2.3101,2.3101,2.3101,2.3101,2.3101,2.3101,2.3101,2.3101,2.3101,2.3101,2.3101,2.3101,2.3101,2.3101,2.3101,2.3101,2.3101,2.3101,2.3101,2.3101,2.3101,2.314,2.3257,2.3574,2.3867,2.4102,2.4648,2.5165,2.5234,2.5898,2.6426,2.6543,2.7207,2.7767,2.7832,2.8105,2.8301,2.8301,2.8301,2.834,2.8457,2.875,2.8965,2.9101,2.9394,2.9626,2.9626,2.9626,2.9355,2.8926,2.8926,2.8711,2.8301,2.8301,2.8301,2.8301,2.8301,2.8301,2.8301,2.8301,2.8301,2.8301,2.8301,2.8301,2.8301,2.8301,2.8301,2.8301,2.8301,2.8105,2.7885,0.0,2.3101,2.3101,2.3101,2.3101,2.3101,2.3101,2.3101,2.3101,2.3101,2.3101,2.3101,2.3101,2.3101,2.3101,2.3101,2.3101,2.3101,2.3101,2.3101,2.3101,2.3101,2.3101,2.3101,2.312,2.3574,2.3789,2.3809,2.4238,2.4434,2.4434,2.4453,2.4453,2.4434,2.4434,2.4199,2.3809,2.3789,2.3555,2.312,2.3101,2.3101,2.3101,2.3101,2.3101,2.3101,2.3101,2.3101,2.3101,2.3101,2.3101,2.3101,2.3101,2.3101,2.3101,2.3101,2.3101,2.3101,2.3101,2.3101,2.3101,2.3101,2.3101,2.3101,2.3101,2.3101,2.3218,2.3691,2.3769,2.4043,2.493,2.5106,2.5215,2.5596,2.6094,2.6523,2.6934,2.7383,2.7812,2.8223,2.8281,2.8301,2.8301,2.8301,2.8457,2.8867,2.8906,2.9101,2.9531,2.957,2.9626,2.9626,2.9626,2.9355,2.8926,2.8926,2.8711,2.8301,2.8301,2.8301,2.8301,2.8301,2.8301,2.8301,2.8301,2.8301,2.8301,2.8301,2.8301,2.8301,2.8301,2.8301,2.8301,2.8301,2.8281,2.8281,0.0,0.0,2.3101,2.3101,2.3101,2.3101,2.3101,2.3101,2.3101,2.3101,2.3101,0.0,0.0,0.0,0.0,0.0,2.3101,2.3101,2.3101,2.3101,2.3101,2.3101,2.3101,2.3101,2.3101,2.3237,2.3359,2.3359,2.3789,2.4004,2.4004,2.4277,2.4277,2.4004,2.4004,2.3769,2.3359,2.3359,2.3237,2.3101,2.3101,2.3101,2.3101,2.3101,2.3101,2.3101,0.0,2.3101,2.3101,2.3101,2.3101,2.3101,2.3101,2.3101,2.3101,2.3101,2.3101,2.3101,2.3101,2.3101,2.3101,2.3101,2.3101,2.3101,2.3101,2.3315,2.3613,2.3769,2.4238,2.4773,2.5067,2.5312,2.5664,2.6094,2.6523,2.6953,2.7383,2.7812,2.8125,2.8281,2.8301,2.8301,2.8301,2.8535,2.8769,2.8906,2.9453,2.9824,2.998,3.0273,3.0449,3.0449,3.0449,3.0234,2.9766,2.9492,2.9141,2.8711,2.8418,2.8301,2.8301,2.8301,2.8301,2.8301,2.8301,2.8301,2.8301,2.8301,2.8301,2.8301,2.8301,2.8301,2.8301,2.8301,2.8301,2.8301,0.0,0.0,0.0,2.3101,2.3101,0.0,0.0,0.0,0.0,0.0,0.0,0.0,0.0,0.0,0.0,0.0,0.0,2.3101,2.3101,2.3101,2.3101,2.3101,2.3101,2.3101,2.3101,2.3101,2.3101,2.3101,2.3418,2.3555,2.3574,2.3828,2.3809,2.3555,2.3555,2.3398,2.3101,2.3101,2.3101,2.3101,2.3101,2.3101,2.3101,2.3101,2.3101,0.0,2.3101,2.3101,2.3101,2.3101,2.3101,2.3101,2.3101,2.3101,2.3101,2.3101,2.3101,2.3101,2.3101,2.3101,2.3101,2.3101,2.3101,2.314,2.3296,2.3594,2.3887,2.418,2.4734,2.5117,2.5273,2.5547,2.583,2.6309,2.6738,2.7168,2.7598,2.8027,2.8301,2.8301,2.8301,2.8359,2.8496,2.8906,2.9141,2.9141,2.9805,3.0273,3.043,3.0723,3.0898,3.0898,3.0898,3.0664,3.0195,2.9785,2.9277,2.8691,2.8418,2.8301,2.8301,2.8301,2.8301,2.8301,2.8301,2.8301,2.8301,2.8301,2.8301,2.8301,2.8301,2.8301,2.8301,2.8301,2.8301,2.8301,0.0,0.0,0.0,0.0,0.0,0.0,0.0,0.0,0.0,0.0,0.0,0.0,0.0,0.0,0.0,0.0,0.0,0.0,2.3188,2.3188,2.3188,2.3188,2.3144,2.3101,2.3101,2.3101,2.3101,2.3101,2.3101,2.3101,2.3101,2.3101,2.3101,2.3101,2.3101,2.3101,2.3101,2.3101,2.3101,2.3101,2.3101,2.3101,2.3101,2.3101,2.3101,2.3101,2.3101,2.3101,2.3101,2.3101,2.3101,2.3101,2.3101,2.3101,2.3101,2.3101,2.3101,2.3101,2.3101,2.3101,2.3101,2.3101,2.3101,2.3198,2.3691,2.3809,2.4062,2.4949,2.5125,2.5234,2.5615,2.5693,2.583,2.6309,2.6738,2.7168,2.7598,2.8027,2.8301,2.8301,2.8301,2.8457,2.8887,2.9316,2.9646,2.9646,3.0,3.043,3.0859,3.0898,3.0898,3.0898,3.0898,3.0684,3.0234,2.9785,2.9141,2.8301,2.8301,2.8301,2.8301,2.8301,2.8301,2.8301,2.8301,2.8301,2.8301,2.8301,2.8301,2.8301,2.8301,2.8301,2.8301,2.8301,2.8301,2.8301,0.0,0.0,0.0,0.0,0.0,0.0,0.0,0.0,0.0,0.0,0.0,0.0,0.0,0.0,0.0,0.0,0.0,0.0,2.4382,2.4382,2.4382,2.4382,2.3541,2.3101,2.3101,2.3101,2.3101,2.3101,2.3101,2.3101,2.3101,2.3101,2.3101,2.3101,2.3101,2.3101,2.3101,2.3101,2.3101,2.3101,2.3101,2.3101,2.3101,2.3101,2.3101,2.3101,2.3101,2.3101,2.3101,2.3101,2.3101,2.3101,2.3101,2.3101,2.3101,2.3101,2.3101,2.3101,2.3101,2.3101,2.3101,2.3101,2.3101,2.3198,2.3691,2.4043,2.4414,2.5008,2.5332,2.5605,2.5674,2.5693,2.583,2.6309,2.6738,2.7168,2.7598,2.8027,2.8301,2.8301,2.8301,2.8457,2.8887,2.9316,2.9707,3.0019,3.0449,3.0762,3.0879,3.0898,3.0898,3.0898,3.0898,3.084,3.0723,2.9961,2.9141,2.8301,2.8301,2.8301,2.8301,2.8301,2.8301,2.8301,2.8301,2.8301,2.8301,2.8301,2.8301,2.8301,2.8301,2.8301,2.8301,2.8301,2.8301,2.8301,0.0,0.0,0.0,0.0,0.0,0.0,0.0,0.0,0.0,0.0,0.0,0.0,0.0,0.0,0.0,0.0,0.0,0.0,0.0,2.5083,2.4787,2.4787,2.3714,2.3101,2.3101,2.3101,2.3101,2.3101,2.3101,2.3101,2.3101,2.3101,2.3101,2.3101,2.3101,2.3101,2.3101,2.3101,2.3101,0.0,0.0,2.3101,2.3101,2.3101,2.3101,2.3101,2.3101,2.3101,2.3101,2.3101,2.3101,2.3101,2.3101,2.3101,2.3101,2.3101,2.3101,2.3101,2.3101,2.3101,2.3101,2.3101,2.3101,2.3257,2.3926,2.4238,2.459,2.5234,2.5566,2.5693,2.5693,2.5693,2.583,2.6309,2.6738,2.7168,2.7598,2.8027,2.8301,2.8301,2.8301,2.8535,2.9141,2.9434,2.9824,3.0449,3.0742,3.0898,3.0898,3.0898,3.0898,3.0898,3.0898,3.0703,3.0312,2.9824,2.9141,2.8301,2.8301,2.8301,2.8301,2.8301,2.8301,2.8301,0.0,2.8301,2.8301,2.8301,2.8301,2.8301,2.8301,2.8301,2.8301,2.8301,2.8301,2.8301,0.0,0.0,0.0,0.0,0.0,0.0,0.0,0.0,0.0,0.0,2.343,2.3387,0.0,0.0,0.0,0.0,0.0,0.0,0.0,0.0,2.5231,2.5231,2.4125,2.3474,2.3343,2.3343,2.3256,2.3101,2.3101,2.3101,2.3101,2.3101,2.3101,2.3101,2.3101,2.3101,2.3101,2.3101,2.3101,2.3101,2.3101,2.3101,2.3101,0.0,2.3101,2.3101,2.3101,2.3101,2.3101,2.3101,2.3101,2.3101,2.3101,2.3101,2.3101,2.3101,2.3101,2.3101,2.3101,2.3101,2.3101,2.3101,2.3101,2.3296,2.4141,2.4336,2.457,2.5343,2.5518,2.5538,2.5596,2.5596,2.5801,2.623,2.6699,2.7148,2.7519,2.7988,2.8301,2.8301,2.8301,2.8633,2.9548,2.9626,2.9941,3.082,3.0898,3.0898,3.0898,3.0898,3.0898,3.0898,3.0898,3.0469,2.9646,2.9626,2.9141,2.8301,2.8301,2.8301,2.8301,2.8301,2.8301,2.8301,2.8301,2.8301,2.8301,2.8301,2.8301,2.8301,2.8301,2.8301,2.8301,2.8301,2.8301,2.8301,0.0,0.0,0.0,0.0,0.0,0.0,0.0,0.0,0.0,2.6069,2.5083,2.4872,0.0,0.0,0.0,0.0,0.0,0.0,0.0,0.0,0.0,2.7522,2.6502,2.5462,2.4532,2.451,2.4039,2.3101,2.3101,2.3101,2.3101,2.3101,2.3101,2.3101,2.3101,2.3101,2.3101,2.3101,2.3101,2.3101,2.3101,2.3101,2.3101,2.3101,0.0,0.0,2.3101,2.3101,2.3101,2.3101,2.3101,2.3101,2.3101,2.3101,2.3101,2.3101,2.3101,2.3101,2.3101,2.3101,2.3101,2.3101,2.3101,2.3237,2.3789,2.3906,2.4043,2.4551,2.4648,2.4766,2.5117,2.5176,2.5332,2.5732,2.6504,2.7031,2.7109,2.7793,2.8301,2.8301,2.8301,2.8633,2.9548,2.9626,2.9941,3.082,3.0898,3.0898,3.0898,3.0898,3.0898,3.0898,3.0898,3.0469,2.9646,2.9626,2.9141,2.8301,2.8301,2.8301,2.8301,2.8301,2.8301,2.8301,2.8301,0.0,2.8301,2.8301,2.8301,2.8301,2.8301,2.8301,2.8301,2.8301,2.8301,2.8301,0.0,0.0,0.0,0.0,0.0,0.0,2.9067,2.8988,2.8791,2.8291,2.7238,2.6479,2.6524,2.6502,2.6726,0.0,0.0,0.0,0.0,0.0,0.0,2.8084,2.7075,2.6235,2.5714,2.5672,2.542,2.4851,0.0,2.3973,2.3953,2.3387,2.3101,2.3101,2.3101,2.3101,2.3101,2.3101,2.3101,2.3101,2.3101,2.3101,2.3101,2.3101,0.0,0.0,2.3101,2.3101,2.3101,2.3101,2.3101,2.3101,2.3101,2.3101,2.3101,2.3101,2.3101,2.3101,2.3101,2.3101,2.3101,2.3101,2.3101,2.3198,2.3691,2.3789,2.3906,2.4336,2.4414,2.4551,2.5028,2.5106,2.5215,2.5615,2.6415,2.7012,2.7012,2.7754,2.8301,2.8301,2.8301,2.8633,2.9548,2.9626,2.9941,3.082,3.0898,3.0898,3.0898,3.0898,3.0898,3.0898,3.0898,3.0566,2.9902,2.9668,2.9258,2.8613,2.8398,2.8301,2.8301,2.8301,2.8301,2.8301,2.8301,2.8301,2.8301,2.8301,2.8301,2.8301,2.8301,2.8301,2.8301,2.8301,2.8301,2.8301,0.0,0.0,0.0,0.0,0.0,0.0,2.9804,2.9804,2.9804,2.9804,2.9028,2.8148,2.7302,2.7723,2.8227,0.0,0.0,0.0,0.0,0.0,0.0,0.0,0.0,0.0,2.6853,0.0,0.0,2.6524,2.5588,0.0,0.0,0.0,0.0,0.0,2.3101,2.3101,2.3101,2.3101,2.3101,0.0,0.0,2.3101,2.3101,0.0,0.0,0.0,0.0,2.3101,2.3101,2.3101,2.3101,2.3101,2.3101,2.3101,2.3101,2.3101,2.3101,2.3101,2.3101,2.3101,2.3101,2.3101,2.3101,2.3179,2.3574,2.3652,2.375,2.4082,2.4095,2.4277,2.4707,2.4863,2.5078,2.5527,2.6309,2.6914,2.7012,2.7676,2.8184,2.8281,2.8301,2.8633,2.9548,2.9626,2.9941,3.082,3.0898,3.0898,3.0898,3.0898,3.0898,3.0898,3.0898,3.0664,3.0195,2.9785,2.9355,2.8906,2.8496,2.8301,2.8301,2.8301,2.8301,2.8301,2.8301,2.8301,0.0,2.8301,2.8301,2.8301,2.8301,2.8301,2.8301,2.8301,2.8301,2.8301,0.0,0.0,0.0,0.0,0.0,0.0,2.9804,2.9804,2.9804,2.9804,2.9702,2.9624,2.9507,2.8648,2.8505,0.0,0.0,0.0,0.0,0.0,0.0,0.0,0.0,0.0,0.0,0.0,0.0,2.6524,2.64,0.0,0.0,0.0,0.0,0.0,0.0,2.3101,2.3101,2.3101,0.0,0.0,0.0,0.0,0.0,0.0,0.0,0.0,0.0,2.3101,2.3101,2.3101,2.3101,2.3101,2.3101,2.3101,2.3101,2.3101,2.3101,2.3101,2.3101,2.3101,2.3101,2.3101,2.3101,2.3101,2.314,2.3159,2.3159,2.3198,2.3218,2.3354,2.3828,2.4219,2.4609,2.5059,2.5879,2.6582,2.6973,2.7422,2.7871,2.8242,2.8301,2.8633,2.9548,2.9626,2.9941,3.082,3.0898,3.0898,3.0898,3.0898,3.0898,3.0898,3.0898,3.0664,3.0195,2.9785,2.9355,2.8906,2.8496,2.8301,2.8301,2.8301,2.8301,2.8301,2.8301,2.8301,0.0,2.8301,2.8301,2.8301,2.8301,2.8301,2.8301,2.8301,2.8301,2.8301,0.0,0.0,0.0,0.0,0.0,0.0,2.9804,2.9804,2.9804,2.9804,2.9804,2.9804,2.9804,2.9404,2.9326,2.974,2.9804,0.0,0.0,0.0,0.0,0.0,0.0,0.0,0.0,0.0,2.891,2.8514,2.7787,0.0,0.0,0.0,0.0,0.0,0.0,2.3101,2.3101,2.3101,0.0,0.0,0.0,0.0,0.0,0.0,0.0,0.0,0.0,0.0,2.3996,2.3343,2.356,2.3996,2.3299,2.3101,2.3101,2.3101,2.3101,2.3101,2.3101,2.3101,2.3101,2.3101,2.3101,2.3256,2.3973,2.3584,2.3299,2.3973,2.3584,2.3237,2.3711,2.4141,2.4551,2.5047,2.5801,2.6543,2.6953,2.7383,2.8179,2.9367,2.8794,2.8838,3.0282,2.9948,3.0317,3.2089,3.3042,3.3529,3.3529,3.2701,3.2644,3.3529,3.2701,3.2105,3.1978,3.0409,2.9492,2.9297,2.8613,2.8301,2.8301,2.8301,2.8301,2.8301,2.8301,2.8301,0.0,2.8301,2.8301,2.8301,2.8301,2.8301,2.8301,2.8301,2.8301,2.8301,0.0,0.0,0.0,0.0,0.0,2.9804,2.9804,2.9804,2.9804,2.9804,2.9804,2.9804,2.9804,2.9804,2.9804,2.9804,2.9804,0.0,0.0,0.0,0.0,0.0,0.0,0.0,0.0,0.0,2.9804,2.9804,2.8988,2.8426,0.0,0.0,2.563,2.5252,0.0,0.0,0.0,0.0,0.0,0.0,0.0,0.0,0.0,0.0,0.0,0.0,0.0,0.0,0.0,0.0,0.0,2.5041,2.356,2.356,2.3973,2.3299,2.3101,2.3101,2.3101,2.3101,2.3101,2.3101,2.3343,2.38,2.4617,2.4168,2.3844,2.4617,2.3887,2.3198,2.3535,2.4043,2.4512,2.4824,2.5625,2.6387,2.6934,2.7285,2.8021,2.9536,2.8847,2.9026,3.0819,3.1024,3.1795,3.3634,3.4681,3.5508,3.5945,3.4958,3.4459,3.4626,3.362,3.2907,3.2473,3.0545,2.9626,2.9607,2.8691,2.8301,2.8301,2.8301,2.8301,2.8301,2.8301,2.8301,0.0,2.8301,2.8301,2.8301,2.8301,2.8301,2.8301,2.8301,2.8301,2.8301,0.0,0.0,0.0,0.0,0.0,2.9804,2.9804,2.9804,2.9804,2.9804,2.9804,2.9804,2.9804,2.9804,2.9804,2.9804,2.9804,0.0,0.0,0.0,0.0,0.0,0.0,0.0,2.9804,2.9804,2.9804,2.9804,2.9804,2.9184,2.8084,2.8084,2.7481,2.6483,0.0,0.0,0.0,0.0,2.5797,0.0,0.0,0.0,2.6359,0.0,0.0,0.0,0.0,0.0,0.0,0.0,0.0,0.0,0.0,2.4638,2.6027,2.3757,2.3101,2.3101,2.3101,2.3101,2.3101,2.3101,2.3973,2.4787,2.4787,2.4787,2.4787,2.4787,2.3887,2.3101,2.3101,2.3803,2.4414,2.4414,2.5128,2.5986,2.6894,2.7012,2.7344,2.8237,2.8281,2.9026,3.0819,3.3061,3.462,3.5266,3.5288,0.0,3.74,3.7477,3.614,3.3191,3.3134,3.2416,3.0937,3.0057,2.9626,2.9607,2.8691,2.8301,2.8301,2.8301,2.8301,2.8301,2.8301,2.8301,0.0,2.8301,2.8301,2.8301,2.8301,2.8301,2.8301,2.8301,2.8301,2.8301,0.0,0.0,0.0,0.0,0.0,0.0,2.9804,2.9804,2.9804,2.9804,2.9804,2.9804,2.9804,2.9804,2.9804,2.9804,2.9804,0.0,0.0,0.0,0.0,0.0,0.0,2.9804,2.9804,2.9804,2.9804,2.9804,2.9804,2.9624,2.9248,2.8466,2.7924,2.7562,2.683,2.6524,0.0,2.6524,2.6295,2.5964,0.0,2.6193,2.6483,0.0,0.0,0.0,0.0,0.0,0.0,0.0,0.0,0.0,0.0,0.0,0.0,2.4723,2.4253,2.4082,2.3299,2.3101,2.3101,2.3101,2.3973,2.4999,2.5797,2.5378,2.5252,2.6726,2.4957,2.3343,2.4125,2.4346,2.467,2.5562,2.5704,2.6652,2.9309,2.8136,2.836,3.204,3.2454,3.2565,3.2867,3.4484,3.5876,3.6741,3.7767,3.853,3.8973,3.9025,3.8582,3.766,3.5672,3.4348,3.3923,3.103,2.9626,2.9607,2.9621,2.9197,2.8354,2.925,2.9144,2.8335,2.925,2.9164,0.0,2.9303,2.9164,2.8301,2.8301,2.8301,2.8301,2.8301,2.8301,2.8301,0.0,0.0,0.0,0.0,0.0,0.0,2.9804,2.9804,2.9804,2.9804,2.9804,2.9804,2.9804,2.9804,2.9804,2.9804,2.9804,0.0,0.0,0.0,0.0,0.0,2.9804,2.9804,2.9804,2.9804,2.9804,2.9804,2.9804,2.9804,2.9779,2.9067,2.8727,2.8727,2.8051,2.777,0.0,2.7302,2.7342,2.773,2.7302,2.7383,2.7706,0.0,0.0,0.0,0.0,0.0,0.0,0.0,0.0,0.0,0.0,0.0,0.0,0.0,2.5755,2.5775,2.4681,2.4059,2.3844,2.4274,2.4935,2.5714,2.683,2.6521,2.6438,2.7804,2.5775,2.4082,2.521,2.4859,2.4945,2.6619,2.6599,2.7483,3.0452,2.9486,2.9728,3.3189,3.4068,3.4398,3.4331,3.5788,3.7108,3.7983,3.9082,3.9697,3.9697,3.9697,3.9697,3.9697,3.737,3.5527,3.4252,3.1705,3.0339,3.0123,3.0263,3.012,2.9807,3.0172,3.012,2.9807,3.0172,0.0,0.0,3.0172,2.9807,2.9006,2.8495,2.8301,2.8301,2.8301,2.8301,2.8301,0.0,0.0,0.0,0.0,0.0,0.0,2.9804,2.9804,2.9804,2.9804,2.9804,2.9804,2.9804,2.9804,2.9804,2.9804,2.9804,0.0,0.0,0.0,0.0,2.9804,2.9804,2.9804,2.9804,2.9804,2.9804,2.9804,2.9804,2.9804,2.9804,2.9804,2.9804,2.9804,2.9804,2.9804,2.974,2.8688,2.8806,2.9702,2.8648,2.8846,0.0,0.0,0.0,0.0,0.0,0.0,0.0,0.0,0.0,0.0,0.0,0.0,0.0,0.0,0.0,0.0,0.0,2.5839,2.5168,2.6235,2.6565,2.6871,2.7884,2.8084,0.0,2.8203,2.6438,2.5252,2.6423,2.5497,2.531,2.77,2.7796,2.8417,3.0836,3.123,3.1566,3.2392,3.3723,3.4772,3.5274,3.6949,3.8241,3.8818,3.9371,3.9697,3.9697,3.9647,3.9647,3.9647,3.8251,3.6002,3.2751,3.2154,3.1655,3.1106,3.0747,3.1184,3.228,3.1133,3.1235,0.0,3.1081,0.0,0.0,3.1081,3.0463,3.0172,2.8953,2.8441,2.8441,2.8441,2.8441,2.8441,0.0,0.0,0.0,0.0,0.0,0.0,0.0,0.0,0.0,0.0,2.9804,2.9804,2.9804,2.9804,2.9804,0.0,0.0,0.0,0.0,0.0,0.0,2.9804,2.9804,2.9804,2.9804,2.9804,2.9804,2.9804,2.9804,2.9804,2.9804,2.9804,2.9804,2.9804,2.9804,2.9804,2.9779,2.9482,2.9585,2.9804,2.9507,2.9585,0.0,0.0,0.0,0.0,2.9404,2.9404,0.0,0.0,0.0,0.0,0.0,0.0,0.0,0.0,2.853,2.9365,2.9091,0.0,2.613,2.6442,2.7116,2.7804,0.0,2.8084,2.8347,2.9223,2.7626,2.6573,2.8075,2.6867,2.6657,2.9509,2.8607,2.9055,3.3228,3.4568,3.4823,3.3995,3.5114,3.6129,3.6675,3.7467,3.8241,3.8818,3.9371,3.9697,3.9697,3.9295,3.9069,3.9069,3.8315,3.7202,3.57,3.3728,3.2663,3.2553,3.3156,3.3055,3.2331,3.3105,3.3005,3.2331,3.3105,0.0,3.2381,3.3105,3.2202,3.0276,2.9964,2.9807,2.9807,2.9807,2.9807,2.9964,0.0,0.0,0.0,0.0,0.0,0.0,0.0,0.0,0.0,0.0,2.9804,2.9804,2.9804,2.9804,2.9804,0.0,0.0,0.0,2.9804,2.9804,2.9804,2.9804,2.9804,2.9804,2.9804,2.9804,2.9804,2.9804,2.9804,2.9804,2.9804,2.9804,2.9804,2.9804,2.9804,2.9804,2.9804,2.9804,2.9804,2.9804,2.9804,0.0,0.0,0.0,0.0,0.0,2.9804,2.9804,0.0,2.9804,2.9804,2.9702,0.0,0.0,0.0,0.0,2.9326,2.9804,2.9804,2.853,2.7383,2.7891,2.8068,2.8267,2.8767,2.891,2.9067,2.9663,2.841,2.7725,2.9391,2.816,2.7877,3.0839,3.0368,3.0951,3.4562,3.583,3.6121,3.5427,3.5953,3.6531,3.6784,3.7312,3.7764,3.8065,3.8617,3.8919,3.8919,3.8642,3.8467,3.8467,3.7914,3.7097,3.6006,3.4676,3.3899,3.3669,3.416,3.4313,3.4191,3.4313,3.4313,3.4191,0.0,0.0,3.4191,3.4313,3.3525,3.2101,3.1491,3.1235,3.1235,3.1235,3.1235,3.1338,0.0,0.0,0.0,0.0,0.0,0.0,0.0,0.0,0.0,0.0,0.0,0.0,0.0,0.0,0.0,0.0,0.0,2.9804,2.9804,2.9804,2.9804,2.9804,2.9804,2.9804,2.9804,2.9804,2.9804,2.9804,2.9804,2.9804,2.9804,2.9804,2.9804,2.9804,2.9804,2.9804,2.9804,2.9804,2.9804,2.9804,2.9804,0.0,0.0,0.0,0.0,0.0,0.0,0.0,0.0,2.9804,2.9804,2.9804,2.9804,0.0,0.0,0.0,0.0,0.0,2.9804,2.9106,2.8585,2.9585,2.9067,2.8609,2.9585,2.9804,2.9804,2.9804,2.9101,2.8915,3.0448,2.9397,2.9167,3.1903,3.2416,3.3196,3.5219,3.6006,3.6405,3.6405,3.6405,3.6405,3.6405,3.6908,3.7186,3.7186,3.7688,3.8015,3.8015,3.7914,3.7889,3.7889,3.7337,3.6527,3.54,3.54,3.5159,3.4727,3.4727,3.5307,3.6358,3.521,3.5331,3.6358,0.0,0.0,3.631,3.5162,3.4581,3.4288,3.3105,3.2632,3.2632,3.2632,3.2632,3.2632,0.0,0.0,0.0,0.0,0.0,0.0,0.0,0.0,0.0,0.0,0.0,0.0,0.0,0.0,0.0,0.0,0.0,2.9804,2.9804,2.9804,2.9804,2.9804,2.9804,2.9804,2.9804,2.9804,2.9804,2.9804,2.9804,2.9804,2.9804,2.9804,2.9804,2.9804,2.9804,2.9804,2.9804,2.9804,2.9804,2.9804,2.9804,0.0,0.0,0.0,0.0,0.0,0.0,0.0,0.0,2.9804,2.9804,2.9804,2.9804,0.0,0.0,0.0,0.0,0.0,2.9804,2.9663,2.9585,2.974,2.9663,2.9585,2.974,2.9804,2.9804,2.9804,3.0038,3.0433,3.1145,3.0579,3.0683,3.2628,3.374,3.4574,3.5408,3.6006,3.6405,3.6405,3.6405,3.6405,3.6405,3.6908,3.7186,3.7186,3.7688,3.8015,3.8015,3.7563,3.7312,3.7312,3.6832,3.6436,3.6221,3.6221,3.6196,3.6121,3.6121,3.6216,3.6405,3.6216,3.6216,3.6405,0.0,3.6216,3.6358,3.6168,3.5427,3.4385,3.419,3.4068,3.4068,3.4068,3.4068,3.4068,0.0,0.0,0.0,0.0,0.0,0.0,0.0,0.0,0.0,0.0,0.0,0.0,0.0,0.0,0.0,0.0,2.9804,2.9804,2.9804,2.9804,2.9804,2.9804,2.9804,2.9804,2.9804,2.9804,2.9804,2.9804,2.9804,2.9804,2.9804,2.9804,2.9804,2.9804,2.9804,2.9804,2.9804,2.9804,2.9804,2.9804,0.0,0.0,0.0,0.0,0.0,0.0,0.0,0.0,0.0,0.0,2.9804,2.9804,2.9804,0.0,0.0,0.0,0.0,0.0,2.9804,2.9804,2.9804,2.9804,2.9804,2.9804,2.9804,2.9804,2.988,3.0181,3.0432,3.0859,3.1687,3.1596,3.1927,3.3683,3.4399,3.5027,3.5855,3.6207,3.6405,3.6405,3.6405,3.6405,3.6405,3.6631,3.6782,3.6782,3.6985,3.7111,3.7111,3.6885,3.6782,3.6782,3.6531,3.6405,3.6405,3.6405,3.6405,3.6405,3.6405,3.6405,3.6405,3.6405,3.6405,3.6405,0.0,3.6405,3.6405,3.6405,3.6073,3.5475,3.5475,3.5475,3.5475,3.5475,3.5475,3.5475,0.0,0.0,0.0,0.0,0.0,0.0,0.0,0.0,0.0,0.0,0.0,0.0,0.0,0.0,0.0,0.0,2.9804,2.9804,2.9804,2.9804,2.9804,2.9804,2.9804,2.9804,2.9804,2.9804,2.9804,2.9804,2.9804,2.9804,2.9804,2.9804,2.9804,2.9804,2.9804,2.9804,2.9804,2.9804,2.9804,2.9804,0.0,0.0,0.0,0.0,0.0,0.0,0.0,0.0,0.0,0.0,0.0,0.0,0.0,0.0,0.0,2.9804,2.9804,2.9804,2.9804,2.9804,2.9804,2.9804,2.9804,2.9804,2.9804,2.9905,3.0105,3.0532,3.0809,3.1235,3.2064,3.2441,3.3119,3.463,3.4881,3.5253,3.6279,3.6405,3.6405,3.6405,3.6405,3.6405,3.6405,3.6405,3.6405,3.6405,3.6405,3.6405,3.6405,3.6405,3.6405,3.6405,3.6405,3.6405,3.6405,3.6405,3.6405,3.6405,3.6405,3.6405,3.6405,3.6405,3.6405,3.6405,3.6405,3.6405,3.6405,3.6405,3.6405,3.6405,3.6405,3.6405,3.6405,3.6405,3.6405,3.6405,0.0,0.0,0.0,0.0,0.0,0.0,0.0,0.0,0.0,0.0,0.0,0.0,0.0,0.0,0.0,0.0,2.9804,2.9804,2.9804,2.9804,2.9804,2.9804,2.9804,2.9804,2.9804,2.9804,2.9804,2.9804,2.9804,2.9804,2.9804,2.9804,2.9804,2.9804,2.9804,2.9804,2.9804,2.9804,2.9804,2.9804,2.9804,0.0,0.0,0.0,0.0,0.0,0.0,0.0,0.0,0.0,0.0,0.0,0.0,0.0,2.9804,2.9804,2.9804,2.9804,2.9804,2.9804,2.9804,2.9804,2.9804,2.9804,2.9804,3.0181,3.0557,3.0608,3.1411,3.2114,3.219,3.3068,3.4148,3.5257,3.5433,3.5658,3.6329,3.6405,3.6405,3.6405,3.6405,3.6405,3.6405,3.6405,3.6405,3.6405,3.6405,3.6405,3.6405,3.6405,3.6405,3.6405,3.6405,3.6405,3.6405,3.6405,3.6405,3.6405,3.6405,3.6405,3.6405,3.6405,3.6405,3.6405,3.6405,3.6405,3.6405,3.6405,3.6405,3.6405,3.6405,3.6405,3.6405,3.6405,3.6405,3.6405,0.0,0.0,0.0,0.0,0.0,0.0,0.0,0.0,0.0,0.0,0.0,2.9804,2.9804,0.0,0.0,0.0,2.9804,2.9804,2.9804,2.9804,2.9804,2.9804,2.9804,2.9804,2.9804,2.9804,2.9804,2.9804,2.9804,2.9804,2.9804,2.9804,2.9804,2.9804,2.9804,2.9804,2.9804,2.9804,2.9804,2.9804,2.9804,2.9804,0.0,0.0,0.0,0.0,0.0,0.0,0.0,0.0,2.9804,2.9804,2.9804,2.9804,2.9804,2.9804,2.9804,2.9804,2.9804,2.9804,2.9804,2.9804,3.0055,3.0206,2.988,3.0206,3.0708,3.1035,3.1687,3.2416,3.3144,3.3621,3.4248,3.5332,3.5508,3.5683,3.6329,3.6405,3.6405,3.6405,3.6405,3.6405,3.6405,3.6405,3.6405,3.6405,3.6405,3.6405,3.6405,3.6405,3.6405,3.6405,3.6405,3.6405,3.6405,3.6405,3.6405,3.6405,3.6405,3.6405,3.6405,3.6405,3.6405,3.6405,3.6405,3.6405,3.6405,3.6405,3.6405,3.6405,3.6405,3.6405,3.6405,3.6405,3.6405,3.6405,0.0,0.0,0.0,0.0,0.0,0.0,0.0,0.0,2.9804,0.0,0.0,0.0,0.0,2.9804,0.0,0.0,2.9804,2.9804,2.9804,2.9804,2.9804,2.9804,2.9804,2.9804,2.9804,2.9804,2.9804,2.9804,2.9804,2.9804,2.9804,2.9804,2.9804,2.9804,2.9804,2.9804,2.9804,2.9804,2.9804,2.9804,2.9804,2.9804,0.0,0.0,0.0,0.0,0.0,0.0,0.0,0.0,2.9804,2.9804,2.9804,2.9804,2.9804,2.9804,2.9804,2.9804,2.9804,2.9804,2.9804,2.9804,3.008,3.0306,3.0105,3.0608,3.121,3.1587,3.224,3.3043,3.3997,3.4299,3.4726,3.5655,3.5805,3.5931,3.6355,3.6405,3.6405,3.6405,3.6405,3.6405,3.6405,3.6405,3.6405,3.6405,3.6405,3.6405,3.6405,3.6405,3.6405,3.6405,3.6405,3.6405,3.6405,3.6405,3.6405,3.6405,3.6405,3.6405,3.6405,3.6405,3.6405,3.6405,3.6405,3.6405,3.6405,3.6405,3.6405,3.6405,3.6405,3.6405,3.6405,3.6405,3.6405,3.6405,0.0,0.0,0.0,0.0,0.0,0.0,0.0,0.0,2.9804,2.9804,2.9804,0.0,0.0,0.0,0.0,0.0,2.9804,2.9804,2.9804,2.9804,2.9804,2.9804,2.9804,2.9804,2.9804,2.9804,2.9804,2.9804,2.9804,2.9804,2.9804,2.9804,2.9804,2.9804,2.9804,2.9804,2.9804,2.9804,2.9804,2.9804,2.9804,2.9804,2.9804,0.0,0.0,0.0,0.0,0.0,0.0,0.0,2.9804,2.9804,2.9804,2.9804,2.9804,2.9804,2.9804,2.9804,2.9804,2.9804,2.9804,2.9804,2.9804,2.9955,3.0507,3.1436,3.2215,3.2215,3.3119,3.4073,3.4625,3.5132,3.5683,3.6329,3.6405,3.6405,3.6405,3.6405,3.6405,3.6405,3.6405,3.6405,3.6405,3.6405,3.6405,3.6405,3.6405,3.6405,3.6405,3.6405,3.6405,3.6405,3.6405,3.6405,3.6405,3.6405,3.6405,3.6405,3.6405,3.6405,3.6405,3.6405,3.6405,3.6405,3.6405,3.6405,3.6405,3.6405,3.6405,3.6405,3.6405,3.6405,3.6405,3.6405,3.6405,3.6405,0.0,0.0,0.0,0.0,0.0,0.0,0.0,0.0,2.9804,2.9804,2.9804,0.0,0.0,0.0,0.0,0.0,0.0,2.9804,2.9804,2.9804,2.9804,2.9804,2.9804,2.9804,2.9804,2.9804,2.9804,2.9804,2.9804,2.9804,2.9804,2.9804,2.9804,2.9804,2.9804,2.9804,2.9804,2.9804,2.9804,2.9804,2.9804,2.9804,2.9804,0.0,0.0,0.0,0.0,0.0,0.0,0.0,0.0,0.0,2.9804,2.9804,2.9804,2.9804,2.9804,2.9804,2.9804,2.9804,2.9804,2.9804,3.0357,3.0959,3.1135,3.1411,3.1863,3.2667,3.3395,3.4073,3.4625,3.5132,3.5683,3.6329,3.6405,3.6405,3.6405,3.6405,3.6405,3.6405,3.6405,3.6405,3.6405,3.6405,3.6405,3.6405,3.6405,3.6405,3.6405,3.6405,3.6405,3.6405,3.6405,3.6405,3.6405,3.6405,3.6405,3.6405,3.6405,3.6405,3.6405,3.6405,3.6405,3.6405,3.6405,3.6405,3.6405,3.6405,3.6405,3.6405,3.6405,3.6405,3.6405,3.6405,3.6405,3.6405,0.0,0.0,0.0,0.0,0.0,0.0,2.9804,2.9804,2.9804,2.9804,2.9804,2.9804,0.0,0.0,0.0,2.9804,2.9804,0.0,2.9804,2.9804,2.9804,2.9804,2.9804,2.9804,2.9804,2.9804,2.9804,2.9804,2.9804,2.9804,2.9804,2.9804,2.9804,2.9804,2.9804,2.9804,2.9804,2.9804,2.9804,2.9804,2.9804,2.9804,2.9804,0.0,0.0,0.0,0.0,0.0,0.0,0.0,0.0,0.0,2.9804,2.9804,2.9804,2.9804,2.9804,2.9804,2.9804,2.9804,2.9804,2.9804,3.0457,3.1185,3.1612,3.1888,3.224,3.2986,3.3696,3.4324,3.463,3.5353,3.5981,3.6355,3.6405,3.6405,3.6405,3.6405,3.6405,3.6405,3.6405,3.6405,3.6405,3.6405,3.6405,3.6405,3.6405,3.6405,3.6405,3.6405,3.6405,3.6405,3.6405,3.6405,3.6405,3.6405,3.6405,3.6405,3.6405,3.6405,3.6405,3.6405,3.6405,3.6405,3.6405,3.6405,3.6405,3.6405,3.6405,3.6405,3.6405,3.6405,3.6405,3.6405,3.6405,3.6405,0.0,0.0,2.9804,2.9804,0.0,0.0,2.9804,2.9804,2.9804,2.9804,2.9804,2.9804,0.0,0.0,0.0,2.9804,2.9804,2.9804,2.9804,2.9804,2.9804,2.9804,2.9804,2.9804,2.9804,2.9804,2.9804,2.9804,2.9804,2.9804,2.9804,2.9804,2.9804,2.9804,2.9804,2.9804,2.9804,2.9804,2.9804,2.9804,2.9804,2.9804,2.9804,2.9804,0.0,0.0,0.0,0.0,0.0,0.0,0.0,0.0,2.9804,2.9804,2.9804,2.9804,2.9804,2.9804,2.9804,2.9804,2.9804,2.9804,3.0256,3.0959,3.2039,3.2692,3.3111,3.3111,3.3947,3.468,3.468,3.5629,3.6405,3.6405,3.6405,3.6405,3.6405,3.6405,3.6405,3.6405,3.6405,3.6405,3.6405,3.6405,3.6405,3.6405,3.6405,3.6405,3.6405,3.6405,3.6405,3.6405,3.6405,3.6405,3.6405,3.6405,3.6405,3.6405,3.6405,3.6405,3.6405,3.6405,3.6405,3.6405,3.6405,3.6405,3.6405,3.6405,3.6405,3.6405,3.6405,3.6405,3.6405,3.6405,3.6405,3.6405,0.0,0.0,2.9804,2.9804,0.0,0.0,2.9804,2.9804,2.9804,2.9804,2.9804,2.9804,2.9804,2.9804,0.0,2.9804,2.9804,2.9804,2.9804,2.9804,2.9804,2.9804,2.9804,2.9804,2.9804,2.9804,2.9804,2.9804,2.9804,2.9804,2.9804,2.9804,2.9804,2.9804,2.9804,2.9804,2.9804,2.9804,2.9804,2.9804,2.9804,2.9804,2.9804,2.9804,2.9804,0.0,0.0,0.0,0.0,0.0,0.0,0.0,2.9804,2.9804,2.9804,2.9804,2.9804,2.9804,2.9804,2.9804,2.9804,2.9804,3.0507,3.1512,3.2641,3.2993,3.3111,3.3111,3.3947,3.468,3.468,3.5629,3.6405,3.6405,3.6405,3.6405,3.6405,3.6405,3.6405,3.6405,3.6405,3.6405,3.6405,3.6405,3.6405,3.6405,3.6405,3.6405,3.6405,3.6405,3.6405,3.6405,3.6405,3.6405,3.6405,3.6405,3.6405,0.0,3.6405,3.6405,3.6405,3.6405,3.6405,3.6405,3.6405,3.6405,3.6405,3.6405,3.6405,3.6405,3.6405,3.6405,3.6405,3.6405,3.6405,3.6405,0.0,0.0,0.0,0.0,0.0,0.0,0.0,0.0,2.9804,2.9804,2.9804,2.9804,2.9804,2.9804,0.0,0.0,2.9804,2.9804,2.9804,2.9804,2.9804,2.9804,2.9804,2.9804,2.9804,2.9804,2.9804,2.9804,2.9804,2.9804,2.9804,2.9804,2.9804,2.9804,2.9804,2.9804,2.9804,2.9804,2.9804,2.9804,2.9804,2.9804,2.9804,2.9804,2.9804,2.9804,2.9804,0.0,0.0,0.0,0.0,0.0,0.0,0.0,2.9804,2.9804,2.9804,2.9804,2.9804,2.9804,2.9905,3.0432,3.0984,3.1687,3.286,3.3111,3.3111,3.3111,3.3746,3.4399,3.4675,3.5403,3.6056,3.6355,3.6405,3.6405,3.6405,3.6405,3.6405,3.6405,3.6405,3.6405,3.6405,3.6405,3.6405,3.6405,3.6405,3.6405,3.6405,3.6405,3.6405,3.6405,3.6405,3.6405,3.6405,3.6405,3.6405,3.6405,3.6405,3.6405,3.6405,3.6405,3.6405,3.6405,3.6405,3.6405,3.6405,3.6405,3.6405,3.6405,3.6405,3.6405,3.6405,3.6405,3.6405,3.6405,0.0,0.0,0.0,0.0,0.0,0.0,0.0,0.0,0.0,2.9804,2.9804,2.9804,2.9804,2.9804,2.9804,0.0,0.0,0.0,2.9804,2.9804,2.9804,2.9804,2.9804,2.9804,2.9804,2.9804,2.9804,2.9804,2.9804,2.9804,2.9804,2.9804,2.9804,2.9804,2.9804,2.9804,2.9804,2.9804,2.9804,2.9804,2.9804,2.9804,2.9804,2.9804,2.9804,2.9804,2.9804,2.9804,2.9804,2.9804,0.0,0.0,0.0,0.0,2.9804,2.9804,2.9804,2.9804,2.9804,2.9804,3.0055,3.111,3.1386,3.1687,3.286,3.3111,3.3111,3.3111,3.352,3.4048,3.45,3.5056,3.5633,3.6132,3.6355,3.6405,3.6405,3.6405,3.6405,3.6405,3.6405,3.6405,3.6405,3.6405,3.6405,3.6405,3.6405,3.6405,3.6405,3.6405,3.6405,3.6405,3.6405,3.6405,3.6405,3.6405,3.6405,3.6405,3.6405,3.6405,3.6405,3.6405,3.6405,3.6405,3.6405,3.6405,3.6405,3.6405,3.6405,3.6405,3.6405,3.6405,3.6405,3.6405,3.6405,3.6405,0.0,0.0,0.0,0.0,0.0,0.0,0.0,0.0,0.0,0.0,2.9804,2.9804,2.9804,2.9804,2.9804,2.9804,2.9804,2.9804,2.9804,0.0,0.0,2.9804,2.9804,2.9804,2.9804,2.9804,2.9804,2.9804,2.9804,2.9804,2.9804,2.9804,2.9804,2.9804,2.9804,2.9804,2.9804,2.9804,2.9804,2.9804,2.9804,2.9804,2.9804,2.9804,2.9804,2.9804,2.9804,2.9804,2.9804,2.9804,2.9804,0.0,0.0,0.0,2.9804,2.9804,2.9804,2.9804,2.9804,2.9804,3.0055,3.111,3.1386,3.1687,3.286,3.3111,3.3111,3.3111,3.352,3.3922,3.3997,3.4806,3.5533,3.5608,3.6056,3.6405,3.6405,3.6405,3.6405,3.6405,3.6405,3.6405,3.6405,3.6405,3.6405,3.6405,3.6405,3.6405,3.6405,3.6405,3.6405,3.6405,3.6405,3.6405,3.6405,3.6405,3.6405,3.6405,3.6405,3.6405,3.6405,3.6405,3.6405,3.6405,3.6405,3.6405,3.6405,3.6405,3.6405,3.6405,3.6405,3.6405,3.6405,3.6405,3.6405,3.6405,0.0,0.0,0.0,0.0,0.0,0.0,0.0,0.0,0.0,0.0,0.0,3.0256,3.0256,2.998,2.9804,2.9804,2.9804,2.9804,2.9804,2.9804,2.9804,2.9804,2.9804,2.9804,2.9804,2.9804,2.9804,2.9804,2.9804,2.9804,2.9804,2.9804,2.9804,2.9804,2.9804,2.9804,2.9804,2.9804,2.9804,2.9804,2.9804,2.9804,2.9804,2.9804,2.9804,2.9804,2.9804,2.9804,2.9804,2.9804,2.9804,2.9804,2.9804,0.0,0.0,0.0,2.9804,2.9804,2.9804,2.9804,2.998,3.0758,3.1185,3.1587,3.2416,3.2842,3.3111,3.3111,3.3269,3.352,3.3847,3.4299,3.4781,3.5408,3.5708,3.6006,3.6355,3.6405,3.6405,3.6405,3.6405,3.6405,3.6405,3.6405,3.6405,3.6405,3.6405,3.6405,3.6405,3.6405,3.6405,3.6405,3.6405,3.6405,3.6405,3.6405,3.6405,3.6405,3.6405,3.6405,3.6405,3.6405,3.6405,3.6405,3.6405,3.6405,3.6405,3.6405,3.6405,3.6405,3.6405,3.6405,3.6405,3.6405,3.6405,3.6405,0.0,0.0,0.0,0.0,0.0,0.0,0.0,0.0,0.0,0.0,0.0,3.0809,3.0809,0.0,0.0,0.0,3.0206,3.0206,3.0206,3.008,3.0005,3.0005,2.9854,2.9804,2.9804,2.9804,2.9804,2.9804,2.9804,2.9804,2.9804,2.9804,2.9804,2.9804,2.9804,2.9804,2.9804,2.9804,2.9804,2.9804,2.9804,2.9804,2.9804,2.9804,2.9804,2.9804,2.9804,2.9804,2.9804,2.9804,2.9804,2.9804,2.9804,2.9804,0.0,0.0,0.0,2.9804,2.9804,2.9804,2.993,3.0482,3.1009,3.1537,3.2089,3.2667,3.3111,3.3111,3.3111,3.3194,3.3621,3.3796,3.4173,3.4956,3.5207,3.5433,3.5881,3.5956,3.6006,3.6132,3.6157,3.6207,3.6405,3.6405,3.6405,3.6405,3.6405,3.6405,3.6405,3.6405,3.6405,3.6405,3.6405,3.6405,3.6405,3.6405,3.6405,3.6405,3.6405,3.6405,3.6405,3.6405,3.6405,3.6405,3.6405,3.6405,3.6405,3.6405,3.6405,3.6405,3.6405,3.6405,3.6405,3.6405,3.6405,3.6405,0.0,0.0,0.0,0.0,0.0,0.0,0.0,0.0,0.0,0.0,0.0,3.1361,3.1361,3.1311,3.1311,3.1311,3.1311,3.1311,3.1311,3.0859,3.0583,3.0583,3.008,0.0,2.9804,2.9804,2.9804,2.9804,2.9804,2.9804,2.9804,2.9804,2.9804,2.9804,2.9804,2.9804,2.9804,2.9804,2.9804,2.9804,2.9804,2.9804,2.9804,2.9804,2.9804,2.9804,2.9804,2.9804,2.9804,2.9804,2.9804,2.9804,2.9804,2.9804,2.9804,0.0,0.0,0.0,2.9804,2.9804,2.993,3.0482,3.1009,3.1537,3.2089,3.2667,3.3111,3.3111,3.3111,3.3136,3.3162,3.3545,3.3922,3.3972,3.4424,3.4731,3.4801,3.4801,3.5002,3.5483,3.5533,3.578,3.6355,3.6405,3.6405,3.6405,3.6405,3.6405,3.6405,3.6405,3.6405,3.6405,3.6405,3.6405,3.6405,3.6405,3.6405,3.6405,3.6405,3.6405,3.6405,3.6405,3.6405,3.6405,3.6405,3.6405,3.6405,3.6405,3.6405,3.6405,3.6405,3.6405,3.6405,3.6405,3.6405,3.6405,0.0,0.0,0.0,0.0,0.0,0.0,0.0,0.0,0.0,0.0,0.0,0.0,0.0,3.1612,3.1386,3.1386,3.1386,3.1386,3.1386,3.121,3.111,3.111,3.0934,3.0809,3.0809,3.0482,3.0306,3.0306,2.9955,2.9804,2.9804,2.9804,2.998,3.0306,2.9955,2.9804,2.9804,2.9804,2.9804,2.9804,2.9804,2.9804,2.9804,2.9804,2.9804,2.9804,2.9804,2.9804,2.9804,2.9804,2.9804,2.9804,2.9804,2.9804,2.9804,2.9804,2.9804,2.9804,2.9804,2.9804,2.9854,3.003,3.0482,3.1035,3.1562,3.2114,3.2616,3.2993,3.3111,3.3111,3.3111,3.3244,3.3495,3.3847,3.4073,3.4324,3.4675,3.468,3.4756,3.4956,3.4981,3.5102,3.5303,3.5629,3.583,3.583,3.6157,3.6405,3.6405,3.6405,3.6405,3.6405,3.6405,3.6405,3.6405,3.6405,3.6405,3.6405,3.6405,3.6405,3.6405,3.6405,3.6405,3.6405,3.6405,3.6405,3.6405,3.6405,3.6405,3.6405,3.6405,3.6405,3.6405,3.6405,3.6405,3.6405,0.0,0.0,0.0,3.3111,0.0,3.3111,3.3111,3.3111,3.3111,3.3111,0.0,0.0,0.0,0.0,3.1964,3.1964,3.1964,3.1964,3.1964,3.1763,3.1662,3.1662,3.1486,3.1386,3.1386,3.0884,3.0708,3.0884,3.0331,3.0156,3.0331,3.0331,3.0532,3.0859,3.0507,3.0331,3.0331,3.0331,3.0331,3.0306,3.0131,3.0181,3.0306,3.0131,3.0181,3.0331,3.0331,3.0206,3.008,3.008,2.9955,2.9804,2.9804,2.9804,2.9856,3.0177,3.0292,3.0292,3.0292,3.0292,3.0292,3.0292,3.0662,3.1173,3.153,3.2194,3.2733,3.2777,3.2943,3.3111,3.3111,3.3111,3.3194,3.3571,3.3621,3.3746,3.4123,3.4173,3.4248,3.4424,3.4449,3.4525,3.4655,3.5006,3.5232,3.5232,3.5604,0.0,3.6081,3.6081,3.6182,3.6405,3.6405,3.6405,3.6405,3.6405,3.6405,3.6405,3.6405,3.6405,3.6405,3.6405,3.6405,3.6405,3.6405,3.6405,3.6405,3.6405,3.6405,3.6405,3.6405,3.6405,3.6405,3.6405,3.6405,3.6405,3.3111,3.3111,3.3111,3.3111,3.3111,3.3111,3.3111,3.3111,3.3111,3.3111,0.0,0.0,0.0,0.0,0.0,3.3111,3.3111,3.3111,3.3111,3.2541,3.224,3.224,3.1738,3.1436,3.1436,3.0934,3.0909,3.1411,3.0884,3.0909,3.1386,3.1386,3.1411,3.1411,3.1411,3.1411,3.1436,3.1411,3.1386,3.1336,3.0834,3.0934,3.1336,3.0834,3.0959,3.1386,3.1386,3.106,3.0633,3.0633,3.0281,2.9829,2.9868,2.9882,3.0062,3.097,3.1241,3.1241,0.0,0.0,0.0,3.1241,3.1627,3.2011,3.2038,3.2896,3.3375,3.244,3.2709,3.3068,3.3111,3.3111,3.3111,3.3111,3.3111,3.3111,3.3111,3.3111,3.3269,3.3796,3.3872,3.4098,3.4625,3.47,3.47,3.47,3.468,3.4906,3.5458,3.5483,3.578,3.6355,3.6405,3.6405,3.6405,3.6405,3.6405,3.6405,3.6405,3.6405,3.6405,3.6405,3.6405,3.6405,3.6405,3.6405,3.6405,3.6405,3.6405,3.6405,3.6405,3.6405,3.6405,3.6405,3.6405,3.6405,3.3111,3.3111,3.3111,3.3111,3.3111,3.3111,3.3111,3.3111,3.3111,0.0,0.0,0.0,3.3111,3.3111,3.3111,3.3111,3.3111,3.3111,3.3111,3.2918,3.2842,3.2842,3.2692,3.2616,3.2616,3.2064,3.1838,3.1989,3.1436,3.126,3.1386,3.1386,3.1612,3.1989,3.1989,3.2215,3.2608,3.1738,3.1386,3.1386,3.1235,3.126,3.1361,3.1235,3.126,3.1386,3.1386,3.1286,3.1185,3.1185,3.1085,3.1019,3.1293,3.1585,3.1865,3.2155,3.22,3.22,3.22,0.0,0.0,0.0,0.0,0.0,3.2917,3.2733,3.262,3.3164,3.2858,3.2566,3.2993,3.3111,3.3111,3.3111,3.3111,3.3111,3.3111,3.3111,3.3187,3.3294,3.3294,3.337,3.352,3.3897,3.4123,0.0,3.45,3.4731,3.4906,3.5282,3.5583,3.5755,3.6157,3.6405,3.6405,3.6405,3.6405,3.6405,3.6405,3.6405,3.6405,3.6405,3.6405,3.6405,3.6405,3.6405,3.6405,3.6405,3.6405,3.6405,3.6405,3.6405,3.6405,3.6405,3.6405,3.6405,3.3111,3.3111,3.3111,3.3111,3.3111,3.3111,3.3111,3.3111,3.3111,0.0,0.0,0.0,3.3111,3.3111,3.3111,3.3111,3.3111,3.3111,3.3111,3.3111,3.3111,3.3111,3.3111,3.3111,3.3111,3.2516,3.234,3.2566,3.2014,3.1863,3.2089,3.2089,3.2265,3.2566,3.2566,3.2767,3.3086,3.2365,3.2089,3.2064,3.1838,3.1863,3.2064,3.1813,3.1888,3.2089,3.2089,3.1938,3.1738,3.1738,3.1889,3.2117,3.2345,3.2701,3.3088,3.348,3.3417,3.3157,3.3157,3.3157,3.3157,3.3157,0.0,0.0,3.3599,3.3412,3.3281,3.353,3.3291,3.3259,3.3875,3.4047,3.396,3.3801,3.3742,3.3598,3.3154,3.3111,3.3111,3.3111,3.3111,3.3111,3.3111,3.337,3.3545,3.3545,3.3847,3.4148,3.4374,3.4856,3.5257,3.5483,3.5855,3.6132,3.6405,3.6405,3.6405,3.6405,3.6405,3.6405,3.6405,3.6405,3.6405,3.6405,3.6405,3.6405,3.6405,3.6405,3.6405,3.6405,3.6405,3.6405,3.6405,3.6405,3.6405,3.6405,0.0,3.3111,3.3111,3.3111,3.3111,3.3111,3.3111,3.3111,3.3111,0.0,3.3111,3.3111,3.3111,3.3111,3.3111,3.3111,3.3111,3.3111,3.3111,3.3111,3.3111,3.3111,3.3111,3.3111,3.3111,3.2566,3.2566,3.3111,3.2566,3.2566,3.3111,3.3111,3.3111,3.3111,3.3111,3.3111,3.3111,3.3111,3.3111,3.3043,3.2516,3.2616,3.3061,3.2516,3.2616,3.3111,3.3111,3.2742,3.2315,3.2315,3.2735,3.3276,3.3276,3.3587,3.4169,3.4957,3.4761,3.4264,3.4206,3.4177,3.4177,3.4177,3.4177,0.0,3.4177,3.4502,3.4554,3.3759,3.391,3.4413,3.5058,3.5168,3.5089,3.4713,3.467,3.4271,3.3258,3.3111,3.3111,3.3111,3.3111,3.3111,3.3111,3.3111,3.3111,3.3111,3.3111,3.3294,3.3796,3.4324,3.4806,3.5307,3.5382,3.5705,3.6304,3.6329,3.6355,3.6405,3.6405,3.6405,3.6405,3.6405,3.6405,3.6405,3.6405,3.6405,3.6405,3.6405,3.6405,3.6405,3.6405,3.6405,3.6405,3.6405,3.6405,3.6405,3.3111,3.3111,3.3111,3.3111,3.3111,3.3111,3.3111,3.3111,3.3111,3.3111,3.3111,3.3111,3.3111,3.3111,3.3111,3.3111,3.3111,3.3111,3.3111,3.3111,3.3111,3.3111,3.3111,3.3111,3.3111,3.2968,3.2968,3.3111,3.2968,3.2968,3.3111,3.3111,3.3111,3.3111,3.3111,3.3111,3.3111,3.3111,3.3111,3.3111,3.2943,3.2968,3.3111,3.2943,3.2993,3.3111,3.3111,3.2993,3.2893,3.2893,3.3796,3.4881,3.4881,3.5682,3.6596,3.6293,3.6123,3.5882,3.5347,3.5198,3.5198,3.5198,3.5198,0.0,3.5198,3.4693,3.4255,3.4561,3.4052,3.3753,3.4386,3.4524,3.4475,3.4394,3.4383,3.4072,3.3242,3.3111,3.3111,3.3111,3.3111,3.3111,3.3111,3.3111,3.3111,3.3111,3.3111,3.3162,3.3244,3.3746,3.4123,3.4223,3.465,3.5107,3.5658,3.5658,3.5931,3.6405,3.6405,3.6405,3.6405,3.6405,3.6405,3.6405,3.6405,3.6405,3.6405,3.6405,3.6405,3.6405,3.6405,3.6405,3.6405,3.6405,3.6405,3.6405,3.3111,3.3111,3.3111,3.3111,3.3111,3.3111,3.3111,3.3111,3.3111,3.3111,3.3111,3.3111,3.3111,3.3111,3.3111,3.3111,3.3111,3.3111,3.3111,3.3111,3.3111,3.3111,3.3111,3.3111,3.3111,3.3111,3.3111,3.3111,3.3111,3.3111,3.3111,3.3111,3.3111,3.3111,3.3111,3.3111,3.3111,3.3111,3.3111,3.3111,3.3111,3.3111,3.3111,3.3111,3.3111,3.3111,3.3111,3.3111,3.3197,3.3725,3.4725,3.5848,3.6378,3.7179,3.7853,3.7524,3.7195,3.6806,3.6178,3.5998,3.5908,3.5579,3.5519,0.0,0.0,3.51,3.4827,3.5116,3.4801,3.4634,3.5295,3.541,3.5318,3.5122,3.5077,3.4778,3.3847,3.3524,3.3518,3.3843,3.3428,3.3111,3.3111,3.3111,3.3111,3.3111,3.3111,3.3111,3.3111,3.3345,3.3621,3.3897,3.4173,3.47,3.5483,3.5508,3.5805,3.6405,3.6405,3.6405,3.6405,3.6405,3.6405,3.6405,3.6405,3.6405,3.6405,3.6405,3.6405,3.6405,3.6405,3.6405,3.6405,3.6405,3.6405,3.6405,3.3162,3.3111,3.3111,3.3111,3.3111,3.3111,3.3111,3.3111,3.3111,3.3111,3.3111,3.3111,3.3111,3.3111,3.3111,3.3111,3.3111,3.3111,3.3111,3.3111,3.3111,3.3111,3.3111,3.3111,3.3111,3.3111,3.3111,3.3111,3.3111,3.3111,3.3111,3.3111,3.3111,3.3111,3.3111,3.3111,3.3111,3.3111,3.3111,3.3136,3.3194,3.3244,3.3244,3.3345,3.3395,3.3395,3.3395,3.3492,3.3692,3.4716,3.571,3.6671,3.7691,3.8282,3.8571,3.8422,3.8003,3.7464,3.6836,3.6656,3.6507,3.5848,3.5699,3.5669,0.0,0.0,0.0,3.5519,3.5519,3.5669,3.6207,3.6297,3.6212,3.5892,0.0,0.0,0.0,3.4274,0.0,3.4579,3.3804,3.3191,3.3191,3.3147,3.3111,3.3111,3.3111,3.3111,3.3111,3.3111,3.3294,3.3721,3.3746,3.4223,3.5182,3.5282,3.5655,3.6207,3.6355,3.6405,3.6405,3.6405,3.6405,3.6405,3.6405,3.6405,3.6405,3.6405,3.6405,3.6405,3.6405,3.6405,3.6405,3.6405,3.6405,3.6405,3.3269,3.3111,3.3111,3.3111,3.3111,3.3111,3.3111,3.3111,3.3111,3.3111,3.3111,3.3111,3.3111,3.3111,3.3111,3.3111,3.3111,3.3111,3.3111,3.3111,3.3111,3.3111,3.3111,3.3111,3.3111,3.3111,3.3111,3.3111,3.3111,3.3111,3.3111,3.3111,3.3111,3.3111,3.3111,3.3111,3.3111,3.3111,3.3111,3.3162,3.3621,3.3796,3.3847,3.4349,3.4525,3.4525,3.4525,3.4835,3.5352,3.6065,3.6879,3.7711,3.8438,3.8956,3.917,3.8571,3.8332,3.8123,3.7494,3.7315,3.7165,3.6537,3.6387,3.6207,3.5639,0.0,3.5519,3.5519,0.0,3.5519,3.5609,0.0,0.0,3.5535,3.5535,0.0,3.6175,3.5404,3.4635,3.4393,3.3926,3.3628,3.3628,3.3292,3.3111,3.3111,3.3111,3.3111,3.3111,3.3111,3.3136,3.3212,3.3212,3.347,3.4073,3.4575,3.5056,3.5608,3.6132,3.6405,3.6405,3.6405,3.6405,3.6405,3.6405,3.6405,3.6405,3.6405,3.6405,3.6405,3.6405,3.6405,3.6405,3.6405,3.6405,3.6405,3.4231,3.4022,3.4022,3.4022,3.4022,3.4022,3.4022,3.4022,3.4022,3.4022,3.4022,3.4022,3.4022,3.4022,3.4022,3.4022,3.3746,3.3696,3.4022,3.3445,3.3262,3.3545,3.3244,3.3111,3.3111,3.3111,3.3111,3.3111,3.3111,3.3111,3.3111,3.3111,3.3111,3.3111,3.3111,3.3111,3.3093,3.342,3.3545,3.3621,3.45,3.4806,3.4806,3.4705,3.468,3.468,3.468,3.4819,3.5278,3.6844,3.7621,3.8145,3.9361,3.9854,3.9858,3.92,3.899,3.8841,3.8153,3.7973,3.7823,3.7195,3.7015,3.6866,3.6207,0.0,3.5968,3.5579,0.0,0.0,0.0,0.0,0.0,0.0,3.5519,3.5609,0.0,0.0,3.5228,3.522,0.0,0.0,3.3739,3.3043,3.2717,3.3043,3.3111,3.3111,3.3111,3.3111,3.3111,3.3111,3.3111,3.3345,3.3897,3.4449,3.4956,3.5508,3.6107,3.6405,3.6405,3.6405,3.6405,3.6405,3.6405,3.6405,3.6405,3.6405,3.6405,3.6405,3.6405,3.6405,3.6405,3.6405,3.6405,3.6405,3.5808,3.5398,3.5105,3.4771,3.497,3.5105,3.4771,3.468,3.468,3.468,3.468,3.468,3.468,3.468,3.468,3.468,3.4635,3.4629,3.47,3.4299,3.4063,3.4098,3.3596,3.3294,3.3294,3.3187,3.3111,3.3111,3.3111,3.3111,3.3111,3.3111,3.3111,3.3111,3.3111,3.3169,3.3319,3.3721,3.3997,3.4198,3.5107,3.5583,3.573,3.5328,3.5177,3.5223,3.5517,3.5705,3.6199,3.8294,3.8974,0.0,4.0305,4.0546,4.0277,3.9619,3.9373,3.932,3.8811,3.8661,3.8512,0.0,0.0,0.0,0.0,0.0,0.0,0.0,0.0,0.0,0.0,0.0,3.5519,3.5519,0.0,3.5519,3.5519,3.5519,3.5585,0.0,0.0,0.0,0.0,3.3207,3.2895,3.3233,0.0,3.3504,3.3111,3.3386,3.3386,3.3111,3.3111,3.3269,3.3671,3.4223,3.4731,3.5282,3.5881,3.6254,3.6405,3.6405,3.6405,3.6405,3.6405,3.6405,3.6405,3.6405,3.6405,3.6405,3.6405,3.6405,3.6405,3.6405,3.6405,3.6405,3.8009,3.7157,3.6044,3.4881,3.5675,3.6044,3.4881,3.468,3.468,3.468,3.468,3.468,3.468,3.468,3.468,3.468,3.5737,3.5913,3.4771,3.5781,3.5887,3.4745,3.4173,3.3872,3.3872,3.3345,3.3111,3.3111,3.3111,3.3111,3.3111,3.3111,3.3111,3.3111,3.3111,3.337,3.3872,3.3897,3.4198,3.4705,3.5282,3.5855,3.638,3.6355,3.6355,3.6471,3.758,0.0,0.0,4.0884,4.1397,0.0,0.0,0.0,0.0,0.0,0.0,0.0,0.0,0.0,0.0,3.8542,0.0,0.0,0.0,0.0,3.6477,0.0,0.0,0.0,3.5519,3.5519,3.5519,3.5519,3.5519,0.0,0.0,3.5519,3.5487,3.5517,3.5151,0.0,0.0,3.4245,3.4097,0.0,3.4642,3.4634,3.3172,3.4079,3.4163,3.3111,3.3111,3.3136,3.3136,3.3646,3.4198,3.4705,3.5257,3.5855,3.6405,3.6405,3.6405,3.6405,3.6405,3.6405,3.6405,3.6405,3.6405,3.6405,3.6405,3.6405,3.6405,3.6405,3.6405,3.6405,3.8107,3.846,3.8148,3.6151,3.6813,3.7437,3.7014,3.6335,3.6105,3.6832,3.6289,3.5805,3.5805,3.5805,3.6105,3.6878,3.6296,3.6154,3.6897,3.6683,3.6095,3.5253,3.548,3.5216,3.4449,3.4248,3.4324,3.4666,3.3987,3.3784,3.4163,3.3428,3.3111,3.3136,3.3445,3.3721,3.3947,3.4675,3.5056,3.5282,3.5855,3.6671,3.7448,3.6662,3.6405,3.6546,3.7678,3.8201,0.0,4.0873,4.1575,4.1613,4.1939,4.1901,4.1512,4.0397,4.0068,0.0,0.0,0.0,3.9379,3.914,0.0,0.0,0.0,0.0,0.0,0.0,0.0,0.0,0.0,3.5789,3.5519,3.5519,3.5519,3.5519,0.0,3.5519,3.5519,3.5519,3.4781,3.4409,0.0,0.0,0.0,0.0,3.5084,0.0,3.517,3.4856,3.4553,3.4163,3.3471,3.3111,3.3111,3.3621,3.4173,3.4726,3.5232,3.583,3.6405,3.6405,3.6405,3.6405,3.6405,3.6405,3.6405,3.6405,3.6405,3.6405,3.6405,3.6405,3.6405,3.6405,3.6405,3.6405,3.8107,3.8738,3.8649,3.6709,3.701,3.7494,3.7494,3.6896,3.6738,3.764,3.713,3.6782,3.6935,3.6983,3.727,3.8023,3.7433,3.7495,3.8668,3.8265,3.7652,3.6801,3.6776,3.6225,3.5002,3.5251,3.53,3.5219,3.494,3.4995,3.5326,3.4186,3.3908,3.4341,3.4243,3.4299,3.4525,3.5207,3.5608,3.5902,3.6697,3.7448,3.8062,3.7769,3.7658,3.7769,0.0,3.9332,3.964,4.1545,4.2193,4.2228,4.2356,4.241,4.2201,4.1055,4.0576,4.0307,3.9888,3.9553,0.0,3.9373,3.9373,0.0,3.8841,0.0,3.8272,0.0,0.0,0.0,0.0,3.6297,3.5848,3.5848,3.5669,3.5519,0.0,3.5519,3.5519,3.5519,3.4938,3.4685,3.5088,3.4507,3.4525,3.5433,3.5854,3.608,0.0,0.0,3.5061,3.4718,3.4037,3.3683,3.3683,3.3999,3.4561,3.5258,3.5259,3.5655,3.6405,3.6405,3.6405,3.6405,3.6405,3.6405,3.6452,3.6849,3.701,3.7057,3.7474,3.7658,3.7566,3.6709,3.6405,3.6405,3.8107,3.8107,3.7769,3.6713,3.6477,3.6405,3.6524,3.6502,3.6656,3.7232,3.726,3.7412,3.7939,3.8015,3.8064,3.8187,3.9184,3.9876,4.0059,4.0495,4.0304,3.9282,3.8103,3.694,3.5789,3.6348,3.6123,3.4976,3.6096,3.6635,3.6651,3.5436,3.548,3.6565,3.5417,3.5188,3.5575,3.5625,3.5974,3.6593,3.7723,3.8243,3.8424,3.9536,4.0043,4.0189,4.1211,4.1587,4.1753,4.29,4.329,4.32,4.265,4.244,4.2321,4.1662,4.0995,4.0487,4.0427,3.9948,3.9469,3.9403,0.0,0.0,0.0,0.0,3.8452,0.0,0.0,0.0,0.0,3.6956,3.6507,3.6477,3.5938,3.5519,3.5519,3.5519,3.5519,3.5519,3.5519,3.5519,3.5519,3.5519,3.5629,3.5963,3.6827,3.7074,0.0,0.0,3.5787,3.4856,3.4774,3.4774,3.4774,3.4692,3.5257,3.6305,3.5258,3.537,3.6499,3.6546,3.6546,3.6499,3.6546,3.6499,3.6499,3.7632,3.8107,3.8198,3.936,3.9869,3.9623,3.7335,3.6452,3.6405,3.8107,3.8107,3.8103,3.8225,3.7198,3.6814,3.8065,3.7556,3.7498,3.8921,3.835,3.7839,3.799,3.8015,3.8748,4.0602,4.0227,4.0668,4.2535,4.1903,4.1341,4.1114,4.0285,3.9724,3.9456,3.9152,3.9066,3.9103,3.8598,3.856,3.8924,3.7812,3.7476,3.777,3.7853,3.75,3.6843,3.726,3.7547,3.7769,3.8961,3.9972,4.0718,0.0,4.1699,4.2345,4.1823,4.1587,4.1753,4.29,4.329,4.326,4.315,4.309,4.294,4.2351,4.2021,4.1692,4.0666,4.0277,4.0038,3.9493,3.9373,3.9373,0.0,0.0,0.0,0.0,0.0,0.0,0.0,0.0,3.7015,3.6567,3.5938,3.5519,3.5519,3.5519,3.5519,3.5519,3.5519,3.5519,3.5519,3.5519,3.5929,3.6941,3.685,3.7287,3.8532,0.0,0.0,3.6982,3.6212,3.5814,3.5814,3.5102,3.5257,3.6305,3.6131,3.6627,3.7678,3.8559,3.8514,3.7723,3.8604,3.7997,3.6499,3.7632,3.8107,3.8107,3.8424,3.9094,3.9711,3.8198,3.715,3.6405,3.9717,3.9261,3.8978,3.9295,3.8548,3.8093,3.8449,3.795,3.7983,3.9252,3.9329,3.9308,3.9565,4.0057,4.1,4.2342,4.1355,4.1734,4.419,4.2918,4.2369,4.2975,4.2338,4.1735,4.1245,4.1147,4.0971,4.0689,4.0322,4.029,4.0562,3.9452,3.9201,3.966,3.945,3.9015,3.8431,3.8782,3.8872,3.9006,4.0189,4.1042,0.0,4.2152,4.2739,4.321,4.2548,4.2345,4.2426,4.3061,4.329,4.329,4.329,4.329,4.323,4.288,4.262,4.2231,4.1482,4.0846,4.0307,3.9948,3.9619,3.9373,3.9373,3.9373,3.9373,0.0,0.0,0.0,0.0,0.0,0.0,3.6626,3.6178,3.5818,3.5549,3.5519,3.5519,3.5519,3.5519,3.5519,3.5519,3.5519,3.5938,3.6926,3.6686,3.7225,0.0,0.0,0.0,3.7776,3.7214,3.6905,3.6905,3.6358,3.6605,3.777,3.7392,3.7801,3.8917,3.9579,3.9536,3.8917,3.9579,3.9139,3.7997,3.9156,3.964,3.9683,4.0204,4.0462,4.0575,3.9901,3.8577,3.7057,4.1834,4.1012,4.0368,4.0307,4.026,3.996,3.9007,3.8586,3.8614,3.9196,4.032,4.1289,4.1891,4.3073,4.382,4.399,4.29,4.3232,4.5623,4.3945,4.3515,4.4893,4.4153,4.3297,4.2424,4.2754,4.2381,4.1227,4.1709,4.1881,4.1794,4.0788,4.0873,4.1753,4.0788,4.0275,4.0102,4.0102,4.0102,4.0232,4.1337,4.1794,4.1947,4.29,4.329,4.329,4.329,4.329,4.329,4.329,4.329,4.329,4.329,4.329,4.329,4.329,4.294,4.25,4.241,4.1572,4.0636,4.0546,4.0038,3.9559,3.9559,3.9433,3.9373,3.9373,3.9373,3.9373,0.0,0.0,0.0,3.6926,3.6656,3.6417,3.5848,3.5699,3.5639,3.5639,3.5549,0.0,3.5519,3.5519,3.5789,3.6447,3.6417,0.0,0.0,0.0,0.0,3.7965,3.7994,3.7994,3.7994,0.0,3.8438,3.9596,3.8721,3.895,4.0102,4.0275,4.0275,4.0102,4.0275,4.0173,4.0,4.1127,4.1587,4.1711,4.286,4.267,4.1794,4.167,4.0333,3.8379,4.197,4.2402,4.2794,4.2297,4.2194,4.2477,4.3251,4.1608,4.0507,4.1034,4.1805,4.2721,4.3883,4.4691,4.558,4.6661,4.5987,4.6166,4.7689,4.5953,4.547,4.6753,4.52,4.4676,4.5486,4.5048,4.4454,4.3685,4.3801,4.3556,4.2981,4.282,4.282,4.2981,4.278,4.2181,4.1295,4.1295,4.1295,4.142,4.2548,4.2981,4.3021,4.321,4.329,4.329,4.329,4.329,4.329,4.329,4.329,4.329,4.329,4.329,4.329,4.329,4.323,4.303,4.256,4.2231,4.1931,4.1354,4.0726,4.0217,4.0217,3.9798,3.9373,3.9373,3.9373,3.9373,3.9373,0.0,0.0,0.0,0.0,0.0,0.0,3.6626,3.6297,3.6297,3.5848,3.5519,3.5519,3.5519,3.5789,3.6447,3.5998,3.6477,0.0,0.0,0.0,0.0,3.909,0.0,0.0,0.0,3.8438,3.9596,3.9556,4.0134,4.1337,4.2304,4.2222,4.1337,4.2304,4.1657,4.0,4.1127,4.1587,4.1711,4.286,4.317,4.29,4.1947,4.1337,4.0675,4.4762,4.4889,4.4982,4.4674,4.4893,4.51,4.5018,4.4581,4.4063,4.3682,4.4496,4.5295,4.5949,4.6899,4.7712,4.8328,4.7497,4.7461,4.8731,4.7014,4.6454,4.7774,4.6564,4.6166,4.6787,4.6172,4.5663,4.5364,4.4646,4.4137,4.3798,4.3439,4.329,4.329,4.329,4.2981,4.2467,4.2467,4.2467,4.2548,4.3061,4.329,4.329,4.329,4.329,4.329,4.329,4.329,4.329,4.329,4.329,4.329,4.329,4.329,4.329,4.329,4.329,4.323,4.294,4.2611,4.2321,4.2021,4.1384,4.0816,4.0487,4.0157,3.9828,3.9463,3.9373,3.9373,3.9373,3.914,0.0,0.0,0.0,0.0,0.0,0.0,3.6956,3.6956,3.6686,3.6357,3.6058,3.5998,3.6148,3.6477,3.6178,3.6716,3.8302,0.0,0.0,0.0,0.0,0.0,0.0,0.0,0.0,4.0558,4.0959,4.1636,4.2508,4.3021,4.2981,4.2508,4.3061,4.2699,4.1699,4.2263,4.2467,4.2548,4.3061,4.329,4.325,4.267,4.2111,4.1337,4.7728,4.7346,4.7032,4.7032,4.7439,4.7536,4.6619,4.732,4.7386,4.5671,4.6707,4.7586,4.7586,4.8837,4.9673,4.9673,4.8639,4.8412,4.9418,4.7917,4.7414,4.8252,4.7788,4.7459,4.7309,4.68,4.6471,0.0,0.0,0.0,4.4317,4.3738,4.3439,4.329,4.329,0.0,0.0,0.0,4.329,4.329,4.329,4.329,4.329,4.329,4.329,4.329,4.329,4.329,4.329,4.329,4.329,4.329,4.329,4.329,4.329,4.329,4.329,4.329,4.329,4.294,4.262,4.262,4.2111,4.1444,4.0935,4.0606,4.0247,3.9738,3.9529,3.9373,3.9373,3.9373,0.0,0.0,0.0,0.0,0.0,0.0,3.7614,3.7614,3.7494,3.7225,3.6716,3.6686,3.6746,3.6866,3.6626,3.7045,3.8332,3.8392,3.8721,0.0,0.0,3.9373,3.9373,0.0,4.0726,4.1384,4.2081,4.2701,4.329,4.329,4.329,4.329,4.329,4.329,4.329,4.329,4.329,4.329,4.329,4.329,4.329,4.329,4.271,4.1864,4.912,4.9089,4.9029,4.9029,4.9059,4.9252,4.971,4.9846,4.8834,4.5727,4.7028,4.8173,4.8125,4.9852,5.102,5.102,5.0342,4.9984,5.0106,4.9433,4.8805,4.8327,4.8237,4.7908,4.7309,4.7249,4.692,0.0,0.0,4.5514,0.0,4.4257,4.3858,4.329,0.0,0.0,0.0,4.329,4.329,4.329,4.329,4.329,4.329,4.329,4.329,4.329,4.329,4.329,4.329,4.329,4.329,4.329,4.329,4.329,4.329,4.329,4.329,4.329,4.329,4.326,4.32,4.32,4.2761,4.2291,4.2231,4.1265,4.0397,4.0337,3.9828,3.9373,3.9373,3.9373,3.9409,0.0,0.0,0.0,0.0,0.0,3.8302,3.8302,3.7764,3.7375,3.7315,3.7315,3.7584,3.8153,3.7135,3.7045,3.8332,3.8392,3.8721,3.9409,0.0,3.9373,3.9373,4.0068,4.0726,4.1384,4.2081,4.2701,4.329,4.329,4.329,4.329,4.329,4.329,4.329,4.329,4.329,4.329,4.329,4.329,4.329,4.329,4.325,4.313,4.9299,4.9583,4.9853,4.9853,5.0182,5.0511,5.0734,5.0794,5.0035,4.7926,4.903,4.9999,4.9999,5.0691,5.1229,5.1229,5.0913,5.0794,5.0794,5.0212,4.9733,4.9464,4.8716,4.8147,4.7908,4.7519,4.7189,0.0,0.0,0.0,0.0,0.0,0.0,0.0,0.0,4.4496,4.4496,4.4077,4.3888,4.3898,4.3439,4.329,4.329,4.329,4.329,4.329,4.329,4.329,4.329,4.329,4.329,4.329,4.329,4.329,4.329,4.329,4.329,4.329,4.329,4.329,4.329,4.329,4.315,4.2851,4.25,4.1991,4.1354,4.0576,3.9888,3.9373,3.9373,3.9373,3.9373,0.0,0.0,0.0,0.0,0.0,0.0,3.902,3.8781,3.8452,3.8033,3.8003,3.8093,3.8362,0.0,3.8033,3.896,3.902,0.0,3.9373,0.0,3.9619,4.0008,4.0666,4.1324,4.2021,4.2641,4.309,4.329,4.329,4.329,4.329,4.329,4.329,4.329,4.329,4.329,4.329,4.329,4.329,4.329,4.329,4.329,4.329,4.9853,5.0212,5.0495,5.0495,5.0853,5.1229,5.1229,5.1229,5.087,4.9921,5.0603,5.1058,5.065,5.0964,5.1229,5.1229,5.1229,5.1229,5.1229,5.0734,5.0405,5.0196,4.9344,0.0,4.8297,4.7848,4.7489,4.7309,4.683,0.0,0.0,0.0,0.0,0.0,4.5304,4.5304,4.5274,4.4796,4.4616,4.4556,4.4107,4.3768,4.3589,4.3589,4.3469,4.329,4.329,4.329,4.329,4.329,4.329,4.329,4.329,4.329,4.329,4.329,4.329,4.329,4.329,4.329,4.329,4.329,4.329,4.317,4.2761,4.253,4.2021,4.0666,4.0038,3.9649,3.9469,3.9373,3.9373,3.9373,0.0,0.0,0.0,3.9373,0.0,3.9373,3.9373,3.923,3.8751,3.8691,3.8691,3.8691,0.0,0.0,0.0,0.0,0.0,0.0,0.0,0.0,0.0,4.1235,4.1931,4.241,4.303,4.329,4.329,4.329,4.329,4.329,4.329,4.329,4.329,4.329,4.329,4.329,4.329,4.329,4.329,4.329,4.329,4.329,5.1199,5.1199,5.1199,5.1199,5.1199,5.1229,5.1229,5.1229,5.1182,5.1182,5.1182,5.0698,4.9357,5.0383,5.1229,5.1229,5.1229,5.1229,5.1229,5.1199,5.0853,0.0,0.0,4.9613,4.8327,4.8267,4.7967,4.7309,0.0,0.0,4.6279,0.0,4.5304,4.5304,4.5304,4.5304,4.5304,4.5274,4.5274,4.5274,4.5274,4.4885,4.4317,4.4317,4.3898,4.329,4.329,4.329,4.329,4.329,4.329,4.329,4.329,4.329,4.329,4.329,4.329,4.329,4.329,4.329,4.329,4.329,4.329,4.329,4.329,4.2821,4.2021,4.0666,4.0397,4.0187,3.9493,3.9373,3.9373,3.9373,0.0,0.0,0.0,3.9373,0.0,3.9373,3.9373,3.9373,3.9373,3.9373,0.0,0.0,0.0,0.0,0.0,0.0,0.0,3.9373,4.0038,0.0,4.0397,4.1722,4.2381,4.241,4.303,4.329,4.329,4.329,4.329,4.329,4.329,4.329,4.329,4.329,4.329,4.329,4.329,4.329,4.329,4.329,4.329,4.329,5.1229,5.1229,5.1229,5.1229,5.1229,5.1229,5.1229,5.1229,5.1229,5.1229,5.1229,5.1058,5.0603,5.0964,5.1229,0.0,5.1229,5.1229,0.0,5.1229,5.1109,5.0853,5.0435,4.9986,4.9568,4.8745,4.8177,4.7967,0.0,0.0,0.0,4.677,4.6651,4.6651,4.6651,4.6651,4.6621,4.6202,4.5992,4.5963,4.5484,4.5155,4.4945,4.4496,4.4197,4.3917,4.3439,4.329,4.329,4.329,4.329,4.329,4.329,4.329,4.329,4.329,4.329,4.329,4.329,4.329,4.329,4.329,4.329,4.329,4.329,4.2821,4.2291,4.1871,4.1422,4.0876,4.0217,4.0098,3.9948,3.9463,3.9373,0.0,3.9373,0.0,3.9373,3.9373,3.9373,3.9373,3.9373,3.9373,0.0,0.0,0.0,0.0,0.0,0.0,0.0,0.0,4.0277,0.0,4.1752,4.2201,4.262,4.303,4.32,4.329,4.329,4.329,4.329,4.329,4.329,4.329,4.329,4.329,4.329,4.329,4.329,4.329,4.329,4.329,4.329,4.329,5.1229,5.1229,5.1229,5.1229,5.1229,5.1229,5.1229,5.1229,5.1229,5.1229,5.1229,5.1229,5.1229,5.1229,0.0,5.1229,5.1229,5.1229,5.1229,5.1229,5.1229,5.1229,5.0794,5.0435,5.0196,4.9194,0.0,4.8297,4.7638,4.7309,4.7309,4.7309,4.7309,4.7309,4.7309,4.7309,4.7279,4.686,4.6681,4.6651,4.6232,4.5903,4.5633,4.5214,4.4766,4.4257,4.3798,4.3499,4.329,4.329,4.329,4.329,4.329,4.329,4.329,4.329,4.329,4.329,4.329,4.329,4.329,4.329,4.329,4.329,4.329,4.303,4.2641,4.244,4.2081,4.1602,4.0876,4.0756,4.0546,3.9888,3.9798,3.9709,3.9469,0.0,3.9373,0.0,0.0,0.0,0.0,3.9373,3.9373,0.0,0.0,0.0,0.0,0.0,0.0,4.0397,4.0876,0.0,4.2381,4.265,4.294,4.329,4.329,4.329,4.329,4.329,4.329,4.329,4.329,4.329,4.329,4.329,4.329,4.329,4.329,4.329,4.329,4.329,4.329,4.329,5.1229,5.1229,5.1229,0.0,5.1229,0.0,5.1229,5.1229,5.1229,5.1229,5.1229,5.1229,5.1229,5.1229,5.1229,5.1229,0.0,0.0,0.0,5.1229,5.1229,5.1229,5.1229,5.0883,5.0285,4.9673,4.8985,4.8297,4.7638,4.7309,4.7309,4.7309,4.7309,4.7309,4.7309,4.7309,4.7309,4.7309,4.7309,4.7309,4.7309,4.695,4.6339,4.6352,4.5544,4.4436,4.4347,4.3888,4.3349,4.3319,4.329,4.329,4.329,4.329,4.329,4.329,4.329,4.329,4.329,4.329,4.329,4.329,4.329,4.329,4.329,4.329,4.311,4.259,4.247,4.2261,4.1564,4.1444,4.1235,4.0576,4.0457,4.0247,3.9649,3.9559,3.9559,0.0,0.0,0.0,0.0,3.9559,3.9559,0.0,0.0,0.0,0.0,0.0,4.0546,4.0546,4.1752,4.241,4.247,4.303,4.329,4.329,4.329,4.329,4.329,4.329,4.329,4.329,4.329,4.329,4.329,4.329,4.329,4.329,4.329,4.329,4.329,4.329,4.329,4.329,0.0,0.0,5.1229,5.1229,5.1229,5.1229,5.1229,5.1229,5.1229,5.1229,5.1229,5.1229,5.1229,5.1229,5.1229,5.1229,5.1229,5.1229,5.1229,5.1229,5.1229,5.1229,5.1229,5.1139,5.099,5.0331,4.9434,4.8297,4.7638,4.7309,4.7309,4.7309,4.7309,4.7309,4.7309,4.7309,4.7309,4.7309,4.7309,4.7309,4.7309,4.7219,4.701,4.6459,4.607,4.5723,4.4676,4.4227,4.4018,4.3469,4.329,4.329,4.329,4.329,4.329,4.329,4.329,4.329,4.329,4.329,4.329,4.329,4.329,4.329,4.329,4.329,4.326,4.315,4.312,4.291,4.2291,4.2171,4.1961,4.1265,4.1145,4.1085,4.0935,4.0905,4.0905,0.0,4.0905,4.0905,4.0905,4.0905,4.0905,0.0,0.0,0.0,0.0,4.1662,4.1931,4.1931,4.2231,4.265,4.309,4.323,4.329,4.329,4.329,4.329,4.329,4.329,4.329,4.329,4.329,4.329,4.329,4.329,4.329,4.329,4.329,4.329,4.329,4.329,4.329,4.329,5.1229,5.1229,5.1229,5.1229,5.1229,5.1229,5.1229,5.1229,5.1229,5.1229,5.1229,5.1229,5.1229,5.1229,5.1229,5.1229,5.1229,5.1229,5.1229,5.1229,5.1229,5.1229,5.1229,5.1229,5.1229,5.0524,4.9613,4.8297,4.7938,4.7608,4.7309,4.7309,4.7309,4.7309,4.7309,4.7309,4.7309,4.7309,4.7309,4.7309,4.7309,4.7309,4.7279,4.692,4.6591,4.619,4.5484,4.4825,4.4257,4.3898,4.3529,4.329,4.329,4.329,4.329,4.329,4.329,4.329,4.329,4.329,4.329,4.329,4.329,4.329,4.329,4.329,4.329,4.329,4.329,4.32,4.288,4.2791,4.2581,4.1961,4.1871,4.1752,4.1452,4.1422,0.0,4.1422,4.1422,4.1422,4.1422,4.1422,4.1422,4.1422,4.1692,0.0,4.1871,4.2432,4.2671,4.241,4.2641,4.297,4.329,4.329,4.329,4.329,4.329,4.329,4.329,4.329,4.329,4.329,4.329,4.329,4.329,4.329,4.329,4.329,4.329,4.329,4.329,4.329,4.329,4.329,5.1229,5.1229,5.1229,5.1229,5.1229,5.1229,5.1229,5.1229,5.1229,5.1229,5.1229,5.1229,5.1229,5.1229,5.1229,5.1229,5.1229,5.1229,5.1229,5.1229,5.1229,5.1229,5.1229,5.1229,5.1229,5.0524,4.9657,4.8596,4.8386,4.7997,4.7459,4.7369,4.7309,4.7309,4.7309,4.7309,4.7309,4.7309,4.7309,4.7309,4.7309,4.7309,4.7309,4.7309,4.695,4.6471,4.6309,4.5603,4.4586,4.4377,4.3917,4.3409,4.3319,4.329,4.329,4.329,4.329,4.329,4.329,4.329,4.329,4.329,4.329,4.329,4.329,4.329,4.329,4.329,4.329,4.329,4.329,4.329,4.315,4.265,4.256,4.2351,4.1743,0.0,4.1683,4.1683,4.1683,4.1683,4.1683,4.1683,4.1683,4.1683,4.2192,4.256,4.256,4.303,4.309,4.256,4.303,4.329,4.329,4.329,4.329,4.329,4.329,4.329,4.329,4.329,4.329,4.329,4.329,4.329,4.329,4.3409,4.3439,4.3439,4.3559,4.3589,4.3589,4.3589,4.3589,4.3589,5.1229,5.1229,5.1229,5.1229,5.1229,5.1229,5.1229,5.1229,5.1229,5.1229,5.1229,5.1229,5.1229,5.1229,5.1229,5.1229,5.1229,5.1229,5.1229,5.1229,5.1229,5.1229,5.1229,5.1229,5.1229,5.0524,5.0076,4.9897,4.8835,4.8237,4.8117,4.7578,4.7309,4.7309,4.7309,4.7309,4.7309,4.7309,4.7309,4.7309,4.7309,4.7309,4.7309,4.7309,4.7249,4.707,4.6531,4.616,4.5843,4.4706,4.4257,4.4077,4.3469,4.329,4.329,4.329,4.329,4.329,4.329,4.329,4.329,4.329,4.329,4.329,4.329,4.329,4.329,4.329,4.329,4.329,4.329,4.329,4.326,4.317,4.314,4.311,4.3021,0.0,4.2991,4.2991,4.2991,4.2991,4.2991,4.2991,4.2991,4.2991,4.308,4.314,4.314,4.323,4.326,4.314,4.323,4.329,4.329,4.329,4.329,4.329,4.329,4.329,4.329,4.329,4.329,4.329,4.329,4.329,4.3349,4.3888,4.4127,4.4227,4.4766,4.4975,4.4975,4.4975,4.4975,4.4975,5.1229,5.1229,5.1229,5.1229,5.1229,5.1229,5.1229,5.1229,5.1229,5.1229,5.1229,5.1229,5.1229,5.1229,5.1229,5.1229,5.1229,5.1229,5.1229,5.1229,5.1229,5.1229,5.1229,5.1229,5.1229,5.0883,5.0554,5.0196,4.9643,4.8985,4.8267,4.7967,4.7638,4.7309,4.7309,4.7309,4.7309,4.7309,4.7309,4.7309,4.7309,4.7309,4.7309,4.7309,4.7309,4.7279,4.695,4.6621,4.619,4.5603,4.4915,4.4257,4.3958,4.3589,4.329,4.329,4.329,4.329,4.329,4.329,4.329,4.329,4.329,4.329,4.329,4.329,4.329,4.329,4.329,4.329,4.329,4.329,4.329,4.329,4.329,0.0,0.0,4.329,4.329,4.329,4.329,4.329,4.329,4.329,4.329,4.329,4.329,4.329,4.329,4.329,4.329,4.329,4.329,4.329,4.329,4.329,4.329,4.329,4.329,4.329,4.329,4.3648,4.3828,4.3858,4.4227,4.4377,4.4407,4.4706,4.4855,4.4885,4.5185,4.5304,4.5304,4.5304,4.5304,4.5304,5.1229,5.1229,5.1229,5.1229,5.1229,5.1229,5.1229,5.1229,5.1229,5.1229,5.1229,5.1229,5.1229,5.1229,5.1229,5.1229,5.1229,5.1229,5.1229,5.1229,5.1229,5.1229,5.1229,5.1229,5.1229,5.1229,5.0913,5.0435,5.0255,4.9687,4.8745,4.8416,4.8027,4.7519,4.7369,4.7309,4.7309,4.7309,4.7309,4.7309,4.7309,4.7309,4.7309,4.7309,4.7309,4.7309,4.7309,4.698,4.6488,4.6339,4.5633,4.4736,4.4407,4.3917,4.3499,4.3349,4.329,4.329,4.329,4.329,4.329,4.329,4.329,4.329,4.329,4.329,4.329,4.329,4.329,4.329,4.329,4.329,4.329,4.329,0.0,0.0,0.0,4.329,4.329,4.329,4.329,4.329,4.329,4.329,4.329,4.329,4.329,4.329,4.329,4.329,4.3349,4.3529,4.3379,4.329,4.329,4.3439,4.3529,4.3529,4.3678,4.3738,4.3768,4.4317,4.4556,4.4556,4.5065,4.5304,4.5304,4.5454,4.5544,4.5544,4.5693,4.5753,4.5753,4.5753,4.5753,4.5753,5.1229,5.1229,5.1229,5.1229,5.1229,5.1229,5.1229,5.1229,5.1229,5.1229,5.1229,5.1229,5.1229,5.1229,5.1229,5.1229,5.1229,5.1229,5.1229,5.1229,5.1229,5.1229,5.1229,5.1229,5.1229,5.1229,5.1199,5.1139,5.0495,5.0136,5.0016,4.8835,4.8267,4.8177,4.7578,4.7309,4.7309,4.7309,4.7309,4.7309,4.7309,4.7309,4.7309,4.7309,4.7309,4.7309,4.7309,4.7279,4.713,4.6488,4.6219,4.5963,4.4706,4.4287,4.4107,4.3469,4.329,4.329,4.329,4.329,4.329,4.329,4.329,4.329,4.329,4.329,4.329,4.329,4.329,4.329,4.329,4.329,4.329,4.329,0.0,0.0,4.329,4.329,4.329,4.329,4.329,4.329,4.329,4.329,4.329,4.329,4.329,4.329,4.329,4.329,4.3559,4.4227,4.3618,4.329,4.329,4.3928,4.4257,4.4257,4.4855,4.5155,4.5155,4.5185,4.5214,4.5214,4.5274,4.5304,4.5334,4.5992,4.6262,4.6322,4.692,4.716,4.716,4.716,4.716,4.716,5.1229,5.1229,5.1229,5.1229,5.1229,5.1229,5.1229,5.1229,5.1229,5.1229,5.1229,5.1229,5.1229,5.1229,5.1229,5.1229,5.1229,5.1229,5.1229,5.1229,5.1229,5.1229,5.1229,5.1229,5.1229,5.1229,5.1229,5.1229,5.0913,5.0584,5.0196,4.9687,4.9075,4.8267,4.8027,4.7698,4.7309,4.7309,4.7309,4.7309,4.7309,4.7309,4.7309,4.7309,4.7309,4.7309,4.7309,4.7309,4.7279,4.701,4.6608,4.619,4.5681,4.5274,4.4796,4.4137,4.3618,4.329,4.329,4.329,4.329,4.329,4.329,4.329,4.329,4.329,4.329,4.329,4.329,4.329,4.329,4.329,4.329,4.329,0.0,4.329,4.329,4.329,4.329,4.329,4.329,4.329,4.329,4.329,4.329,4.329,4.329,4.329,4.329,4.3678,4.4257,4.4915,4.4676,4.4556,4.4556,4.4796,4.4915,4.4915,4.5185,4.5304,4.5304,4.5753,4.5933,4.5963,4.6352,4.6531,4.6561,4.683,4.692,4.695,4.7219,4.7309,4.7309,4.7309,4.7309,4.7309,5.1229,5.1229,5.1229,5.1229,5.1229,5.1229,5.1229,5.1229,5.1229,5.1229,5.1229,5.1229,5.1229,5.1229,5.1229,5.1229,5.1229,5.1229,5.1229,5.1229,5.1229,5.1229,5.1229,5.1229,5.1229,5.1229,5.1229,5.1229,5.1229,5.0943,5.0495,5.0285,4.9717,4.8895,4.8476,4.8027,4.7608,4.7399,4.7309,4.7309,4.7309,4.7309,4.7309,4.7309,4.7309,4.7309,4.7309,4.7309,4.7309,4.7309,4.701,4.6591,4.6381,4.5843,4.5155,4.4496,4.3947,4.3559,4.3349,4.329,4.329,4.329,4.329,4.329,4.329,4.329,4.329,4.329,4.329,4.329,4.329,4.329,4.329,4.329,4.329,4.329,4.329,4.329,4.329,4.329,4.329,4.329,4.329,4.329,4.3379,4.3589,4.3589,4.3678,4.3928,4.4377,4.4915,4.5603,4.5603,4.5723,4.5933,4.5723,4.5603,4.5633,4.5813,4.5933,4.5933,4.6411,4.6621,4.6651,4.71,4.7309,4.7309,4.7309,4.7309,4.7309,4.7309,4.7309,4.7309,4.7309,4.7309,4.7309,5.1229,5.1229,5.1229,5.1229,5.1229,5.1229,5.1229,5.1229,5.1229,5.1229,5.1229,5.1229,5.1229,5.1229,5.1229,5.1229,5.1229,5.1229,5.1229,5.1229,5.1229,5.1229,5.1229,5.1229,5.1229,5.1229,5.1229,5.1229,5.1229,5.1229,5.1199,5.0495,5.0196,5.0136,4.8895,4.8297,4.8237,4.7578,4.7309,4.7309,4.7309,4.7309,4.7309,4.7309,4.7309,4.7309,4.7309,4.7309,4.7309,4.7309,4.7309,4.7189,4.6531,4.5873,4.5185,4.4526,4.4317,4.4167,4.3499,4.329,4.329,4.329,4.329,4.329,4.329,4.329,4.329,4.329,4.329,4.329,4.329,4.329,4.329,4.329,4.329,4.329,4.329,4.329,4.329,4.329,4.329,4.329,4.329,4.329,4.3559,4.4257,4.4317,4.4616,4.5274,4.5304,4.5633,4.6279,4.6279,4.6651,4.7309,4.6651,4.6279,4.6352,4.698,4.7309,4.7309,4.7309,4.7309,4.7309,4.7309,4.7309,4.7309,4.7309,4.7309,4.7309,4.7309,4.7309,4.7309,4.7309,4.7309,4.7309,5.1229,5.1229,5.1229,5.1229,5.1229,5.1229,5.1229,5.1229,5.1229,5.1229,5.1229,5.1229,5.1229,5.1229,5.1229,5.1229,5.1229,5.1229,5.1229,5.1229,5.1229,5.1229,5.1229,5.1229,5.1229,5.1229,5.1229,5.1229,5.1229,5.1229,5.1229,5.102,5.0644,5.0166,4.9777,4.9134,4.8267,4.8087,4.7728,4.7309,4.7309,4.7309,4.7309,4.7309,4.7309,4.7309,4.7309,4.7309,4.7309,4.7309,4.7309,4.7279,4.707,4.6561,4.5963,4.5741,4.5394,4.4975,4.4766,4.4377,4.3858,4.3409,4.329,4.329,4.329,4.329,4.329,4.329,4.329,4.329,4.329,4.329,4.329,4.329,4.329,4.329,4.329,4.329,4.329,4.329,4.329,4.329,4.329,4.3708,4.4067,4.4287,4.4736,4.5304,4.5992,4.6022,4.6322,4.698,4.701,4.71,4.7309,4.71,4.701,4.701,4.7219,4.7309,4.7309,4.7309,4.7309,4.7309,4.7309,4.7309,4.7309,4.7309,4.7309,4.7309,4.7309,4.7309,4.7309,4.7309,4.7309,4.7309,5.1229,5.1229,5.1229,5.1229,5.1229,5.1229,5.1229,5.1229,5.1229,5.1229,5.1229,5.1229,5.1229,5.1229,5.1229,5.1229,5.1229,5.1229,5.1229,5.1229,5.1229,5.1229,5.1229,5.1229,5.1229,5.1229,5.1229,5.1229,5.1229,5.1229,5.1229,5.1229,5.0973,5.0554,5.0315,4.9747,4.9015,4.8506,4.8057,4.7668,4.7429,4.7309,4.7309,4.7309,4.7309,4.7309,4.7309,4.7309,4.7309,4.7309,4.7309,4.7309,4.7309,4.704,4.6651,4.6411,4.6022,4.5633,4.5364,4.5005,4.4616,4.4197,4.3678,4.329,4.329,4.329,4.329,4.329,4.329,4.329,4.329,4.329,4.329,4.329,4.329,4.329,4.329,4.329,4.3379,4.3648,4.3678,4.3798,4.4077,4.4466,4.4825,4.5095,4.5723,4.6262,4.6681,4.6711,4.689,4.7309,4.7309,4.7309,4.7309,4.7309,4.7309,4.7309,4.7309,4.7309,4.7309,4.7309,4.7309,4.7309,4.7309,4.7309,4.7309,4.7309,4.7309,4.7309,4.7309,4.7309,4.7309,4.7309,4.7309,4.7309,5.1229,5.1229,5.1229,5.1229,5.1229,5.1229,5.1229,5.1229,5.1229,5.1229,5.1229,5.1229,5.1229,5.1229,5.1229,5.1229,5.1229,5.1229,5.1229,5.1229,5.1229,5.1229,5.1229,5.1229,5.1229,5.1229,5.1229,5.1229,5.1229,5.1229,5.1229,5.1229,5.1229,5.1199,5.0554,5.0255,5.0106,4.8955,4.8416,4.8327,4.7668,4.7399,4.7399,4.7339,4.7309,4.7309,4.7309,4.7309,4.7309,4.7309,4.7309,4.7309,4.7309,4.7309,4.7189,4.6591,4.6369,4.6262,4.5633,4.5424,4.5394,4.5394,4.4436,4.3469,4.3469,4.3469,4.3469,4.3469,4.3469,4.3469,4.3469,4.3469,4.3469,4.3469,4.3469,4.3469,4.3469,4.3469,4.3678,4.4317,4.4407,4.4646,4.5244,4.5334,4.5663,4.6309,4.695,4.7309,4.7309,4.7309,4.7309,4.7309,4.7309,4.7309,4.7309,4.7309,4.7309,4.7309,4.7309,4.7309,4.7309,4.7309,4.7309,4.7309,4.7309,4.7309,4.7309,4.7309,4.7309,4.7309,4.7309,4.7309,4.7309,4.7309,4.7309,4.7309,5.1229,5.1229,5.1229,5.1229,5.1229,5.1229,5.1229,5.1229,5.1229,5.1229,5.1229,5.1229,5.1229,5.1229,5.1229,5.1229,5.1229,5.1229,5.1229,5.1229,5.1229,5.1229,5.1229,5.1229,5.1229,5.1229,5.1229,5.1229,5.1229,5.1229,5.1229,5.1229,5.1229,5.1199,5.1079,5.0674,5.0166,4.9897,4.9523,4.903,4.8327,4.8087,4.8027,4.7489,4.7309,4.7309,4.7309,4.7309,4.7309,4.7309,4.7309,4.7309,4.7309,4.7309,4.7279,4.713,4.71,4.707,4.692,4.6501,4.6082,4.6082,4.5484,4.4855,4.4855,4.4855,4.4855,4.4855,4.4855,4.4855,4.4855,4.4855,4.4855,4.4855,4.4855,4.4855,4.4855,4.4855,4.4915,4.5065,4.5095,4.5125,4.5274,4.5783,4.6381,4.704,4.7219,4.7309,4.7309,4.7309,4.7309,4.7309,4.7309,4.7309,4.7309,4.7309,4.7309,4.7309,4.7309,4.7309,4.7309,4.7309,4.7309,4.7309,4.7309,4.7309,4.7309,4.7309,4.7309,4.7309,4.7309,4.7309,4.7309,4.7309,4.7309,4.7309,5.1229,5.1229,5.1229,5.1229,5.1229,5.1229,5.1229,5.1229,5.1229,5.1229,5.1229,5.1229,5.1229,5.1229,5.1229,5.1229,5.1229,5.1229,5.1229,5.1229,5.1229,5.1229,5.1229,5.1229,5.1229,5.1229,5.1229,5.1229,5.1229,5.1229,5.1229,5.1229,5.1229,5.1229,5.1229,5.102,5.0644,5.0315,4.9986,4.9673,4.9015,4.8566,4.8237,4.7908,4.7578,4.7309,4.7309,4.7309,4.7309,4.7309,4.7309,4.7309,4.7309,4.7309,4.7309,4.7309,4.7309,4.7309,4.7309,4.704,4.68,4.68,4.6531,4.6082,4.5454,4.5304,4.5304,4.5304,4.5304,4.5304,4.5304,4.5304,4.5304,4.5304,4.5304,4.5304,4.5304,4.5304,4.5424,4.5753,4.5783,4.5903,4.6232,4.6591,4.692,4.7279,4.7309,4.7309,4.7309,4.7309,4.7309,4.7309,4.7309,4.7309,4.7309,4.7309,4.7309,4.7309,4.7309,4.7309,4.7309,4.7309,4.7309,4.7309,4.7309,4.7309,4.7309,4.7309,4.7309,4.7309,4.7309,4.7309,4.7309,4.7309,4.7309,4.7309,5.1229,5.1229,5.1229,5.1229,5.1229,5.1229,5.1229,5.1229,5.1229,5.1229,5.1229,5.1229,5.1229,5.1229,5.1229,5.1229,5.1229,5.1229,5.1229,5.1229,5.1229,5.1229,5.1229,5.1229,5.1229,5.1229,5.1229,5.1229,5.1229,5.1229,5.1229,5.1229,5.1229,5.1229,5.1229,5.1229,5.1169,5.0584,5.0375,5.0315,4.9703,4.9105,4.8596,4.8356,4.7938,4.7459,4.7339,4.7309,4.7309,4.7309,4.7309,4.7309,4.7309,4.7309,4.7309,4.7309,4.7309,4.7309,4.7309,4.7309,4.7309,4.7309,4.7309,4.701,4.5903,4.5633,4.5633,4.5633,4.5633,4.5633,4.5633,4.5633,4.5633,4.5633,4.5633,4.5633,4.5633,4.5633,4.5843,4.6369,4.6459,4.6711,4.7249,4.7309,4.7309,4.7309,4.7309,4.7309,4.7309,4.7309,4.7309,4.7309,4.7309,4.7309,4.7309,4.7309,4.7309,4.7309,4.7309,4.7309,4.7309,4.7309,4.7309,4.7309,4.7309,4.7309,4.7309,4.7309,4.7309,4.7309,4.7309,4.7309,4.7309,4.7309,4.7309,4.7309,5.1229,5.1229,5.1229,5.1229,5.1229,5.1229,5.1229,5.1229,5.1229,5.1229,5.1229,5.1229,5.1229,5.1229,5.1229,5.1229,5.1229,5.1229,5.1229,5.1229,5.1229,5.1229,5.1229,5.1229,5.1229,5.1229,5.1229,5.1229,5.1229,5.1229,5.1229,5.1229,5.1229,5.1229,5.1229,5.1229,5.1199,5.1109,5.1079,5.102,5.0315,5.0016,4.9807,4.8716,4.8237,4.8087,4.7519,4.7309,4.7309,4.7309,4.7309,4.7309,4.7309,4.7309,4.7309,4.7309,4.7309,4.7309,4.7309,4.7309,4.7309,4.7309,4.7309,4.7249,4.707,4.704,4.704,4.704,4.704,4.704,4.704,4.704,4.704,4.704,4.704,4.704,4.704,4.704,4.707,4.716,4.716,4.7219,4.7309,4.7309,4.7309,4.7309,4.7309,4.7309,4.7309,4.7309,4.7309,4.7309,4.7309,4.7309,4.7309,4.7309,4.7309,4.7309,4.7309,4.7309,4.7309,4.7309,4.7309,4.7309,4.7309,4.7309,4.7309,4.7309,4.7309,4.7309,4.7309,4.7309,4.7309,4.7309,4.7309,4.7309,5.1229,5.1229,5.1229,5.1229,5.1229,5.1229,5.1229,5.1229,5.1229,5.1229,5.1229,5.1229,5.1229,5.1229,5.1229,5.1229,5.1229,5.1229,5.1229,5.1229,5.1229,5.1229,5.1229,5.1229,5.1229,5.1229,5.1229,5.1229,5.1229,5.1229,5.1229,5.1229,5.1229,5.1229,5.1229,5.1229,5.1229,5.1229,5.1229,5.1199,5.09,5.0524,5.0136,4.9613,4.9134,4.8745,4.8087,4.7608,4.7309,4.7309,4.7309,4.7309,4.7309,4.7309,4.7309,4.7309,4.7309,4.7309,4.7309,4.7309,4.7309,4.7309,4.7309,4.7309,4.7309,4.7309,4.7309,4.7309,4.7309,4.7309,4.7309,4.7309,4.7309,4.7309,4.7309,4.7309,4.7309,4.7309,4.7309,4.7309,4.7309,4.7309,4.7309,4.7309,4.7309,4.7309,4.7309,4.7309,4.7309,4.7309,4.7309,4.7309,4.7309,4.7309,4.7309,4.7309,4.7309,4.7309,4.7309,4.7309,4.7309,4.7309,4.7309,4.7309,4.7309,4.7309,4.7309,4.7309,4.7309,4.7309,4.7309,4.7309,4.7309,4.7309,4.7309,4.7309]}]]